GFSMW_925_spd_000.txt.gz
Wind_Speed
10 21 22 21 19 16 14 17 24 25 27 27 25 24 26 26 26 30 32 31 32 33 34 37 34 32 33 34 33 31 31 31 27 24 26 27 28 29 33 34 35 37 37
9 10 18 21 21 19 17 14 13 15 23 28 27 26 25 24 30 31 35 36 34 33 33 36 34 32 31 31 33 32 27 27 27 20 12 6 15 30 35 38 38 39 38
8 8 11 20 21 22 18 14 13 12 11 14 22 21 23 24 22 28 28 28 29 30 30 31 31 30 31 31 31 33 32 23 25 30 16 3 6 2 20 29 34 34 35
8 7 9 16 19 19 18 16 11 7 8 6 10 18 20 18 23 24 24 25 25 30 33 34 33 34 32 32 32 33 35 29 25 21 33 34 21 5 4 15 25 26 28
7 8 8 13 16 19 19 21 18 16 11 9 9 11 16 22 24 24 23 23 25 27 30 33 33 35 33 34 33 31 32 33 30 29 22 25 30 31 12 11 11 25 30
8 7 10 12 15 18 20 20 19 19 16 13 11 11 14 18 19 22 22 23 23 23 24 27 31 33 34 33 34 34 34 35 33 34 29 29 14 14 11 12 15 14 25
6 6 6 8 15 20 22 22 22 23 22 20 19 17 16 16 17 19 20 20 22 21 22 25 28 32 33 34 34 33 34 36 35 34 33 32 34 32 26 22 14 10 21
6 6 6 9 13 16 19 20 20 20 21 22 21 20 19 19 19 19 20 21 22 23 23 24 22 28 31 31 33 34 35 34 32 34 35 34 34 33 32 30 15 11 11
5 6 5 7 10 12 12 13 15 15 18 18 18 19 20 21 20 20 19 20 21 22 23 23 24 25 26 27 31 32 34 34 34 34 35 35 37 34 33 33 32 16 14
7 5 4 6 7 7 10 12 13 15 16 18 19 19 19 19 20 22 22 23 24 23 23 23 22 24 25 26 28 31 33 33 33 33 33 34 35 35 32 32 34 33 22
6 3 2 2 2 7 10 12 14 15 16 18 19 22 23 23 23 24 25 27 28 29 30 29 28 25 27 28 28 29 31 31 34 34 33 35 37 35 32 32 33 33 32
5 4 2 2 8 6 9 17 20 20 19 19 21 20 21 22 23 24 25 26 27 28 28 31 30 29 29 29 29 31 30 30 30 32 34 37 38 37 33 32 33 33 34
4 3 3 4 9 13 15 18 19 19 19 21 20 21 21 22 23 25 26 27 28 30 30 29 29 29 30 31 31 31 31 30 29 29 30 33 34 36 36 35 36 35 34
6 2 4 7 12 14 18 19 19 19 20 21 21 22 22 23 25 26 28 29 29 30 30 31 31 32 32 31 32 32 29 27 27 29 30 32 34 35 35 35 36 35 33
6 7 6 6 10 15 17 18 17 20 23 22 22 24 22 25 27 30 31 32 31 31 32 32 32 32 30 28 31 37 33 28 28 29 31 32 34 37 41 39 37 34 32
7 6 6 9 14 18 17 17 20 22 22 21 22 23 22 23 25 26 27 28 29 30 31 33 31 31 30 32 37 37 33 28 26 27 31 32 33 33 35 39 42 46 40
7 6 8 11 12 15 16 17 20 22 23 22 23 22 25 25 26 27 27 27 27 28 29 29 30 29 33 34 35 31 31 25 28 28 30 33 31 32 33 34 37 39 46
9 8 8 11 14 15 16 18 20 22 22 23 21 23 24 25 27 27 27 29 29 28 29 30 28 31 30 30 28 31 29 30 30 29 30 30 32 33 34 35 31 34 34
8 10 11 11 12 12 16 16 18 18 20 18 21 23 24 26 26 27 29 29 30 27 29 27 30 29 32 27 28 32 29 29 31 29 29 31 33 33 36 36 30 32 34
11 12 11 11 11 12 12 13 14 17 15 19 21 23 25 26 27 28 30 30 29 31 28 30 29 32 27 28 30 32 26 27 27 30 32 32 33 34 35 35 31 26 31
12 10 8 7 8 9 11 12 15 16 20 22 23 24 25 27 27 29 31 29 33 30 33 30 31 27 27 30 30 32 30 24 28 31 31 33 35 39 42 41 38 34 37
5 4 3 5 8 11 13 15 17 21 23 24 25 26 27 28 28 29 28 31 29 32 29 28 26 25 29 30 31 34 31 28 29 32 33 35 40 48 47 42 38 41 37
2 3 6 8 10 13 15 19 21 23 23 23 24 24 26 26 27 27 29 30 26 28 25 24 24 29 33 31 32 31 32 34 33 33 36 44 45 44 40 36 38 37 20
3 6 8 11 13 15 17 18 22 23 23 23 24 24 25 27 26 27 25 27 27 25 24 25 26 30 32 33 31 31 34 35 35 35 39 39 37 31 30 33 30 19 19
5 8 10 13 15 17 19 20 22 22 23 23 24 25 24 25 28 26 27 27 26 26 29 28 29 29 28 32 36 36 36 36 39 42 31 29 29 26 25 21 10 5 2
7 10 12 15 18 20 22 23 23 22 24 23 22 23 25 25 27 27 29 27 28 31 32 33 31 32 32 37 36 37 37 42 38 27 23 23 25 23 22 14 9 4 4

GFSMW_925_spd_003.txt.gz
Wind_Speed
5 22 24 22 19 16 10 11 4 25 34 34 31 30 32 32 30 30 31 33 32 32 33 35 37 36 36 38 38 37 37 37 37 28 28 36 37 40 42 42 45 47 46
9 10 18 21 24 23 21 15 12 13 8 28 33 31 32 28 31 30 32 33 34 34 34 36 39 39 35 36 39 37 31 32 28 21 9 7 17 33 39 41 44 42 42
6 6 10 19 22 25 24 22 18 12 16 2 19 22 17 18 20 21 25 27 29 32 35 37 38 36 36 34 33 34 32 28 26 30 16 3 6 2 10 28 35 34 36
5 5 9 17 19 19 21 22 22 23 19 16 13 6 11 16 21 23 23 25 27 29 30 33 37 38 37 35 34 32 34 30 29 22 36 36 21 4 5 12 19 23 33
6 7 8 13 16 18 21 22 22 24 21 18 16 15 14 14 15 15 17 19 20 21 22 29 36 36 37 38 35 30 29 30 30 30 26 26 31 31 12 12 13 22 32
7 7 12 14 17 18 18 20 22 23 22 21 20 19 18 17 17 17 17 18 19 19 19 20 23 30 33 36 38 37 32 32 30 30 30 28 13 12 9 11 14 16 31
7 7 7 10 13 16 16 17 19 20 20 20 20 20 20 20 19 20 20 21 22 23 23 23 22 19 24 30 35 34 37 36 34 33 33 32 32 33 32 22 14 13 27
7 6 5 7 9 10 12 14 15 17 19 20 20 20 20 21 21 21 20 21 23 24 25 26 25 25 23 20 23 29 33 35 35 35 35 34 34 32 31 29 13 14 13
7 7 6 5 4 7 10 11 14 16 20 21 22 23 23 22 22 22 22 24 25 25 26 26 26 26 26 27 29 29 27 29 32 33 36 35 36 36 35 32 31 15 13
8 7 6 4 2 5 10 18 21 23 23 23 24 23 23 23 24 24 26 26 28 28 29 30 30 30 29 28 29 30 32 33 32 29 30 32 33 34 35 35 34 31 18
7 6 4 2 3 12 20 21 23 24 25 25 24 24 24 23 23 24 26 28 29 31 31 32 32 32 33 33 34 34 33 32 33 34 33 31 32 31 31 34 33 32 31
7 6 4 7 15 17 20 22 22 22 22 22 23 23 24 25 27 29 31 32 30 30 29 31 31 31 31 31 31 31 33 31 30 30 30 31 31 30 29 30 32 34 35
6 5 8 9 15 17 20 21 21 21 23 25 25 26 27 28 29 32 34 35 34 34 34 32 30 30 31 32 32 32 28 27 27 27 28 29 29 30 30 31 30 30 33
7 6 6 9 16 18 19 19 19 21 22 23 24 26 26 27 30 33 33 33 34 34 34 34 35 35 33 32 31 28 34 31 29 28 27 28 29 29 31 32 33 32 30
8 7 7 7 13 17 18 18 19 19 20 20 23 22 24 29 31 31 31 32 33 34 34 35 37 33 35 30 38 40 35 30 26 26 27 29 31 34 37 36 32 31 29
7 8 7 8 12 14 13 14 15 18 18 22 23 23 28 30 29 30 31 30 31 31 32 34 32 34 32 35 39 41 30 20 23 27 30 30 31 31 35 33 35 36 33
9 8 7 9 10 10 10 12 16 19 22 23 22 26 28 27 28 30 30 30 31 31 33 31 31 32 31 34 36 36 21 29 29 28 31 31 28 35 34 37 37 36 34
8 7 8 9 8 8 10 12 17 18 21 20 24 27 28 28 29 30 30 31 30 31 31 30 34 30 34 39 40 25 24 27 28 29 28 27 34 34 34 35 33 35 34
9 11 10 7 5 8 11 15 16 17 19 19 23 25 27 27 28 28 29 30 30 30 31 32 31 35 35 37 24 33 30 29 30 28 24 30 31 33 36 35 33 36 38
11 9 7 4 4 8 10 12 13 15 18 20 23 24 26 26 27 29 29 30 30 31 30 32 32 33 31 22 38 41 33 30 30 25 30 31 30 35 39 38 36 32 37
8 6 4 4 6 8 9 10 13 17 18 21 23 24 24 27 26 28 30 30 29 30 30 29 31 27 27 33 37 35 32 31 30 29 30 33 35 40 45 44 39 34 40
4 4 2 3 6 9 11 13 16 19 20 22 24 26 27 27 27 29 29 27 28 25 27 28 24 26 28 31 34 34 34 35 31 29 32 36 41 44 43 42 37 39 41
3 4 3 5 8 11 13 16 21 22 23 24 27 27 28 27 26 26 27 25 24 24 24 23 25 26 29 31 32 32 33 35 35 33 37 42 40 35 34 35 38 34 28
4 3 4 8 11 13 16 20 23 23 24 26 26 26 25 26 25 24 22 24 23 24 24 25 25 28 30 30 30 31 34 33 32 36 38 35 30 28 30 32 31 28 24
2 3 7 10 14 17 21 23 24 24 25 24 24 23 23 25 26 25 25 26 26 25 29 28 28 27 26 29 37 37 37 36 36 41 29 25 25 26 27 30 29 28 24
3 7 10 13 17 20 23 26 25 24 24 25 23 24 26 25 25 25 29 27 28 30 30 30 29 30 31 34 37 38 38 35 37 28 22 22 24 25 27 28 29 28 25

GFSMW_925_spd_006.txt.gz
Wind_Speed
2 13 17 18 19 20 15 11 15 4 22 27 28 29 31 33 33 33 32 32 32 31 32 33 35 37 38 40 37 36 34 35 30 27 28 31 39 43 44 39 41 46 46
7 10 17 20 24 24 24 20 15 18 7 18 24 19 18 23 31 31 29 29 30 30 31 33 36 37 38 37 36 34 30 28 25 17 14 7 17 28 34 37 40 42 38
7 8 12 18 22 25 25 25 22 21 19 8 9 12 11 9 11 14 18 21 22 25 28 31 36 37 36 36 34 33 30 27 27 29 15 3 6 2 13 20 24 29 33
6 6 8 17 20 22 25 26 27 27 26 21 18 16 12 9 10 11 11 12 12 14 16 20 26 33 35 35 38 35 33 28 25 24 30 35 26 7 10 20 18 22 29
6 6 6 13 17 20 23 24 26 28 27 27 25 23 21 18 16 17 18 18 18 18 19 20 20 19 26 32 33 34 30 29 28 27 25 23 27 31 12 12 12 25 30
6 5 8 13 16 17 19 21 24 25 24 24 24 24 23 21 22 21 21 22 22 22 24 25 25 23 22 22 26 30 30 30 30 30 29 26 12 9 10 11 13 15 29
6 6 6 7 11 14 16 16 19 22 22 23 25 24 22 21 21 20 21 22 25 25 26 27 27 28 28 27 26 25 26 30 30 31 30 30 28 28 30 21 13 12 23
6 6 6 6 8 10 12 16 19 21 21 22 21 20 19 20 20 21 22 22 24 25 27 27 28 28 29 30 31 31 30 27 27 28 29 29 29 31 32 26 15 15 14
7 7 6 7 7 12 15 17 18 20 22 23 22 22 22 22 22 22 22 25 26 28 30 31 31 31 31 31 32 31 31 31 29 31 30 28 27 28 28 28 28 15 17
6 5 4 5 10 16 17 18 18 19 19 19 20 20 20 21 22 23 25 28 30 31 31 31 31 31 32 33 33 31 31 31 31 29 30 31 28 28 26 27 28 28 18
7 6 4 10 17 16 17 17 17 18 19 19 19 19 20 22 23 26 28 29 29 29 28 28 28 28 29 30 30 30 30 29 29 29 30 30 29 27 27 26 25 26 26
7 5 9 17 16 15 14 15 16 17 17 17 18 20 21 23 27 29 30 30 30 31 31 28 28 28 30 30 30 31 30 26 31 29 29 28 27 27 27 26 27 28 29
7 7 8 10 12 11 12 13 15 15 16 17 19 19 22 25 27 28 29 30 31 31 31 30 30 31 30 30 30 30 28 31 31 31 28 26 25 26 28 28 27 29 31
8 7 6 7 10 10 10 12 12 14 15 17 17 18 22 25 27 28 30 31 31 30 31 31 33 32 31 33 30 31 34 30 32 26 22 23 24 26 28 29 27 28 30
7 7 6 5 7 8 9 9 12 15 16 16 15 19 23 25 27 29 30 30 30 30 30 32 34 34 30 31 34 38 38 36 31 25 24 23 28 27 25 30 32 31 29
7 7 6 7 6 6 6 8 10 11 12 13 16 21 26 29 29 30 31 31 32 33 32 32 33 33 34 35 38 40 40 31 24 27 29 29 29 24 33 32 30 32 32
7 7 6 6 5 4 5 7 9 10 13 14 19 24 27 28 28 29 29 29 30 31 31 31 31 33 34 35 39 37 30 28 27 28 31 34 29 30 38 35 34 35 32
6 5 6 4 3 2 4 6 8 12 16 18 22 26 27 27 28 28 27 30 29 29 31 31 31 32 34 36 38 31 32 31 29 27 30 31 27 31 34 36 38 38 39
7 8 6 4 2 2 5 8 12 17 21 22 24 26 27 28 28 28 30 31 29 30 29 29 31 33 34 33 29 38 35 32 32 32 32 31 32 30 34 36 35 40 42
11 7 4 2 2 7 9 12 15 18 20 21 23 24 25 27 29 29 29 28 29 29 30 32 30 31 34 31 34 34 31 29 29 30 30 29 33 37 40 38 36 33 35
10 6 3 3 6 8 11 13 15 17 18 20 22 24 25 28 25 27 28 29 29 28 28 29 30 30 27 32 32 33 32 29 28 28 28 30 36 41 43 39 34 28 41
7 4 2 4 5 8 10 12 15 18 20 22 24 26 27 27 26 28 29 27 27 25 27 26 26 25 28 29 31 32 32 34 32 29 30 33 40 44 39 32 31 36 37
5 3 3 2 5 8 9 13 18 20 21 23 26 27 29 27 25 26 26 25 23 23 23 23 25 27 30 31 30 31 34 33 34 30 34 38 37 32 30 31 35 33 28
4 2 1 4 7 9 12 15 19 20 22 25 27 27 24 23 24 24 22 23 22 22 23 23 24 26 27 26 27 29 32 32 30 31 33 32 31 31 31 31 29 26 27
4 1 3 6 9 12 16 18 20 21 23 25 25 22 21 22 23 24 24 25 24 22 27 27 27 26 25 27 35 36 34 32 33 38 27 26 27 27 27 28 28 29 28
2 3 6 8 12 15 19 21 21 21 23 23 21 21 22 22 23 25 29 26 25 28 27 28 28 29 29 32 35 35 32 31 35 29 22 22 25 24 27 27 29 31 29

GFSMW_925_spd_009.txt.gz
Wind_Speed
4 13 19 23 24 25 21 19 18 12 9 17 20 21 26 28 29 29 29 30 29 29 30 31 34 35 37 39 35 33 31 30 29 21 22 27 33 38 38 38 39 40 43
6 9 18 23 26 25 25 24 24 23 13 5 10 8 5 8 11 13 16 18 22 24 26 28 31 32 33 35 34 30 26 24 26 14 10 5 12 24 31 34 37 37 38
6 6 10 19 23 25 26 27 28 27 25 16 4 3 5 7 13 15 15 14 13 14 14 16 18 22 26 30 30 31 27 24 23 25 12 3 5 2 18 25 29 32 33
4 4 8 14 20 22 24 27 29 30 29 27 27 25 22 16 15 16 17 18 18 17 19 18 19 19 19 20 25 28 24 24 21 22 24 32 26 7 10 19 23 27 32
6 6 7 13 16 19 22 24 26 27 26 25 24 23 22 19 18 19 18 18 18 19 22 23 24 24 24 23 22 23 22 23 24 23 24 23 23 27 10 12 9 24 30
6 5 9 12 15 17 20 22 25 25 24 24 24 23 22 20 21 21 22 22 22 22 23 25 26 26 27 27 26 25 25 24 24 25 25 23 15 13 10 9 11 11 23
7 6 6 8 13 16 17 20 21 23 21 22 21 21 20 19 20 19 20 22 24 26 27 28 28 28 27 28 28 28 27 27 25 25 23 23 23 24 24 18 13 12 25
6 6 6 9 12 13 16 18 19 20 19 19 19 18 18 18 18 19 20 22 23 25 27 29 30 30 30 30 31 32 31 30 30 29 29 27 24 24 23 20 13 15 13
7 7 7 11 12 16 16 15 17 18 18 17 16 17 18 18 19 19 21 23 25 25 28 28 28 29 28 28 29 27 28 29 28 29 29 28 26 26 25 24 24 13 15
7 6 6 11 15 15 15 15 15 16 15 15 16 17 18 19 20 22 24 25 26 27 28 28 28 27 26 28 28 27 28 29 26 24 29 29 27 27 24 23 23 23 14
7 6 7 14 15 14 13 13 13 13 14 15 16 16 19 21 23 25 26 27 27 28 28 27 26 27 28 28 27 28 28 26 28 29 29 30 28 25 23 24 23 23 22
7 6 10 14 13 12 11 11 11 13 14 14 14 16 20 23 25 27 27 28 29 29 29 30 28 29 28 29 27 30 27 29 30 30 31 29 24 25 24 24 25 23 24
7 7 8 9 11 10 8 9 11 12 12 13 14 18 22 24 25 26 27 27 28 29 30 30 29 29 29 28 29 28 30 31 30 30 31 27 27 25 26 27 23 22 26
7 6 6 7 9 8 7 8 9 12 14 14 16 19 21 22 23 24 25 27 28 29 31 30 29 29 29 28 26 31 32 32 30 30 25 26 25 26 30 26 22 24 25
7 7 6 5 7 6 5 8 12 13 13 12 15 18 20 21 23 25 27 28 30 31 33 34 36 33 32 27 34 33 31 26 28 29 27 27 29 30 27 23 29 27 24
7 7 6 7 6 5 6 7 9 11 13 14 16 19 21 23 25 27 29 30 32 32 33 33 32 31 30 31 32 32 32 29 29 30 30 28 31 29 28 29 30 28 27
7 8 7 7 6 5 5 8 8 10 13 13 16 20 22 25 27 28 29 30 30 30 29 30 30 31 32 31 33 32 32 30 28 28 30 31 28 31 30 33 32 30 31
8 7 8 8 6 4 5 6 7 9 12 14 17 20 23 24 26 27 28 29 28 27 29 29 29 31 31 32 33 33 33 31 31 30 31 31 31 30 35 37 36 34 36
7 10 9 7 5 3 3 3 6 10 13 16 19 21 22 25 28 28 29 29 29 28 27 27 30 30 32 31 31 34 32 30 31 30 29 30 32 33 38 39 36 37 38
13 11 8 6 3 1 2 4 7 11 15 18 19 21 22 24 26 25 28 28 27 26 27 28 26 28 30 29 32 32 30 29 28 26 26 30 34 39 40 42 38 30 29
10 9 6 4 2 1 3 4 9 13 17 18 20 21 22 24 24 25 27 29 28 26 25 26 27 27 26 30 32 31 32 29 28 27 30 30 35 39 44 40 33 31 37
8 5 4 3 2 2 5 9 13 16 17 19 21 22 24 23 23 24 28 27 26 23 25 25 27 26 27 29 31 33 33 34 31 30 30 32 40 42 39 37 37 37 34
7 4 2 2 1 4 8 12 15 17 19 20 23 25 25 24 22 25 27 25 22 21 22 23 24 27 28 29 30 32 32 34 34 31 32 37 39 36 34 34 36 33 29
6 3 2 2 5 8 10 11 15 17 19 22 25 26 25 24 26 25 22 21 21 21 22 23 24 26 26 26 28 28 31 32 32 26 28 36 33 29 32 31 29 27 30
3 1 2 4 7 10 13 15 17 18 21 23 25 25 25 24 27 23 23 23 23 21 26 26 26 26 25 27 35 35 35 34 30 34 28 29 27 28 29 29 28 30 30
3 2 3 6 9 13 16 17 18 18 20 23 21 23 21 23 22 24 27 23 22 26 27 27 27 28 30 33 35 35 35 35 33 28 24 25 25 25 27 27 29 29 31

GFSMW_925_spd_012.txt.gz
Wind_Speed
3 12 18 21 22 22 21 24 25 19 7 3 4 7 10 13 13 12 12 12 13 14 15 17 19 21 23 26 27 26 27 28 28 20 21 25 28 31 34 35 37 38 38
6 9 17 21 22 24 28 29 29 26 20 12 8 5 8 13 16 15 15 16 15 15 15 15 16 16 17 20 22 24 21 18 21 11 14 5 9 21 28 33 36 36 37
7 5 10 17 21 27 28 30 30 29 26 21 15 14 16 19 22 23 22 20 19 19 18 18 18 19 19 19 19 19 19 19 22 20 12 4 7 9 21 25 28 32 33
3 4 7 14 19 21 24 26 27 27 26 24 26 26 24 21 17 17 17 18 19 19 21 21 22 22 22 23 22 22 20 20 18 20 18 22 22 9 12 16 21 30 36
6 6 7 14 16 18 22 24 26 26 25 25 25 24 22 18 17 18 19 21 21 21 23 25 25 25 25 24 23 24 25 23 20 18 20 21 20 20 7 14 10 24 22
6 5 10 14 16 18 20 22 25 24 23 23 23 23 22 21 22 23 24 24 25 25 26 27 27 26 27 27 27 27 28 27 26 26 22 18 11 11 10 11 13 14 23
7 6 7 10 14 17 18 20 22 22 21 22 22 22 21 21 22 23 24 26 28 28 28 28 28 28 27 27 27 28 26 27 26 28 26 23 20 21 21 17 12 12 23
7 7 7 11 15 17 17 18 19 20 19 19 20 19 19 19 19 20 20 21 21 22 24 26 26 26 26 26 26 26 26 26 28 28 26 25 24 23 22 20 11 13 12
7 7 8 11 16 16 15 16 17 18 17 17 16 18 18 19 18 18 20 22 22 23 24 24 25 26 26 27 28 26 26 28 27 24 26 28 26 26 25 23 22 10 11
7 6 7 14 16 15 15 15 16 17 15 15 15 15 17 18 19 20 22 22 22 23 24 25 26 27 28 29 29 25 29 27 22 27 29 28 28 28 25 23 22 21 14
7 7 7 13 15 14 13 14 15 14 15 14 14 17 19 19 19 20 21 22 22 23 25 26 28 29 30 31 30 27 25 26 26 27 28 30 29 26 24 24 23 23 21
7 7 10 15 13 13 13 14 13 14 14 13 15 16 18 20 21 21 21 22 24 25 26 28 29 30 29 29 27 26 26 24 27 27 27 26 25 26 23 24 28 25 20
7 6 7 9 12 11 12 12 13 13 12 11 14 16 19 20 21 21 23 23 25 26 28 29 29 29 29 28 26 25 27 27 28 23 24 30 27 27 27 28 28 27 21
7 6 6 8 11 10 11 11 11 11 11 13 15 16 18 18 19 20 22 23 25 26 29 30 30 31 31 29 25 29 29 28 23 26 27 28 27 29 30 30 29 25 23
7 7 7 6 10 10 9 8 8 9 11 12 13 15 17 18 20 22 24 25 27 28 29 31 32 32 29 24 30 31 30 29 29 28 28 26 30 31 29 32 32 30 27
7 7 7 9 10 9 7 5 5 7 9 10 13 16 19 20 21 24 26 28 29 30 31 32 32 32 28 29 29 30 31 29 29 30 31 31 30 29 34 33 35 35 34
6 8 7 9 11 8 5 4 4 5 6 10 13 16 18 21 23 26 26 28 29 31 32 32 32 32 31 28 30 30 30 29 30 30 31 32 29 32 30 34 36 35 35
6 7 10 12 10 7 4 3 2 5 10 12 14 16 19 22 24 26 26 28 30 30 32 30 30 30 29 28 30 30 30 30 29 29 30 29 30 30 36 38 35 31 35
7 12 14 12 9 6 3 2 5 8 9 12 14 17 19 21 24 26 27 28 29 30 30 26 28 28 30 28 28 32 30 28 30 30 29 28 33 34 40 38 36 38 34
13 15 12 11 7 4 2 4 6 8 10 14 16 17 19 21 25 24 25 27 29 28 28 29 25 26 29 28 30 32 29 28 30 28 27 29 34 38 38 42 35 28 34
13 12 10 8 5 2 4 4 6 9 12 15 16 18 21 23 23 24 24 28 30 27 27 27 28 26 25 27 30 32 32 29 29 27 32 31 35 35 43 42 30 34 41
10 9 8 6 3 2 2 3 7 11 13 16 18 21 23 23 24 23 26 28 27 25 25 27 27 24 25 26 29 32 32 33 31 32 34 34 31 39 41 34 36 38 35
7 6 6 5 3 1 4 7 10 13 16 18 21 24 24 24 21 23 27 25 22 22 24 23 24 26 26 26 28 31 31 33 34 33 35 30 34 38 32 33 36 35 29
7 5 5 4 1 2 5 8 12 15 18 20 22 24 23 23 24 24 25 22 23 21 22 22 24 27 27 25 28 29 31 30 31 31 25 29 33 32 32 32 31 30 29
8 5 4 1 3 6 10 11 13 15 17 20 23 22 24 24 27 24 23 24 23 22 25 25 26 26 26 27 35 35 35 35 34 39 28 27 27 28 30 30 30 31 31
7 5 2 2 7 10 12 14 15 15 17 20 20 22 20 24 24 24 25 20 21 24 26 27 27 28 29 32 35 35 36 34 39 35 24 20 25 26 28 28 31 31 32

GFSMW_925_spd_015.txt.gz
Wind_Speed
3 6 12 17 20 23 24 26 25 19 15 15 13 16 17 17 20 19 18 18 17 16 15 14 14 15 14 14 14 14 15 17 16 17 16 17 23 25 22 24 24 25 30
5 7 12 18 22 23 26 30 29 24 22 22 18 18 19 23 24 23 22 21 20 19 18 18 18 18 16 16 16 15 15 15 17 13 19 6 14 20 17 22 26 27 28
9 6 10 14 19 22 26 28 30 30 27 23 23 24 24 21 20 21 21 20 18 18 18 18 18 17 17 16 16 14 13 14 16 14 9 6 6 12 22 23 28 25 22
7 6 10 13 15 19 24 27 29 29 28 26 26 26 21 16 14 16 17 18 18 19 20 20 20 19 18 18 17 17 17 16 16 18 11 19 20 8 12 15 24 27 24
9 8 8 11 14 18 22 26 27 28 26 25 23 23 21 17 16 16 17 18 19 19 21 21 21 21 19 19 19 20 20 16 16 15 18 19 18 18 10 15 11 26 25
9 8 10 12 14 17 21 24 26 24 23 23 22 21 19 16 16 18 18 17 17 18 22 22 21 19 18 18 17 17 17 17 17 18 18 17 16 13 12 13 16 18 27
11 10 8 10 12 16 17 19 22 22 20 21 21 20 19 18 18 17 17 19 19 19 23 23 22 20 19 19 18 20 18 19 20 18 18 17 19 22 22 19 13 13 27
9 9 9 11 12 14 16 18 19 19 19 19 19 18 18 18 17 16 16 15 15 15 19 20 19 21 21 21 20 18 16 18 18 16 18 21 22 22 22 21 14 13 12
10 10 10 12 13 13 15 16 17 18 17 17 17 17 17 17 16 16 16 16 16 15 19 21 21 22 22 21 20 18 17 18 19 19 20 21 22 22 22 23 23 12 11
10 9 10 13 13 14 15 15 15 17 16 16 15 15 15 15 15 15 17 18 18 19 19 20 20 20 20 19 20 19 19 20 20 21 23 21 22 23 21 21 23 21 14
10 10 11 13 14 15 14 14 14 15 15 14 13 14 14 14 15 17 17 17 17 18 18 19 19 19 20 21 21 20 19 23 22 22 23 22 21 26 26 23 23 24 22
9 10 14 14 13 13 13 14 13 13 12 11 11 12 13 15 16 16 16 16 17 18 19 21 20 20 21 21 21 20 22 23 25 26 20 24 26 27 25 25 26 26 26
9 10 12 13 12 12 12 13 11 11 9 8 10 12 13 14 14 15 16 17 19 20 22 22 21 21 23 23 21 22 24 24 24 24 25 27 28 28 27 27 27 23 27
9 9 9 11 12 11 12 11 9 7 6 7 10 10 12 12 13 14 17 19 20 21 23 23 23 23 22 21 21 25 26 26 26 25 27 28 27 28 30 29 27 28 28
9 11 11 10 12 11 11 9 7 5 6 8 8 10 10 11 14 17 19 20 21 22 22 23 23 22 21 20 26 26 27 28 29 29 29 28 28 30 29 30 32 31 31
9 10 11 13 12 12 10 7 5 6 7 7 8 8 10 13 15 18 21 22 22 23 25 24 22 22 22 24 25 27 28 28 29 29 31 30 30 29 32 33 33 35 35
8 10 11 12 13 12 9 6 5 4 5 6 8 12 12 15 18 21 22 22 24 26 23 23 24 24 24 25 27 28 28 28 29 29 30 31 29 31 31 33 34 31 34
6 9 12 14 14 11 8 6 3 3 4 7 10 11 14 18 20 22 23 24 23 22 22 23 24 26 25 26 27 28 28 29 28 29 30 30 31 31 34 35 25 31 39
5 11 18 17 14 10 7 4 2 3 5 8 11 13 16 18 21 23 24 24 21 24 24 23 24 26 26 26 26 29 29 29 29 28 30 27 33 34 37 33 32 37 38
13 17 16 16 12 9 5 3 1 3 6 10 12 14 16 19 21 22 23 24 25 24 26 26 22 23 26 24 27 30 28 29 29 29 27 30 35 39 29 35 35 33 35
15 16 15 12 9 7 4 2 1 5 8 11 13 15 18 20 20 23 24 27 27 24 25 25 23 22 21 25 29 30 31 29 30 27 30 30 37 28 35 39 34 32 41
13 13 13 10 7 5 3 1 4 7 10 12 14 17 20 21 23 23 26 27 24 23 24 25 24 23 24 26 28 31 31 33 31 30 32 35 32 41 38 37 36 38 36
12 11 11 10 7 4 2 3 5 8 10 14 17 19 22 23 23 24 24 22 20 20 23 22 23 25 26 26 27 30 30 32 34 32 34 37 43 39 31 35 38 34 29
12 11 11 8 5 3 1 3 6 9 12 15 19 22 24 23 24 25 21 19 21 21 21 22 23 25 26 25 27 28 29 31 30 26 34 39 36 28 32 33 30 28 28
12 10 8 6 5 2 1 4 7 10 13 17 20 22 23 24 24 21 19 19 19 19 25 25 25 24 24 27 34 35 34 34 30 39 31 29 26 26 29 29 29 30 29
10 9 8 5 3 1 3 5 8 11 14 17 17 20 18 20 20 20 22 17 19 22 24 25 25 27 28 31 34 35 34 32 36 30 25 25 23 25 28 29 30 30 31

GFSMW_925_spd_018.txt.gz
Wind_Speed
7 8 10 10 12 15 16 16 16 14 13 14 14 14 14 15 15 16 16 15 14 14 13 11 11 12 11 12 13 14 16 17 18 22 22 22 27 18 24 20 18 26 29
9 10 12 13 15 16 18 19 18 18 15 14 14 15 16 16 15 14 15 15 15 15 13 13 12 12 12 12 13 14 16 16 17 19 22 9 19 18 21 32 30 26 30
14 11 12 13 14 16 16 19 20 19 17 17 16 16 15 14 12 12 12 14 13 14 13 13 12 12 12 13 14 14 15 17 18 16 12 8 9 13 25 26 29 24 26
13 12 12 14 14 15 16 18 19 19 18 16 16 15 14 13 11 11 10 10 12 13 14 13 12 12 12 12 14 15 15 16 17 18 17 20 23 13 14 16 27 27 25
14 13 12 14 13 13 15 17 18 19 18 16 15 14 14 12 10 8 8 9 10 11 14 13 13 13 12 13 14 15 15 14 15 16 18 19 20 23 13 15 11 29 28
14 13 15 14 14 13 14 16 17 17 16 16 16 16 14 11 9 9 9 9 9 11 13 13 13 12 13 13 14 14 14 14 15 16 17 17 16 14 14 14 16 19 27
14 13 13 14 14 13 13 14 15 16 14 15 14 13 11 10 10 9 10 11 12 12 14 15 14 14 14 14 14 15 14 14 15 16 18 18 20 22 23 22 14 15 28
14 14 14 15 14 13 13 13 13 14 12 12 12 11 10 9 9 9 9 9 10 11 12 13 13 13 13 14 15 15 15 15 16 18 19 19 21 21 22 23 16 15 15
15 14 14 15 14 13 12 12 13 12 10 10 10 10 9 9 9 8 8 8 9 10 11 12 14 15 16 16 17 17 18 18 18 20 20 22 23 22 23 23 24 14 15
15 13 13 15 13 13 12 11 11 11 10 9 8 8 8 8 7 7 8 8 9 10 12 14 15 16 17 17 18 18 18 19 21 21 23 23 24 24 24 26 27 26 20
15 13 13 15 14 13 12 11 10 10 9 7 6 7 7 6 6 7 8 9 10 11 12 14 16 17 18 18 19 20 19 21 23 23 24 26 24 26 26 27 27 27 27
15 13 15 16 15 13 12 11 10 9 7 6 5 6 5 5 6 6 8 10 11 12 13 14 16 17 18 19 20 20 22 23 24 25 25 26 25 28 28 27 28 28 29
15 13 13 15 15 14 12 10 9 8 6 5 5 4 5 6 7 8 9 10 12 13 13 14 16 18 20 20 20 21 24 25 26 26 27 27 28 29 28 28 29 28 28
14 13 13 14 15 14 12 11 9 6 5 4 4 4 5 7 8 8 9 10 11 13 15 16 17 19 20 20 19 24 26 27 27 27 27 28 28 28 31 31 31 29 31
14 14 14 12 16 14 12 10 8 6 4 3 2 3 5 7 9 9 10 12 13 14 15 17 18 19 20 19 23 25 27 28 29 28 28 28 28 30 30 30 31 31 33
13 13 13 15 16 15 13 10 7 5 3 2 2 5 7 8 9 11 12 13 14 15 16 18 19 21 21 22 24 26 27 28 29 29 30 30 30 29 32 33 36 35 36
12 13 13 14 15 14 12 10 7 5 3 2 3 5 7 9 11 12 13 14 16 17 19 20 21 23 23 23 25 26 27 28 27 29 30 31 30 31 32 36 37 37 33
9 10 13 15 15 13 11 9 6 4 2 2 4 6 7 10 12 14 15 17 17 19 20 21 23 24 24 23 25 26 27 28 28 28 29 31 33 32 35 37 36 30 32
6 11 15 16 15 13 10 7 5 2 0 3 5 6 8 11 14 15 17 18 19 20 22 22 23 24 25 23 23 26 29 29 30 29 29 32 33 35 39 39 30 36 35
11 15 16 16 14 11 8 6 3 1 3 4 6 8 10 12 15 16 18 19 20 22 22 23 22 22 24 22 23 26 28 30 30 31 32 31 34 39 38 38 40 32 32
14 15 15 13 11 9 7 5 2 1 2 5 7 9 11 14 15 17 18 20 22 23 23 24 22 20 20 23 25 26 28 28 30 30 31 31 36 38 44 45 37 31 41
14 13 13 11 9 7 5 4 1 2 4 6 8 11 13 14 15 17 18 20 21 22 24 24 22 20 21 24 26 27 29 31 32 33 33 35 37 44 42 37 32 39 37
12 10 10 10 7 5 3 3 1 2 5 8 11 13 14 15 16 17 19 20 20 21 22 22 24 25 25 26 26 29 31 34 35 33 37 37 41 38 34 29 37 32 28
10 9 9 8 7 6 3 2 1 4 7 10 12 14 15 16 16 17 17 19 20 20 21 23 25 26 27 27 28 30 31 33 32 32 30 38 33 31 31 32 29 28 28
9 9 9 8 7 5 3 1 3 6 8 11 13 14 15 17 18 18 18 18 18 18 23 25 26 26 26 28 34 35 36 34 35 38 32 28 27 28 28 28 28 29 30
11 10 8 7 7 4 1 2 5 6 9 12 12 14 16 18 19 20 21 17 18 21 23 24 24 27 29 32 35 36 35 36 36 30 25 25 25 25 27 28 30 30 31

GFSMW_925_spd_021.txt.gz
Wind_Speed
7 8 10 11 12 13 15 15 15 15 15 14 15 14 14 14 14 14 14 13 13 12 12 10 10 11 11 12 13 15 17 17 19 20 20 19 29 20 22 19 28 30 30
11 11 13 13 14 16 16 17 17 15 15 14 15 16 15 15 14 14 13 12 12 13 12 13 12 13 14 13 15 16 17 17 18 18 19 6 15 13 30 34 26 27 28
13 13 13 14 15 16 16 17 17 18 18 17 18 18 16 14 12 10 9 11 12 13 13 13 13 13 13 14 15 16 16 16 17 16 11 6 6 12 18 23 24 24 31
14 13 14 15 15 16 15 17 18 17 15 14 15 14 13 13 10 8 9 8 11 12 13 13 13 12 12 12 14 14 15 15 15 16 16 18 20 11 11 11 24 24 25
15 15 13 16 16 14 15 16 17 17 15 15 15 14 14 11 9 7 6 7 8 10 13 13 12 12 11 12 13 14 15 14 16 16 17 18 19 20 12 14 9 24 23
16 14 16 16 15 14 14 15 16 16 15 16 15 15 13 10 8 8 8 8 8 9 11 12 11 11 12 13 14 14 15 16 16 16 18 18 15 13 12 13 14 16 24
16 15 14 14 15 14 14 14 15 16 14 14 14 13 11 10 9 8 8 9 9 10 11 12 12 12 13 14 15 16 17 17 17 19 19 21 21 21 22 21 13 14 24
15 15 14 15 16 14 13 14 14 14 12 12 12 11 9 9 8 8 8 8 8 9 11 12 13 14 14 15 16 17 16 18 19 20 20 23 21 22 22 23 16 15 14
16 16 15 16 15 14 13 13 13 13 11 10 9 9 9 9 8 7 7 7 8 9 11 12 13 14 14 15 17 18 19 20 20 21 22 22 24 24 24 23 23 15 16
17 15 13 16 15 14 13 12 12 11 10 9 8 7 7 7 7 7 7 8 8 10 11 12 13 15 16 17 19 19 20 22 21 23 24 25 25 26 26 25 25 24 20
16 15 13 16 15 14 13 12 11 10 9 7 7 6 6 6 6 6 7 8 8 10 11 12 14 16 18 19 20 21 22 21 24 24 25 26 27 26 26 26 27 26 25
16 15 14 17 16 15 13 12 11 9 8 6 5 5 5 6 6 7 7 8 9 10 12 14 15 17 19 20 21 22 22 24 26 26 27 27 26 28 26 26 27 27 28
16 15 14 13 16 15 13 12 11 9 7 5 4 4 5 6 6 7 8 9 11 12 13 14 17 19 20 21 21 22 23 26 27 27 27 28 27 27 26 27 27 29 29
16 14 14 12 15 14 13 12 11 8 7 5 4 4 5 6 7 7 8 10 12 13 15 16 18 20 22 22 23 21 26 27 27 28 28 28 26 27 27 30 29 28 28
16 15 14 13 15 15 13 12 10 8 6 5 3 3 4 5 6 8 10 12 13 15 17 19 20 22 22 22 22 25 26 28 29 29 28 27 28 30 31 29 28 31 30
15 14 13 13 15 15 14 12 10 8 6 4 2 2 4 6 7 9 11 13 15 17 18 20 22 23 23 24 25 26 27 28 29 29 28 28 29 28 31 31 36 36 35
13 13 13 11 15 15 14 13 10 8 5 3 1 3 4 6 8 11 13 15 17 19 21 22 23 24 25 25 26 27 27 28 27 29 29 30 27 30 30 35 36 34 37
10 11 10 13 14 14 13 12 10 7 4 1 2 3 5 8 10 12 15 17 18 20 22 23 24 25 25 26 26 26 27 27 28 29 29 30 31 33 35 35 33 33 32
9 11 14 15 16 15 13 11 9 6 3 0 3 4 6 9 12 14 17 18 20 21 23 24 26 26 25 25 24 25 27 27 29 28 28 32 33 34 37 37 33 36 36
13 15 16 17 16 14 12 10 7 4 1 1 3 5 8 10 13 16 18 19 20 22 24 25 25 25 25 23 24 25 26 27 29 29 29 31 35 37 39 38 37 32 35
15 16 16 15 14 12 10 8 5 3 1 2 4 7 9 12 14 16 18 20 22 23 23 24 24 24 22 23 25 27 27 27 30 29 31 31 36 38 38 43 33 34 39
15 14 15 13 12 9 7 6 4 2 1 4 6 9 11 13 15 18 20 21 22 23 23 23 22 21 22 24 27 28 30 33 32 31 33 35 37 38 41 34 36 38 36
13 12 13 13 10 8 6 5 3 1 3 5 8 10 12 14 16 18 20 21 21 21 21 21 21 22 23 25 26 29 34 35 36 33 38 34 39 37 30 34 35 33 28
12 12 13 11 10 7 5 4 2 2 4 7 9 11 14 16 18 17 18 19 19 20 20 21 22 24 25 25 27 31 33 33 34 34 29 36 33 31 33 30 29 27 28
11 11 10 10 9 7 4 2 1 3 5 8 11 13 14 16 19 18 19 20 20 19 22 23 25 25 26 28 36 37 37 37 36 38 30 26 27 27 28 28 28 28 28
11 10 8 8 8 5 4 3 3 3 6 9 11 13 16 17 18 19 21 19 20 22 23 25 25 26 28 33 36 37 38 37 36 28 23 24 25 25 27 27 29 29 30

GFSMW_925_spd_024.txt.gz
Wind_Speed
10 9 11 10 11 14 17 18 19 19 20 20 22 22 22 20 20 18 15 14 14 13 12 11 11 12 12 14 14 16 18 20 21 18 21 23 15 19 19 33 30 31 31
9 7 13 14 15 15 16 18 19 21 22 23 23 24 22 19 18 17 15 12 13 13 13 13 12 13 13 13 15 16 17 15 19 13 15 4 13 8 34 24 25 28 22
13 8 9 16 16 17 18 19 21 22 23 25 24 24 22 18 15 13 13 12 12 14 14 14 13 13 12 13 14 15 16 17 19 17 8 4 3 14 9 27 22 26 35
13 9 9 14 16 17 19 20 21 20 20 19 21 19 19 17 14 13 11 10 11 12 14 13 12 11 10 12 14 14 15 16 18 19 11 18 20 5 8 7 29 25 28
15 12 9 17 17 17 19 20 22 21 20 20 20 20 19 15 13 11 10 9 8 9 13 11 11 11 12 13 14 15 15 15 15 17 18 22 21 22 7 13 9 26 24
14 11 19 20 18 18 19 20 22 21 21 21 20 19 17 14 12 11 9 9 8 8 13 12 11 11 12 13 14 15 18 17 19 18 20 20 12 14 13 12 14 17 25
14 13 10 12 17 17 18 19 21 21 20 20 18 17 15 13 12 10 9 8 8 10 13 12 12 12 13 14 15 17 20 18 21 20 24 23 24 24 21 21 14 13 27
12 12 9 15 19 19 17 19 20 20 19 18 16 14 14 12 11 10 8 9 9 10 11 12 13 14 15 16 18 20 20 21 22 24 24 25 28 26 25 23 17 16 15
14 12 11 18 20 19 19 19 19 19 18 17 15 14 12 11 10 8 8 8 9 9 11 12 14 15 17 18 19 21 22 22 25 25 24 27 27 28 27 27 24 16 17
14 11 10 18 21 20 20 19 18 18 16 15 13 12 11 10 8 7 8 8 9 10 12 13 15 16 18 19 20 21 23 25 25 24 28 30 27 27 28 27 24 22 20
14 13 9 20 22 21 19 19 18 17 15 14 12 11 10 8 7 7 7 9 9 10 12 14 16 18 20 21 23 24 24 25 25 27 28 29 30 28 25 27 25 25 24
12 12 11 18 22 20 19 19 17 16 15 13 11 10 9 6 6 7 7 8 9 11 13 15 17 20 22 23 25 26 26 24 25 27 29 29 28 30 28 25 26 24 25
12 11 11 11 18 21 20 19 18 16 13 12 11 9 6 5 5 5 7 8 11 13 15 17 19 22 24 25 25 27 22 27 27 27 29 30 31 30 27 27 26 30 29
14 11 11 9 18 21 20 19 18 15 13 12 9 7 4 3 5 6 8 10 12 15 17 19 21 24 24 25 26 23 29 27 25 28 30 31 31 29 30 31 31 26 26
12 12 11 9 16 20 20 20 18 15 12 10 8 5 3 3 5 7 9 12 14 16 19 21 23 24 25 23 25 29 27 27 26 29 30 30 30 32 34 32 30 30 31
12 11 11 10 15 21 21 21 18 15 11 10 7 3 2 4 5 8 11 13 16 19 21 23 23 24 25 24 27 27 28 26 27 30 29 31 31 30 33 34 39 38 35
10 11 9 10 18 23 24 21 18 14 11 9 5 3 2 4 7 9 12 15 18 20 22 23 24 25 27 26 27 28 28 26 27 28 30 32 29 32 35 36 37 32 32
11 10 9 17 24 24 22 21 17 13 10 7 4 1 2 5 8 11 14 17 19 21 23 24 25 27 28 26 27 28 26 27 27 28 30 30 32 34 37 38 33 29 31
8 12 22 25 26 24 24 21 16 12 9 6 3 1 4 6 10 13 16 20 21 23 24 25 27 28 29 26 27 27 27 26 28 28 27 29 35 35 39 38 34 32 31
18 20 25 26 24 22 20 18 14 10 7 4 0 2 5 8 11 15 19 20 21 23 25 27 27 27 28 28 26 27 28 27 28 28 26 30 34 39 40 38 36 29 31
20 25 23 20 22 20 18 16 11 9 5 2 1 3 6 10 13 17 18 20 22 24 26 27 27 26 25 26 27 29 29 27 30 28 30 30 36 40 39 41 30 33 40
16 20 20 20 18 16 16 13 11 6 3 0 3 5 9 13 15 16 20 20 23 24 26 25 24 22 24 25 28 29 30 33 31 31 32 36 39 40 37 34 37 36 36
15 20 19 20 16 13 12 13 9 5 2 1 4 9 12 14 14 18 20 22 22 22 21 20 21 24 24 26 26 29 31 33 34 33 37 36 36 33 32 32 35 33 30
14 20 20 17 14 11 10 10 6 4 2 5 8 11 12 14 18 20 20 22 23 24 19 20 21 23 25 26 28 28 31 31 32 33 28 30 31 31 30 30 30 28 28
14 19 18 16 14 11 9 7 5 3 5 7 8 10 13 17 20 20 21 22 23 21 24 23 24 23 24 27 34 35 35 36 36 38 26 28 27 27 28 28 29 29 29
15 14 15 18 15 11 9 6 4 4 5 6 9 12 15 19 20 22 25 20 20 22 23 24 25 27 27 31 33 34 37 36 35 28 25 25 25 25 27 28 29 29 29

GFSMW_925_spd_027.txt.gz
Wind_Speed
7 16 14 12 12 12 13 15 22 27 28 29 29 27 25 23 19 16 13 13 12 11 10 9 10 10 10 11 13 14 17 16 23 11 21 11 7 17 17 34 17 28 22
8 9 16 15 14 14 13 16 18 22 26 26 25 26 26 21 19 16 15 13 12 12 12 11 11 11 10 12 13 15 15 10 19 12 8 4 7 7 37 15 27 19 24
14 9 10 19 17 20 22 23 24 27 28 27 26 27 25 22 19 15 14 12 12 12 12 12 11 11 11 13 13 14 15 14 16 19 5 4 3 13 6 29 16 24 32
10 10 12 18 20 18 21 24 26 28 28 27 29 28 25 21 16 14 12 10 10 12 11 12 11 11 12 12 12 13 14 15 16 19 9 11 14 3 6 6 29 20 26
18 15 14 22 22 21 22 23 23 24 25 25 25 25 23 19 17 15 13 9 8 10 11 10 9 10 11 12 12 13 16 16 13 16 20 21 20 16 4 11 9 25 25
14 13 20 27 25 24 26 27 28 26 26 26 24 23 22 20 17 13 11 8 6 9 11 11 10 10 11 12 13 14 16 16 17 17 17 18 12 13 11 12 12 16 24
17 16 16 16 23 25 26 26 27 26 26 26 23 21 19 17 14 11 8 6 6 9 11 11 11 11 12 12 14 16 17 19 19 20 23 23 21 23 22 19 16 12 25
16 16 15 18 22 25 24 26 27 26 23 22 21 19 17 15 13 10 8 7 8 7 9 9 10 12 13 14 16 18 19 20 21 23 22 20 26 28 26 22 18 15 15
16 16 14 21 24 25 27 27 26 24 22 21 20 18 16 14 12 9 8 7 6 7 9 10 12 14 15 16 18 19 21 22 22 24 20 25 27 27 28 28 24 17 15
15 14 14 20 24 28 28 26 24 24 22 20 18 17 15 12 9 7 8 7 6 7 9 12 14 16 17 18 20 22 23 21 25 19 24 26 26 26 26 26 24 24 21
16 15 14 21 26 29 29 26 24 24 21 19 17 16 13 10 7 7 6 7 7 9 11 13 15 17 19 22 22 22 21 24 18 24 24 25 26 26 26 27 25 25 21
15 14 14 21 23 26 28 28 24 22 20 18 16 14 11 8 6 5 6 6 8 10 12 14 17 19 22 23 23 24 26 19 25 26 25 26 26 27 27 26 27 24 28
15 15 14 13 20 23 27 26 24 22 20 17 15 12 9 6 5 4 5 7 9 12 14 16 19 21 24 24 25 24 21 26 25 21 24 27 27 27 28 28 28 28 28
18 15 14 13 20 24 27 27 25 21 19 17 13 10 7 5 4 4 6 8 11 14 16 19 20 22 24 25 23 25 28 26 23 24 27 28 27 28 29 30 28 26 28
16 16 15 13 18 22 26 28 25 22 19 15 12 8 5 3 3 5 7 10 12 15 17 19 21 23 25 22 27 27 26 25 25 27 27 26 25 29 30 30 32 34 31
14 14 15 14 17 22 25 28 25 20 17 14 10 7 4 3 4 6 9 12 14 17 19 21 23 25 25 25 26 26 28 27 28 27 27 27 27 28 31 34 36 35 35
16 17 16 15 20 24 30 29 25 20 16 13 9 5 3 2 4 7 10 13 16 18 20 23 24 25 27 25 27 27 29 29 29 28 28 28 27 29 30 36 36 35 35
16 15 12 18 22 29 30 29 23 20 15 11 8 4 2 3 6 9 11 14 17 19 22 24 25 26 28 25 26 28 27 25 25 27 27 28 29 29 36 38 35 32 26
11 12 20 26 28 31 31 27 22 17 13 10 6 3 2 4 7 10 14 16 19 21 23 25 26 27 26 26 26 26 27 26 26 26 25 29 31 34 39 38 31 28 24
19 22 25 28 31 30 29 26 20 16 12 8 4 2 2 5 9 12 15 17 20 22 24 25 24 23 25 24 25 25 25 25 27 27 26 28 33 38 38 37 31 25 32
23 26 25 24 28 28 25 22 17 14 10 6 3 1 3 7 10 13 16 20 21 23 24 24 26 24 21 24 25 26 26 25 26 26 29 30 37 35 38 36 31 32 36
18 23 23 22 25 23 22 19 16 11 7 5 2 2 5 8 10 14 18 20 21 22 26 28 24 21 22 22 25 27 28 28 28 27 30 34 32 37 36 33 31 34 33
18 20 23 24 21 19 18 18 13 10 7 4 2 3 6 9 12 17 19 20 22 25 25 21 20 20 23 25 25 27 27 30 31 29 33 30 34 32 29 30 31 31 28
16 21 23 20 18 15 15 14 12 8 6 3 2 5 8 12 16 17 18 19 23 25 19 19 20 22 23 23 26 27 29 29 27 28 24 29 29 27 28 29 28 27 26
18 21 19 19 18 17 15 12 9 7 5 2 4 8 11 13 16 17 18 19 19 19 22 22 22 23 24 26 32 33 33 33 32 34 26 26 26 26 26 27 27 28 28
20 19 19 19 17 15 13 10 7 5 3 4 8 10 12 15 16 20 24 21 17 19 19 20 22 25 25 29 31 32 32 33 32 25 23 23 24 24 26 26 28 28 29

GFSMW_925_spd_030.txt.gz
Wind_Speed
5 11 12 12 13 13 12 13 19 26 32 34 33 30 28 25 22 18 14 13 11 9 8 8 8 9 11 11 12 12 14 10 21 10 20 10 5 12 13 18 17 23 18
7 7 12 14 15 15 16 20 27 28 30 33 27 28 28 22 22 20 17 14 11 10 9 9 10 10 10 11 12 14 12 9 16 9 5 4 7 6 34 7 20 15 29
14 8 9 15 18 18 20 23 25 26 28 29 30 29 27 25 24 20 18 14 11 10 9 9 9 10 10 11 11 12 14 12 10 11 8 4 3 9 4 24 9 33 16
8 7 7 11 21 22 23 25 28 29 29 29 29 30 27 26 21 19 16 13 10 9 9 9 9 9 10 10 11 11 14 13 12 10 10 6 10 3 5 6 27 13 28
17 15 12 18 23 26 28 29 32 30 27 26 27 28 26 24 21 18 15 11 9 9 9 9 8 8 9 9 10 12 14 12 13 13 13 10 14 11 5 10 10 25 24
13 10 14 21 24 26 30 30 30 28 27 28 27 27 27 25 23 17 13 9 6 7 8 8 8 8 9 10 11 12 12 13 13 14 15 15 6 8 7 8 11 13 22
18 16 15 14 20 26 31 31 32 29 29 28 27 25 24 22 19 15 11 8 5 6 7 7 7 9 9 10 12 13 14 15 16 16 18 15 14 19 18 18 15 9 25
19 18 16 18 21 25 30 32 33 31 30 28 26 23 21 19 16 12 9 7 5 5 5 5 7 8 10 11 13 15 17 17 17 17 17 14 20 22 22 19 17 14 11
19 18 14 20 22 26 30 34 34 31 29 28 26 22 19 17 15 11 8 6 5 3 4 6 8 10 12 14 16 17 18 18 19 19 15 21 25 24 24 23 21 14 13
16 15 13 18 20 27 31 32 31 30 28 26 24 21 18 15 12 9 7 5 3 4 6 8 10 13 15 17 18 18 19 18 20 15 22 23 25 25 23 23 23 21 19
17 15 13 18 23 29 31 30 29 29 26 24 23 20 17 13 10 7 5 4 3 5 7 10 13 15 17 19 19 20 21 20 16 23 19 21 24 23 24 24 23 23 22
15 14 14 20 22 24 29 30 29 28 25 23 21 18 15 11 8 6 4 3 4 6 9 12 15 17 19 21 21 21 19 20 25 24 20 22 23 26 24 24 25 26 28
15 14 13 13 19 22 26 29 29 27 25 23 20 17 13 9 6 4 3 4 6 8 10 13 16 18 20 22 20 19 24 24 23 22 21 24 26 26 26 28 26 26 26
17 14 13 12 19 21 26 29 28 26 24 21 18 15 10 7 5 3 3 5 7 10 13 15 17 18 20 21 20 24 24 25 24 23 24 25 26 28 28 27 28 25 30
15 16 14 12 17 20 25 28 28 26 23 20 16 12 9 6 4 2 4 6 9 11 14 15 18 20 21 19 23 24 25 26 28 28 27 25 26 29 30 30 31 33 30
16 15 14 14 17 22 24 28 28 26 22 18 14 11 7 4 3 3 6 8 11 14 15 17 19 21 22 21 21 23 26 27 26 26 27 29 25 26 31 34 34 35 35
18 17 17 15 20 24 31 30 29 25 21 17 13 9 6 4 2 5 7 10 13 15 16 18 20 21 22 20 22 24 25 25 27 28 28 28 23 29 30 33 36 36 37
15 14 12 17 22 27 29 31 28 24 20 16 12 8 5 3 3 6 9 12 14 16 17 19 19 20 21 21 23 24 24 28 27 27 26 25 29 29 35 37 35 24 31
11 13 21 24 27 30 33 31 26 23 19 15 10 6 3 2 4 8 11 12 15 16 18 19 20 21 22 21 23 24 26 24 26 25 24 26 29 34 37 36 31 28 28
18 22 24 27 29 29 33 30 25 21 17 13 9 5 3 2 6 8 11 13 15 16 18 20 21 21 22 22 22 23 24 24 27 26 23 23 32 36 34 37 30 27 32
22 26 25 25 28 33 31 27 23 18 14 11 8 5 2 4 6 8 12 14 15 17 20 21 22 21 21 23 21 22 25 25 26 25 26 28 31 34 37 34 27 30 35
20 23 25 23 29 29 28 24 20 16 13 10 7 4 2 4 6 10 12 14 16 19 21 22 20 19 22 22 21 23 25 27 27 25 28 28 33 35 32 28 29 32 31
19 22 26 26 24 23 24 23 18 15 11 9 6 3 2 4 8 10 12 16 19 19 21 17 18 19 21 22 23 23 26 27 28 27 31 31 31 30 27 27 29 29 26
18 23 24 21 20 20 19 19 16 12 10 8 4 2 4 6 8 9 13 15 17 18 16 16 18 19 20 22 24 24 27 24 25 27 24 27 26 25 26 26 26 26 26
18 22 21 21 21 20 19 15 13 11 9 6 3 3 4 8 10 12 15 14 15 16 19 20 20 20 21 22 28 29 30 30 31 32 23 24 24 25 25 26 26 27 26
21 21 22 24 21 19 17 13 10 8 6 4 1 3 7 9 11 15 18 17 13 15 16 17 19 22 22 26 28 28 29 31 28 23 21 22 22 22 24 25 27 27 28

GFSMW_925_spd_033.txt.gz
Wind_Speed
6 10 13 12 13 13 16 17 20 24 30 34 35 33 30 28 24 20 17 15 12 11 8 8 7 8 10 11 12 11 13 12 21 11 21 9 5 9 7 25 14 17 17
6 7 13 14 16 17 16 19 22 27 30 34 33 34 33 26 25 22 18 16 13 11 9 8 9 10 9 10 12 14 12 11 17 10 4 4 7 4 13 20 19 19 23
10 8 9 17 17 18 18 22 26 28 30 34 33 33 28 28 26 22 20 16 12 10 8 8 8 9 9 10 11 13 14 11 10 8 7 3 3 7 5 12 12 17 16
9 8 7 11 21 20 20 24 28 30 32 34 37 36 29 25 23 22 19 16 12 10 8 8 8 8 8 9 10 10 12 10 9 7 7 5 9 3 5 4 23 12 28
14 13 13 17 24 24 26 27 29 31 31 33 33 31 30 29 26 23 19 14 11 9 8 7 7 7 8 8 8 10 11 11 9 9 8 8 13 10 4 9 10 26 26
13 10 12 19 22 24 28 30 31 30 28 28 27 30 33 32 28 21 17 13 10 8 7 7 7 7 7 8 9 10 10 10 11 11 10 10 4 6 6 6 12 15 23
14 15 16 13 20 26 30 32 31 27 26 26 28 29 30 28 24 20 15 12 9 7 6 6 6 7 7 8 10 11 12 12 12 11 13 10 10 15 17 16 16 10 25
14 18 18 16 21 26 30 31 32 30 29 29 28 27 25 23 20 16 14 10 8 6 5 5 5 6 8 9 11 12 13 13 13 14 12 12 16 17 19 17 17 13 8
15 18 16 19 22 25 28 33 33 31 30 30 29 26 24 21 19 16 12 10 8 6 4 4 5 7 9 11 13 14 15 16 15 15 13 18 17 19 21 21 19 12 10
14 14 14 18 21 27 31 32 34 33 32 30 28 26 23 19 16 13 11 8 6 4 4 5 7 9 11 13 14 15 16 15 16 16 20 19 19 20 21 22 21 19 19
16 15 13 18 22 28 30 31 33 33 31 29 27 25 21 18 14 11 9 7 5 4 5 7 9 11 13 15 16 16 15 17 20 20 21 20 20 22 23 25 23 21 20
14 14 14 19 22 24 28 30 32 32 30 28 26 23 19 15 12 10 8 6 5 5 6 8 11 13 14 16 17 15 18 20 21 22 22 22 23 24 26 25 23 24 26
14 14 13 12 17 21 26 30 31 30 29 27 24 21 17 13 11 9 6 5 5 5 7 10 12 14 15 17 16 17 19 20 21 22 24 25 25 26 26 28 26 25 24
16 14 12 11 16 20 25 29 30 29 28 25 22 19 15 12 9 7 6 4 5 7 9 10 11 13 15 16 17 18 20 21 23 22 21 22 23 25 27 26 25 24 29
14 15 14 12 15 19 24 28 30 29 27 24 20 17 14 11 8 6 5 5 6 8 8 10 13 15 16 17 18 20 22 22 20 22 25 24 22 24 25 29 31 31 28
14 14 14 13 15 21 23 27 30 28 25 22 19 16 13 10 7 5 4 5 6 8 9 12 14 16 17 18 18 20 22 21 24 26 27 27 23 24 28 30 32 32 34
15 15 15 15 20 23 29 29 32 28 24 21 18 15 12 9 6 4 3 5 7 10 12 13 15 17 18 17 18 20 21 22 25 26 29 29 24 28 31 32 34 34 24
14 13 12 16 21 26 28 32 30 27 23 20 17 13 10 8 5 3 4 6 9 11 13 15 16 18 19 18 19 21 22 25 26 27 27 27 29 29 33 35 25 31 29
12 13 21 24 27 30 33 33 29 26 23 19 16 12 9 7 4 3 6 8 10 12 14 16 18 18 19 18 20 22 25 25 26 25 23 24 25 31 35 32 30 29 29
18 21 25 27 28 28 34 32 28 25 21 17 14 10 8 5 3 4 6 8 11 13 15 17 17 17 18 20 20 21 24 23 25 22 22 21 30 34 33 34 30 25 32
21 26 24 24 26 32 33 28 26 22 19 15 12 10 6 4 3 5 8 10 12 15 16 17 18 16 20 21 20 21 24 25 25 25 24 27 31 33 35 33 26 28 34
18 22 24 22 27 32 32 27 23 20 17 14 11 8 5 3 4 7 8 11 13 15 17 19 20 20 22 21 20 21 23 26 28 25 27 29 34 35 32 28 27 30 30
19 21 26 25 28 28 28 27 21 19 16 13 10 7 4 3 6 7 11 14 14 15 18 17 17 21 20 21 21 22 24 27 26 25 31 32 31 29 26 25 27 27 24
18 24 26 22 22 22 23 24 20 16 14 12 8 5 3 3 6 7 10 12 14 16 18 16 17 20 21 21 24 23 26 22 23 26 25 26 26 24 25 25 25 24 24
19 22 22 21 23 22 22 19 17 14 13 10 6 3 3 6 7 9 10 12 13 13 17 19 20 21 18 20 25 27 27 28 29 30 23 22 22 23 24 25 25 25 25
20 21 23 26 24 23 20 16 13 11 10 8 4 3 5 7 8 11 14 13 11 14 14 16 18 21 20 23 26 26 27 30 27 22 20 20 21 22 23 25 27 26 27

GFSMW_925_spd_036.txt.gz
Wind_Speed
11 15 17 15 14 15 13 12 17 24 30 32 32 29 31 29 27 24 21 17 15 14 11 10 8 6 8 11 11 10 12 15 21 12 17 7 5 4 8 11 18 10 15
7 8 11 14 17 18 17 16 19 26 31 32 30 32 35 29 28 24 21 18 16 14 12 10 9 8 9 10 12 14 11 11 19 11 4 4 6 6 20 19 10 16 18
12 8 8 19 17 19 21 22 23 26 30 32 33 34 30 29 27 25 23 20 16 14 11 10 9 9 10 11 12 13 14 12 13 11 8 3 2 6 6 13 16 11 26
9 8 9 11 21 21 19 22 25 27 29 33 38 43 33 27 21 27 24 21 15 14 11 10 9 10 10 10 11 11 12 11 11 5 8 3 7 3 5 4 19 9 29
16 13 12 20 25 22 22 23 25 27 29 33 39 36 29 22 32 29 24 21 17 13 11 10 10 10 9 9 9 10 11 10 7 6 5 5 10 7 4 7 9 26 25
13 12 12 19 23 22 24 26 28 28 31 33 34 34 34 37 33 28 24 20 16 13 11 10 9 9 8 8 9 9 9 8 8 7 6 6 2 4 4 4 12 15 19
9 10 12 12 20 26 29 30 31 30 30 31 30 31 34 34 32 27 23 19 16 13 11 9 8 8 8 7 7 8 8 8 8 8 9 6 6 10 13 12 14 10 23
7 11 14 13 22 26 30 29 32 31 29 28 28 29 30 30 26 22 19 16 14 12 10 8 7 7 6 6 8 8 9 9 10 9 10 8 13 13 13 14 15 12 6
9 11 11 17 22 25 27 32 33 31 29 29 30 31 29 27 25 21 18 16 13 11 9 6 6 5 5 7 9 10 10 11 10 12 11 14 16 14 15 16 17 11 9
8 9 11 12 18 22 29 32 34 34 32 32 32 31 28 25 23 20 18 14 13 10 7 6 5 5 6 7 9 10 10 10 13 15 14 17 18 17 19 20 20 21 19
14 12 11 16 21 25 28 31 34 37 35 33 32 30 27 24 21 19 16 13 11 8 6 5 4 5 7 9 11 11 11 15 16 16 17 19 20 21 22 22 25 25 23
11 12 13 17 22 24 26 30 33 37 35 33 31 29 26 22 20 17 14 11 9 7 5 4 5 7 9 11 12 13 14 16 18 19 19 21 21 21 22 24 26 26 27
11 12 14 13 16 21 24 28 32 36 35 33 31 27 24 21 18 16 13 10 7 6 4 5 7 9 11 13 13 14 15 17 18 18 18 21 23 25 24 24 25 26 23
10 11 12 12 17 20 23 27 31 35 34 31 29 26 22 19 16 14 11 8 6 4 4 6 8 11 13 14 14 15 17 17 18 18 22 23 22 22 25 23 23 22 27
11 11 12 12 16 20 23 27 33 34 32 30 26 23 20 18 15 12 10 7 5 5 5 7 9 12 14 15 15 16 17 19 19 22 23 23 21 21 23 26 27 28 27
12 12 12 13 12 21 23 27 31 32 30 28 25 22 20 16 13 11 8 5 5 5 6 9 12 14 14 16 15 17 19 20 21 24 25 26 23 23 25 27 29 30 33
15 14 14 14 19 22 28 28 32 31 28 26 23 20 18 15 12 9 6 4 5 7 9 10 12 15 16 15 16 17 19 21 23 24 27 27 25 26 29 31 30 32 25
13 13 12 16 20 26 28 33 32 29 26 24 22 18 16 13 10 7 5 4 6 8 10 12 14 16 17 15 17 19 20 22 23 26 26 25 28 28 30 33 26 30 27
12 12 21 24 27 30 33 34 30 28 25 23 20 17 14 12 9 6 5 6 7 8 12 14 16 17 18 18 19 21 22 24 26 26 22 23 26 30 33 31 28 28 27
17 20 24 26 28 28 34 32 29 27 24 21 18 15 12 10 7 5 4 5 7 10 13 15 15 16 17 19 19 20 22 22 24 21 23 21 27 32 31 32 28 24 31
21 24 23 23 26 33 33 28 28 25 23 20 18 14 11 9 6 4 4 7 9 12 13 16 18 18 19 20 19 20 22 24 24 24 23 24 29 32 33 31 26 26 31
17 21 23 22 26 32 33 27 25 23 22 19 17 13 10 7 4 4 6 8 11 13 16 18 21 20 21 21 19 20 22 25 27 25 24 28 32 32 30 26 25 28 27
17 20 24 24 25 28 32 28 25 24 21 18 15 11 8 5 5 5 8 11 12 14 16 18 18 22 21 23 22 21 23 26 27 25 29 30 30 28 25 23 25 24 23
15 22 25 22 21 25 26 29 26 22 19 17 13 10 6 4 4 6 9 12 14 15 17 17 17 22 23 20 24 23 26 24 22 26 24 26 26 22 23 23 23 23 22
19 21 23 22 24 28 28 24 22 19 18 15 11 7 4 4 6 8 10 12 13 12 18 19 20 20 18 20 24 25 26 26 28 29 24 23 21 22 22 23 24 24 24
21 23 24 28 28 29 25 21 17 15 15 13 8 5 4 5 8 11 13 11 11 14 14 15 16 19 19 22 24 24 25 27 25 22 19 20 20 21 22 24 26 26 26

GFSMW_925_spd_039.txt.gz
Wind_Speed
15 20 23 21 18 18 17 17 18 23 27 31 31 24 25 25 25 27 27 24 21 18 15 15 12 9 7 8 7 6 9 13 17 9 8 4 4 3 6 9 10 6 10
14 14 19 22 19 20 20 18 20 25 28 30 25 23 30 26 29 28 26 22 19 18 16 13 11 9 8 8 9 9 6 9 15 7 1 4 2 4 6 11 5 13 11
19 17 13 19 23 21 25 23 22 26 29 32 32 29 28 28 25 25 25 21 20 18 15 13 11 10 8 9 9 10 9 6 9 12 5 2 2 7 6 7 9 8 17
19 19 15 15 22 28 25 23 23 28 29 33 35 42 30 25 19 30 27 23 20 18 14 12 11 10 9 8 9 9 9 7 6 4 6 1 2 3 5 4 10 7 21
19 21 18 23 26 27 27 25 26 27 30 33 35 31 27 22 32 31 29 24 20 17 15 12 11 10 9 8 7 7 7 7 5 3 3 2 4 3 5 8 10 22 19
17 18 17 20 18 26 26 26 28 27 29 32 35 35 39 36 36 32 29 26 21 18 15 13 11 10 8 7 6 6 6 6 5 4 3 2 3 5 6 6 15 18 17
9 10 11 12 17 23 27 28 29 27 30 31 31 32 34 38 39 34 32 27 23 19 15 12 10 9 7 6 5 5 6 6 6 5 5 5 4 7 11 15 17 12 25
7 11 14 12 21 24 27 27 28 27 28 30 30 32 34 36 35 32 29 24 22 18 15 12 9 7 5 4 5 6 6 6 7 6 8 7 8 10 11 14 18 14 11
10 11 11 15 21 24 29 33 33 30 30 31 33 33 33 34 34 30 26 23 20 18 13 10 8 6 4 4 6 6 7 7 7 9 9 10 11 14 13 14 15 16 12
9 9 13 14 19 22 23 27 32 32 32 32 33 36 37 34 31 28 25 22 18 15 12 9 7 4 3 5 6 7 7 7 9 9 11 11 13 14 14 15 17 18 22
10 11 9 15 19 20 24 27 33 35 34 35 38 39 36 32 29 26 23 19 17 13 10 7 5 4 4 5 7 7 7 9 10 11 11 13 14 14 15 16 17 19 21
5 9 12 17 21 21 23 26 29 32 36 39 40 37 34 31 27 24 20 17 16 12 9 6 4 4 5 6 7 8 8 10 12 13 14 14 15 17 17 17 18 20 23
8 11 12 14 17 22 23 26 29 33 38 39 39 35 32 29 25 22 19 16 13 11 7 5 3 4 6 6 7 8 10 12 13 14 14 16 16 17 18 18 20 22 23
8 11 12 13 18 23 24 26 29 36 39 38 36 33 29 27 24 21 17 14 11 9 6 4 3 5 7 8 9 10 12 13 15 16 17 17 16 18 19 21 22 22 26
9 11 13 14 17 22 24 27 30 36 38 37 34 30 27 25 22 19 16 13 9 7 4 3 5 7 8 9 11 12 14 15 15 17 19 17 18 20 22 23 24 26 26
11 12 14 15 16 23 25 27 29 33 37 35 32 29 26 23 20 17 14 11 7 5 3 4 7 9 11 12 11 12 13 15 14 18 18 20 21 19 21 24 26 26 29
13 14 14 14 18 23 28 28 30 35 34 33 30 27 24 22 18 15 12 8 5 4 4 6 9 11 12 12 12 14 14 15 17 19 21 20 19 22 23 25 27 31 22
14 14 13 17 21 25 26 32 33 33 33 31 28 25 22 20 16 13 9 6 4 4 6 8 11 13 14 12 14 15 14 16 18 20 21 20 21 21 26 30 28 24 26
13 13 19 23 25 27 31 32 29 30 30 28 26 23 20 18 14 11 8 5 4 5 8 10 11 14 14 14 15 16 16 17 19 20 18 19 23 26 30 29 27 29 29
18 21 24 25 26 25 32 30 26 26 24 26 24 21 17 15 12 9 6 4 4 7 9 11 12 13 13 16 15 16 17 18 21 19 19 20 24 28 28 30 27 25 30
21 22 23 23 25 29 32 26 24 21 27 25 23 19 15 13 10 7 4 4 6 8 11 13 14 14 15 17 16 17 18 19 21 22 23 23 27 28 31 29 26 24 29
17 21 23 22 23 28 31 23 23 28 27 25 22 18 14 11 8 5 4 4 7 10 11 14 16 16 19 19 17 17 18 21 23 23 23 26 29 31 29 25 23 25 25
15 19 24 24 21 25 29 28 28 29 26 23 19 16 12 8 5 4 4 7 9 10 11 11 13 17 17 21 19 18 20 23 23 21 26 28 27 28 23 21 24 22 19
15 22 25 22 21 23 27 32 30 27 24 21 17 13 9 6 4 5 6 7 9 10 10 13 15 17 18 17 17 18 22 22 19 24 22 24 24 19 21 21 19 19 20
18 21 23 22 22 29 31 29 27 24 22 19 15 11 7 5 4 5 6 9 10 10 13 13 15 17 18 18 22 24 24 23 25 27 21 20 19 20 20 21 21 22 22
21 23 24 27 26 32 29 25 22 19 20 17 12 8 6 4 5 7 9 9 9 11 11 13 15 18 18 20 22 22 23 25 23 20 18 18 19 20 21 22 24 24 24

GFSMW_925_spd_042.txt.gz
Wind_Speed
19 22 21 19 18 19 18 18 16 15 17 21 23 24 23 18 17 19 21 20 22 22 18 14 12 9 7 6 4 4 6 7 10 7 5 2 1 4 6 4 5 3 6
23 23 26 26 22 20 20 18 17 18 20 20 21 22 20 13 21 21 22 19 23 21 18 14 12 10 8 7 7 5 3 5 9 6 4 3 3 0 5 10 4 7 6
24 23 23 28 26 22 21 20 19 19 21 20 20 18 16 18 19 19 23 21 21 20 18 15 12 11 8 8 7 6 5 4 5 6 4 2 2 9 3 4 8 5 12
21 22 23 25 29 25 21 20 20 21 22 25 23 25 22 23 16 21 24 24 20 18 16 14 12 10 9 9 7 6 5 3 2 0 4 2 3 3 5 3 10 10 16
16 18 21 27 28 25 22 20 20 22 23 25 23 24 20 19 23 20 25 25 22 18 16 13 12 11 9 8 7 6 4 2 1 3 3 3 5 5 5 9 9 20 18
12 16 20 22 25 24 21 22 23 23 23 24 23 25 26 28 28 25 30 28 22 19 13 13 11 10 9 8 6 5 3 1 1 1 2 4 4 6 7 8 14 18 21
14 13 14 16 21 23 23 24 26 25 24 24 26 25 26 27 30 32 33 28 20 16 14 13 11 9 8 7 5 3 1 1 1 2 4 5 7 8 12 15 17 14 23
15 16 15 15 21 25 26 26 27 25 25 25 25 24 26 28 29 29 30 24 19 15 14 12 11 10 7 6 4 1 0 1 2 3 5 7 8 9 12 15 17 14 13
15 15 15 13 20 23 27 28 28 25 26 26 26 26 26 31 30 33 28 21 17 16 14 12 10 8 6 5 2 1 2 2 3 5 6 7 9 10 13 15 16 18 14
16 12 13 13 18 23 25 24 25 26 27 27 27 27 28 34 34 31 24 18 17 16 14 11 9 7 5 3 1 1 2 3 5 6 8 9 10 13 14 15 17 19 22
15 9 9 12 17 21 25 25 26 27 27 26 27 30 35 36 32 23 20 18 17 15 13 10 8 5 3 1 0 2 3 5 7 8 9 11 12 14 15 17 18 20 22
11 7 4 10 17 21 25 28 27 26 26 27 30 35 36 31 25 22 20 18 17 14 12 9 6 4 2 0 2 3 5 7 9 10 11 12 13 16 16 17 19 21 23
7 3 4 9 13 21 25 27 27 27 28 31 36 33 29 26 24 21 19 17 15 13 10 8 5 3 1 1 3 5 7 9 10 11 13 14 15 17 17 19 21 23 25
3 1 7 10 15 21 24 27 27 29 31 33 32 30 26 24 23 21 18 16 13 12 9 6 4 2 1 3 4 7 9 11 12 13 14 16 16 17 19 21 23 25 26
2 6 8 11 14 21 24 26 28 29 31 32 29 27 25 23 21 19 17 14 12 10 7 5 2 1 3 3 7 9 11 13 14 15 16 17 17 20 21 22 24 26 27
7 8 11 13 14 21 25 28 29 29 31 29 28 26 24 22 20 18 15 13 10 8 6 3 1 3 3 7 7 9 12 14 15 17 18 18 19 19 20 23 24 26 28
11 12 13 13 16 22 28 28 29 30 28 27 25 24 23 21 18 16 13 11 9 6 4 2 2 4 5 8 8 11 13 15 16 17 19 20 19 20 22 23 26 27 28
12 13 11 15 21 25 26 31 28 28 26 25 24 22 21 19 16 14 11 9 7 5 3 1 3 5 6 9 10 13 14 15 16 18 20 20 21 22 23 29 27 25 28
13 14 19 22 25 26 28 29 27 25 24 23 22 20 19 17 14 12 10 7 5 3 1 2 4 6 7 10 11 13 15 15 17 18 20 20 22 22 26 28 27 30 30
18 20 22 24 26 25 27 28 26 24 22 21 21 18 16 15 13 11 8 5 4 2 2 4 5 7 8 10 12 13 15 17 18 20 21 21 21 25 27 29 30 29 29
20 22 23 23 25 26 26 25 24 22 21 22 22 19 15 15 12 9 6 4 2 3 4 5 7 7 8 10 12 14 15 17 21 22 23 22 24 27 30 29 29 26 29
19 22 22 21 21 23 26 24 22 24 28 25 22 19 15 12 9 8 5 4 3 3 5 8 9 8 10 11 13 14 14 18 21 23 24 25 28 30 30 27 22 25 26
16 19 24 24 20 18 24 26 23 29 27 25 20 15 12 10 8 6 4 1 3 4 6 9 11 13 13 14 14 16 18 20 22 21 25 28 27 27 23 20 23 20 18
16 21 24 24 21 21 26 30 29 28 26 19 16 13 10 8 6 4 2 2 4 5 7 10 12 14 15 15 16 20 22 21 20 23 25 25 23 21 21 20 18 18 19
19 20 22 22 22 25 27 28 28 22 18 16 13 11 8 6 4 2 2 3 4 4 9 10 13 15 16 16 19 22 23 23 24 27 23 20 19 19 19 19 19 20 21
20 21 22 24 23 25 24 22 17 16 17 15 11 8 6 4 3 3 3 5 3 6 6 9 10 14 15 17 20 20 22 23 23 21 17 17 18 19 20 21 22 22 23

GFSMW_925_spd_045.txt.gz
Wind_Speed
19 24 26 27 30 31 29 28 24 22 21 22 23 23 21 21 21 22 21 19 18 17 17 16 12 10 7 7 5 4 3 4 8 5 4 4 3 4 6 6 6 6 6
23 23 29 29 30 31 30 28 28 24 24 22 22 22 20 19 18 16 18 18 18 18 17 17 15 11 9 8 6 4 3 5 8 5 4 2 4 2 4 7 8 6 7
23 23 23 28 28 30 30 29 28 26 25 23 22 19 22 18 17 19 20 19 21 22 19 15 14 13 9 9 7 5 5 4 4 7 4 2 2 7 6 6 7 6 8
19 19 21 21 27 30 29 28 29 26 26 25 26 27 21 19 18 26 22 21 18 20 18 15 13 12 10 9 8 6 6 4 3 1 3 2 3 2 4 2 6 10 10
14 15 16 21 26 26 29 27 26 26 26 28 26 27 21 19 25 26 26 24 20 19 20 18 14 13 11 9 8 7 6 4 3 2 2 3 5 8 6 6 6 16 15
10 11 14 18 20 24 21 26 26 26 27 28 25 26 25 27 28 29 28 28 23 20 16 15 14 11 12 9 8 6 5 3 2 1 1 2 4 6 7 6 11 15 18
11 13 14 13 17 20 24 23 25 26 27 27 26 26 26 26 29 33 31 30 26 25 20 16 12 11 11 9 7 5 3 2 0 2 3 4 7 9 10 12 13 11 19
12 11 15 14 17 19 23 24 26 26 27 27 25 24 25 25 26 27 31 27 25 23 20 17 12 12 10 9 6 4 3 1 1 2 4 7 8 9 11 12 14 10 11
9 13 16 15 17 18 23 24 26 25 26 26 26 24 24 25 27 28 27 30 24 22 19 17 13 11 9 7 6 3 2 1 2 4 7 8 9 11 12 14 15 14 10
9 13 14 13 16 19 21 25 28 27 26 26 26 26 24 24 30 30 29 30 25 21 17 16 13 11 8 6 4 2 1 2 4 6 8 9 11 12 14 15 16 17 19
11 11 11 12 10 16 21 25 26 26 27 26 26 26 25 27 31 33 29 27 23 20 16 14 12 9 7 5 3 1 1 4 7 8 10 11 12 14 15 16 17 18 19
7 9 11 4 7 14 18 22 25 26 27 26 27 27 30 32 33 30 27 23 21 17 14 12 10 8 6 3 1 1 3 6 9 10 11 13 13 15 16 17 18 20 21
6 5 6 4 7 11 17 21 23 25 27 28 29 31 30 32 30 29 25 22 19 16 13 11 9 7 4 2 1 3 6 8 10 11 12 14 15 17 17 18 20 21 22
5 5 4 6 8 12 19 22 23 25 28 30 31 31 30 31 29 26 23 20 17 15 12 9 7 5 2 0 2 5 8 10 11 13 14 15 16 18 18 20 21 22 24
5 3 5 8 9 15 20 21 22 26 30 31 31 30 30 29 26 24 21 19 16 13 11 9 6 3 1 1 4 6 9 12 14 15 16 16 17 18 20 21 21 24 24
3 5 7 12 13 16 18 22 25 27 30 31 31 30 28 26 24 23 20 17 14 12 9 7 4 2 1 5 6 7 10 13 15 16 17 18 19 19 19 22 23 25 27
10 10 11 13 15 18 21 23 27 31 31 32 30 28 25 25 22 21 18 15 12 10 7 5 2 1 2 7 7 9 11 14 15 16 18 19 19 20 21 22 25 25 30
12 12 12 14 19 23 22 25 29 30 31 29 27 24 24 23 20 18 15 12 10 8 5 3 0 2 4 10 9 11 12 14 15 16 18 19 20 20 23 24 26 26 28
12 12 18 22 24 23 26 26 29 29 28 25 23 22 22 22 18 16 13 10 8 6 3 0 2 4 5 9 10 11 13 15 16 17 18 20 21 22 23 26 27 27 28
16 18 22 25 25 22 23 26 25 25 23 22 22 20 20 19 17 14 11 8 6 3 0 3 4 6 7 7 9 12 13 16 17 18 20 21 21 22 25 28 27 28 28
19 23 23 23 24 25 26 25 24 22 23 23 22 20 19 19 15 12 9 7 4 1 2 4 6 6 7 9 10 12 14 15 18 20 20 20 23 26 29 29 28 27 28
17 20 21 21 22 22 24 24 23 23 24 25 24 21 19 14 11 10 7 4 2 2 4 5 7 7 8 9 11 13 14 17 20 21 22 23 26 30 28 27 23 24 26
15 18 20 21 19 19 22 25 21 26 28 26 23 18 15 12 9 7 5 2 2 4 5 7 8 10 11 12 12 14 17 19 22 22 24 28 29 26 23 21 23 20 18
17 20 21 20 20 20 23 28 27 26 26 22 17 14 12 9 7 5 3 1 2 4 5 8 10 12 13 13 13 17 20 21 22 23 25 26 24 20 20 19 19 18 19
17 17 18 19 20 24 24 25 26 24 21 17 15 12 9 7 5 3 1 1 2 3 6 7 10 12 14 15 18 20 22 23 23 28 23 21 17 18 18 18 19 20 21
18 20 21 23 22 23 24 23 19 18 18 15 12 9 7 4 3 1 2 4 5 8 8 7 8 12 13 15 18 20 21 23 24 20 17 16 17 17 18 20 22 23 23

GFSMW_925_spd_048.txt.gz
Wind_Speed
11 18 21 21 27 32 29 34 34 32 31 27 28 27 27 23 28 27 28 28 27 23 23 21 20 15 13 11 8 9 5 3 5 2 1 4 3 3 6 7 5 5 5
10 11 19 22 27 25 26 27 25 34 36 34 29 25 25 27 32 29 27 27 26 26 23 24 21 19 17 14 11 7 7 4 6 2 1 2 1 5 6 8 8 7 7
14 13 11 21 26 30 28 27 27 29 34 32 29 24 25 28 27 30 28 28 29 27 25 24 22 19 17 15 11 10 8 6 4 5 3 2 1 4 1 8 6 6 6
13 10 10 11 24 28 33 31 30 31 26 33 31 34 29 23 28 35 33 27 26 24 24 23 21 20 18 15 12 10 8 7 6 5 4 3 1 2 3 2 2 6 9
9 9 10 15 22 18 24 37 33 33 32 37 32 36 29 23 30 30 30 25 23 25 24 23 21 19 17 15 11 11 9 8 6 5 3 2 2 5 4 4 5 18 23
5 5 6 6 9 17 24 17 31 30 33 34 32 36 35 33 33 31 32 30 27 25 25 22 22 20 18 16 13 10 9 7 6 5 3 2 1 0 1 2 4 11 17
0 4 6 5 13 19 20 23 19 29 28 30 27 31 31 34 36 36 36 35 30 27 27 23 21 20 17 14 12 10 8 6 6 4 4 3 3 6 7 9 10 5 15
2 2 4 6 16 19 20 22 20 25 27 29 28 27 31 31 33 35 35 32 30 30 27 23 21 19 17 13 10 8 6 3 3 2 2 4 6 6 8 9 10 6 5
5 1 6 9 20 23 22 21 21 24 26 30 26 27 33 31 33 32 32 31 30 30 25 22 20 18 14 11 9 6 4 3 3 2 3 6 6 8 10 11 12 10 5
4 1 4 8 22 25 19 25 25 25 28 28 28 31 31 30 32 31 32 31 30 28 26 22 19 17 14 11 8 6 4 4 2 4 6 7 9 10 12 14 14 16 18
4 2 5 13 25 17 14 19 26 24 28 28 31 35 33 33 33 31 33 33 32 29 25 22 18 15 13 10 8 5 3 1 3 5 7 9 10 13 13 14 17 19 21
3 4 2 10 20 10 8 21 23 26 28 34 35 34 34 33 32 33 34 31 30 25 23 21 17 14 11 9 6 4 1 3 5 7 9 11 12 13 15 16 17 18 20
4 5 1 6 7 4 9 18 23 28 33 34 34 33 31 31 31 34 32 32 28 25 20 18 15 12 9 7 4 2 2 5 7 9 11 13 15 16 16 17 16 18 22
3 5 3 5 3 12 18 22 27 29 31 33 32 30 30 32 33 32 30 31 27 24 19 17 13 10 7 4 2 1 4 7 9 11 13 14 15 17 16 18 22 19 22
8 5 4 3 6 11 18 22 27 28 31 31 29 28 31 33 33 31 29 27 25 22 17 14 11 7 5 3 2 4 6 8 11 13 14 14 14 16 18 19 19 23 24
4 4 1 6 8 14 17 21 25 28 30 29 29 31 32 33 32 32 30 26 23 20 16 12 8 5 3 2 4 5 8 10 12 15 16 17 16 17 17 19 21 22 25
6 7 7 10 12 15 19 20 24 26 28 28 29 30 31 31 30 30 28 23 20 17 13 9 6 3 2 3 6 6 10 13 13 16 18 18 17 19 21 21 22 23 23
9 10 10 13 16 19 21 22 23 25 27 26 28 29 29 28 28 27 25 21 17 14 10 6 3 2 2 6 7 9 11 12 14 16 18 19 19 21 22 25 23 24 28
10 11 17 18 19 20 22 25 25 27 26 26 27 27 26 24 25 24 21 18 15 11 7 4 1 1 2 6 9 9 13 14 16 16 17 20 21 21 22 24 28 26 25
16 20 22 22 24 22 24 25 26 27 25 25 26 24 24 24 24 21 18 14 11 8 4 3 3 3 7 4 7 9 13 16 16 18 21 19 20 22 24 27 26 23 25
18 21 23 23 24 27 30 26 22 21 23 29 29 24 22 23 20 18 14 11 8 6 4 4 4 5 5 7 8 11 13 16 19 20 22 22 22 24 27 28 27 26 28
16 21 21 21 24 26 28 23 21 21 24 29 29 27 22 19 17 15 11 9 6 5 4 3 5 5 6 9 11 12 13 17 21 22 22 25 25 28 27 25 23 24 24
15 18 20 21 21 24 25 26 24 28 29 29 26 22 20 17 13 12 9 7 5 4 4 6 7 9 11 11 11 12 16 19 21 22 23 26 26 26 22 21 22 21 23
16 19 21 21 20 25 25 26 27 27 27 25 23 20 18 14 11 10 8 5 4 4 6 8 9 12 12 13 15 19 20 21 23 24 23 24 24 18 19 21 21 22 21
18 19 18 19 21 22 23 24 26 26 25 23 20 18 13 11 10 7 5 4 4 6 7 7 9 11 14 16 17 20 21 23 22 26 24 23 20 21 19 19 20 22 22
21 20 19 21 21 24 25 23 21 22 23 21 16 13 12 10 8 6 5 5 6 8 8 7 8 12 12 14 17 19 21 22 22 19 18 17 18 18 20 21 23 23 24

GFSMW_925_spd_051.txt.gz
Wind_Speed
10 17 20 29 35 33 36 35 31 34 39 36 31 30 34 38 30 35 32 34 35 33 29 26 25 24 21 18 14 12 9 6 2 1 2 4 3 4 6 6 6 5 4
11 11 21 24 22 29 33 33 33 34 38 36 39 27 34 32 34 34 36 37 38 34 30 27 28 26 22 19 17 14 9 3 4 3 3 2 2 5 7 9 8 5 4
13 11 11 22 24 22 25 23 21 27 39 37 35 27 31 28 30 31 36 38 37 34 30 28 28 25 23 21 18 15 11 7 4 3 3 2 3 2 1 7 7 5 3
8 10 10 14 26 26 24 25 26 22 31 38 36 36 34 23 23 39 38 39 37 34 31 29 27 25 21 20 18 14 12 9 8 6 3 1 2 2 2 2 6 3 3
12 12 10 18 28 23 19 25 32 31 26 38 37 38 30 30 33 37 38 37 36 33 31 29 27 24 20 18 17 15 12 10 9 6 5 3 3 2 2 3 4 9 17
5 4 4 5 6 6 12 17 18 31 33 33 41 41 40 37 35 34 37 37 34 32 29 27 25 23 21 19 17 14 11 9 8 7 5 4 3 2 2 1 3 7 10
5 4 7 5 6 7 11 15 17 20 27 33 38 41 42 44 43 41 38 36 33 32 30 28 25 23 21 19 16 14 11 9 8 6 5 3 2 3 3 4 4 3 7
1 3 6 3 4 8 15 17 23 21 22 31 36 39 40 39 38 38 36 33 33 33 32 29 25 23 22 18 15 13 11 8 6 5 3 2 2 3 4 4 4 3 3
6 6 4 3 3 10 18 21 24 26 22 31 37 36 37 37 36 35 33 31 31 34 33 29 26 22 20 17 14 12 9 7 5 3 2 3 3 4 5 6 7 4 3
9 4 1 1 6 13 20 28 24 27 26 34 36 34 33 32 31 32 33 32 30 31 31 28 25 21 16 15 11 10 8 6 4 2 3 4 6 6 8 10 11 11 13
8 9 7 4 4 11 19 24 20 22 29 29 30 34 32 30 31 32 32 31 31 33 30 28 25 22 18 13 11 8 5 4 3 3 5 6 7 9 9 9 12 15 16
17 7 7 2 5 9 18 17 13 24 28 31 33 32 31 31 33 32 31 34 33 31 30 28 24 19 16 14 10 7 5 2 3 4 6 8 9 11 12 13 14 15 15
8 3 1 1 4 7 4 12 21 27 31 34 34 31 31 31 31 31 32 33 32 30 27 25 22 18 13 11 10 6 3 3 3 5 8 10 11 13 14 13 14 16 20
8 5 3 2 4 7 12 19 23 27 31 33 31 31 31 28 31 31 31 35 33 30 28 23 20 14 10 8 6 4 2 2 4 6 8 10 12 12 12 15 17 17 18
5 7 6 1 4 15 14 16 18 24 31 30 30 28 29 29 30 30 31 34 34 29 26 22 16 13 9 8 4 1 1 4 7 8 10 10 12 13 14 16 16 20 22
6 5 3 6 7 12 15 15 19 20 26 28 30 29 30 29 29 30 32 34 29 24 21 17 14 13 9 5 2 2 4 7 9 11 12 13 13 16 14 17 18 18 22
6 6 6 7 12 15 19 17 20 24 25 26 27 27 28 27 29 31 31 30 26 22 18 14 12 8 6 4 3 4 7 8 10 11 14 16 15 14 17 19 19 21 18
12 11 10 15 19 22 22 23 22 24 24 24 26 27 30 29 27 28 28 26 22 19 17 12 9 6 4 2 4 5 8 10 10 11 13 16 19 18 18 21 21 22 23
10 12 18 20 21 24 25 28 26 27 28 26 27 27 26 26 27 26 23 21 20 15 12 10 7 4 3 3 4 7 10 12 14 12 14 17 19 19 20 23 25 25 23
13 15 19 24 24 22 28 29 25 30 28 25 24 26 27 27 27 22 20 15 15 13 9 7 5 4 4 3 4 6 9 14 16 17 17 18 18 20 21 24 23 20 25
15 17 19 22 25 29 32 28 29 24 27 24 28 25 24 23 20 18 16 14 12 10 8 8 6 5 3 3 6 9 11 12 16 19 22 22 21 21 24 23 24 22 25
14 15 16 18 20 17 25 21 21 27 27 27 25 25 22 19 20 18 14 12 10 9 8 6 6 5 4 6 8 9 11 15 18 20 22 23 21 24 24 21 19 21 21
13 12 15 16 17 19 22 20 24 29 27 23 23 23 19 17 15 14 12 11 8 8 6 5 4 5 8 8 10 12 14 16 18 19 21 21 22 21 18 19 20 18 22
14 16 17 17 17 18 17 22 21 23 26 24 20 20 19 16 13 11 9 8 7 5 4 5 6 8 10 12 14 17 19 21 21 21 17 18 18 17 17 19 20 21 20
16 16 16 15 16 22 23 24 26 26 26 25 21 17 15 13 12 10 8 7 7 7 7 6 6 9 13 14 14 17 19 20 18 20 18 21 20 20 18 18 19 21 22
17 17 18 18 18 22 21 22 23 24 26 22 18 16 14 12 9 9 8 7 6 5 6 5 6 9 10 12 15 17 17 16 16 16 16 16 16 16 18 20 23 22 22

GFSMW_925_spd_054.txt.gz
Wind_Speed
13 20 24 27 32 36 36 31 30 34 39 35 30 30 34 38 36 39 36 33 34 31 31 32 31 28 27 24 20 16 13 9 6 5 4 5 5 6 7 8 8 7 6
8 9 21 23 19 22 32 37 36 32 40 39 40 33 38 37 37 39 35 36 35 36 35 37 33 30 27 23 21 19 15 7 7 5 3 1 2 6 8 9 9 8 8
17 13 11 22 27 25 22 21 31 31 32 39 36 32 33 27 34 35 38 40 41 42 40 38 36 32 29 26 23 21 16 11 7 6 4 2 4 1 3 8 9 8 8
11 12 10 15 26 27 25 21 20 22 26 35 37 36 31 22 33 41 42 43 40 43 41 39 34 33 29 25 23 19 16 12 10 7 4 3 3 2 1 3 7 8 7
8 9 9 19 25 24 27 26 25 24 23 32 38 38 29 30 34 38 40 40 38 40 39 37 35 31 28 24 22 19 15 12 11 7 6 4 3 3 2 2 3 6 9
6 8 12 13 8 6 7 12 13 16 20 28 34 40 32 33 31 33 35 35 36 35 33 33 32 30 28 24 20 18 15 13 11 9 7 5 3 3 3 1 3 5 9
5 2 5 6 9 8 5 4 6 12 14 18 29 35 42 42 41 40 39 38 36 34 34 33 30 29 27 22 20 17 13 12 11 9 8 6 4 4 3 2 2 2 4
7 6 5 3 4 4 2 2 7 10 16 21 24 34 37 41 38 40 40 38 39 39 35 32 30 28 26 23 19 16 12 11 9 7 5 5 3 3 4 3 2 2 3
7 8 4 7 9 6 6 7 10 16 21 26 26 31 35 35 39 39 37 37 36 34 32 30 28 26 24 22 20 16 15 12 9 8 6 4 3 3 3 4 5 4 2
15 8 6 10 14 13 9 10 13 18 24 24 25 29 36 38 38 37 36 35 34 33 32 30 28 26 23 21 18 15 12 10 8 6 4 3 4 5 4 6 7 8 10
11 10 12 16 23 14 12 12 14 16 15 20 24 26 31 33 33 34 33 33 34 33 32 32 29 26 23 19 16 12 9 7 5 4 4 4 6 6 7 7 8 11 13
11 10 11 13 9 12 11 11 12 9 17 24 25 26 29 30 31 31 31 32 32 32 34 32 29 26 21 18 17 15 9 3 3 3 5 6 7 8 8 10 12 13 15
7 6 7 7 8 12 10 6 5 12 20 23 27 28 29 29 29 30 32 31 31 32 32 31 28 25 21 17 13 11 6 4 1 5 9 8 8 9 10 11 13 15 17
8 8 6 4 10 8 5 4 7 10 16 23 25 27 26 27 31 30 30 31 32 33 31 29 25 22 22 18 15 9 3 2 4 7 10 9 9 9 10 12 14 15 16
12 11 4 3 2 3 11 14 12 12 12 17 23 24 26 28 27 30 28 30 30 30 28 27 24 20 15 13 11 7 3 5 6 7 7 7 7 9 11 14 14 17 20
13 7 4 6 5 8 14 18 19 17 16 17 18 23 26 27 27 29 29 32 32 29 25 21 17 13 9 10 8 6 4 2 4 6 7 8 9 9 10 12 15 18 21
13 6 8 7 10 16 19 22 23 24 25 22 22 23 27 29 30 32 33 31 27 23 21 19 17 14 9 6 5 3 2 1 4 6 8 8 10 13 15 14 15 17 18
9 9 7 13 16 20 23 26 29 30 26 22 24 25 32 31 33 33 31 27 25 20 18 16 12 9 9 7 4 2 2 4 6 7 7 10 14 15 16 18 20 21 21
6 9 11 14 18 22 24 28 27 27 25 19 21 28 35 33 30 26 26 22 21 17 12 8 9 10 8 4 1 3 6 8 9 9 11 13 15 16 17 20 22 20 20
9 11 13 16 18 19 25 27 23 25 24 23 27 30 30 29 26 25 23 20 14 12 9 6 7 7 4 3 2 5 8 9 11 13 16 16 16 17 17 21 21 19 25
13 14 15 16 14 15 18 19 21 20 23 27 30 27 25 26 23 21 18 16 13 10 10 8 7 7 4 1 4 6 7 11 15 18 19 19 17 18 20 21 21 20 22
11 12 14 15 14 15 21 19 20 23 25 28 27 26 24 21 19 17 15 12 12 12 9 8 7 5 2 4 6 8 10 11 14 17 19 20 18 21 20 18 17 19 19
10 10 11 14 14 13 22 21 18 24 25 26 24 21 19 15 15 15 13 12 9 8 6 4 3 3 6 7 7 9 11 13 15 17 17 17 18 17 17 16 16 15 18
10 11 12 12 12 15 19 24 23 23 22 20 19 17 16 15 12 11 10 9 8 6 4 3 5 6 8 9 10 13 16 18 15 17 16 16 16 14 14 16 17 18 18
12 12 13 14 15 18 19 19 19 20 22 19 19 17 16 15 14 12 9 8 7 6 5 4 4 6 9 10 11 14 17 16 16 16 19 19 20 20 19 19 21 22 21
13 13 13 16 15 20 19 18 20 20 22 20 17 15 14 12 11 9 9 7 5 4 4 4 5 7 6 9 11 14 14 13 14 13 15 17 17 17 18 19 23 23 22

GFSMW_925_spd_057.txt.gz
Wind_Speed
13 17 26 22 21 25 25 27 27 30 35 33 29 28 31 36 38 38 39 37 36 34 32 31 30 29 29 29 26 21 16 12 10 7 4 5 5 7 8 10 10 9 8
9 9 20 23 22 23 24 24 25 30 36 36 38 29 35 36 44 42 41 39 37 36 36 34 33 33 33 32 28 25 19 11 12 5 4 1 3 7 9 10 10 10 9
16 13 10 22 25 23 23 19 17 25 33 37 34 29 26 23 31 33 40 41 40 38 40 38 37 37 37 37 32 28 23 16 13 12 5 2 4 2 6 10 11 10 10
12 10 7 12 22 27 27 24 24 20 22 33 32 34 30 25 28 37 40 40 42 39 40 41 38 40 41 37 32 27 24 19 14 10 10 5 4 3 1 4 8 10 11
7 8 8 15 18 18 19 20 21 18 16 24 35 37 30 28 30 37 39 39 41 39 39 40 38 40 38 34 30 27 23 19 16 11 8 7 5 5 2 3 3 9 11
10 8 13 12 13 12 14 15 15 17 20 20 28 38 34 30 29 33 33 39 40 38 38 39 38 37 35 32 29 25 22 19 15 15 11 9 4 5 4 2 2 4 6
12 12 10 9 13 7 3 4 8 11 12 13 19 29 33 32 37 38 38 39 40 38 39 39 38 36 34 30 27 25 22 17 14 13 10 7 5 5 4 3 2 3 3
7 8 9 9 11 13 11 7 5 9 9 11 14 19 28 34 36 36 37 39 39 37 37 36 36 32 30 28 24 22 19 16 12 10 8 7 4 3 4 2 3 1 2
8 6 7 14 17 17 16 15 13 13 14 16 18 17 22 30 34 36 36 34 36 36 35 34 31 30 29 26 24 21 18 15 13 10 8 6 5 3 3 3 4 3 2
9 7 5 9 19 24 28 23 18 18 18 20 22 22 22 28 32 33 34 34 33 32 33 31 30 29 27 26 23 20 17 16 13 9 8 6 4 4 5 5 5 8 9
8 9 7 10 14 20 21 19 21 20 19 20 19 19 21 26 27 29 30 30 29 31 32 32 31 30 29 25 23 20 18 15 13 9 6 4 3 6 6 6 7 9 12
8 8 7 14 15 16 19 17 17 15 16 13 13 15 18 20 22 23 25 27 26 26 29 29 29 28 26 24 23 20 15 14 10 6 6 3 4 7 7 9 10 13 15
9 7 7 8 7 10 12 14 14 10 7 6 7 11 14 18 19 21 22 23 25 26 27 27 28 26 23 20 17 14 11 10 8 9 6 3 6 8 9 10 12 14 15
8 8 7 5 5 7 10 11 10 13 7 1 7 10 12 15 19 22 23 24 27 28 28 26 26 25 23 19 16 13 9 5 2 4 2 5 7 8 9 10 13 15 16
11 12 9 5 8 10 18 15 17 12 10 12 14 15 16 18 22 22 26 28 29 31 30 32 29 24 21 18 14 7 4 0 3 4 1 3 5 6 8 12 15 15 17
13 10 9 7 8 12 16 16 17 16 20 23 21 21 22 24 26 29 29 32 34 33 32 29 26 20 14 9 8 6 3 4 3 3 4 7 8 9 10 12 14 16 19
9 9 8 7 9 11 13 15 17 21 23 26 25 23 23 26 26 29 31 32 33 31 27 23 18 18 15 10 8 5 3 0 3 7 9 8 9 11 13 13 13 15 17
5 5 5 8 9 9 11 13 15 21 25 24 24 25 25 25 28 32 33 30 28 25 24 19 15 11 9 8 6 3 2 4 7 7 7 10 12 14 15 16 18 19 20
5 6 7 9 10 8 9 12 14 15 18 24 27 26 25 27 29 32 30 27 25 21 20 15 10 11 11 7 4 4 6 6 6 5 8 12 15 16 15 18 19 19 19
7 7 8 11 12 11 11 13 12 13 15 17 20 24 28 29 28 30 27 23 19 18 17 11 9 8 6 4 4 4 5 4 6 9 13 13 13 14 16 17 19 19 24
10 12 13 13 12 13 14 14 16 18 20 23 27 28 27 26 26 25 20 18 17 16 13 11 10 9 7 4 4 2 6 7 10 14 16 16 15 16 18 18 18 18 20
9 9 12 14 12 12 17 16 18 20 23 25 26 24 22 21 21 20 17 15 15 15 13 12 10 7 3 2 3 4 6 9 12 15 17 16 15 17 16 16 16 16 17
8 8 10 11 10 10 16 16 17 22 24 23 21 19 19 18 15 15 14 13 11 10 9 7 6 4 3 4 5 8 9 11 13 13 12 14 15 15 15 14 14 14 17
8 9 11 10 11 15 18 20 20 20 20 20 18 17 17 15 13 12 11 12 10 9 7 6 5 5 7 6 7 10 13 13 11 13 15 15 13 12 12 13 14 16 16
10 10 10 11 12 17 18 18 18 18 17 17 17 16 15 14 14 13 11 10 10 8 7 5 4 4 6 7 9 11 13 13 14 13 17 18 18 18 18 18 19 19 20
14 13 14 14 14 16 16 16 16 16 19 18 15 14 13 12 11 11 12 10 9 7 5 5 6 5 4 7 9 11 11 12 12 13 15 17 17 18 19 20 22 23 22

GFSMW_925_spd_060.txt.gz
Wind_Speed
11 19 24 23 20 19 20 26 29 30 32 32 29 27 29 29 31 39 37 35 33 33 31 32 30 29 29 29 26 26 22 16 16 11 6 6 6 7 9 11 12 11 10
9 11 20 22 22 24 23 23 28 32 33 34 35 27 31 28 34 37 38 38 37 36 34 35 35 33 31 31 31 30 24 16 19 8 5 1 3 9 10 12 13 12 12
15 12 8 19 22 23 23 23 23 30 34 36 33 27 23 26 22 28 35 39 38 39 38 37 37 36 35 37 36 33 29 21 19 14 5 2 4 3 8 13 14 13 14
8 6 6 12 16 20 21 23 21 20 26 31 30 30 28 26 28 32 41 40 39 40 39 40 39 39 38 40 40 36 31 21 16 16 15 7 4 3 1 6 11 13 14
7 8 6 9 11 11 13 16 22 22 21 24 31 33 27 25 25 30 34 36 38 40 40 41 41 41 39 41 38 37 32 27 22 16 10 10 7 6 3 3 4 10 13
8 7 8 15 16 13 9 7 11 16 19 19 24 32 33 31 29 29 32 36 37 38 39 40 40 42 41 40 38 36 33 28 23 23 17 12 6 6 4 1 2 4 7
10 10 13 12 21 20 16 12 8 9 10 16 21 27 34 33 34 34 34 32 34 36 39 40 42 43 41 37 36 34 31 27 23 21 18 14 10 7 10 6 2 3 3
7 8 9 14 20 22 21 19 16 14 9 8 11 15 23 29 32 33 33 34 35 37 40 40 38 38 36 32 31 28 26 24 21 19 15 12 11 9 8 6 7 1 2
7 8 7 12 16 21 24 23 23 21 18 14 13 14 16 21 26 30 31 33 32 32 32 36 38 34 31 29 28 27 24 22 20 17 15 13 11 9 5 5 7 5 3
8 7 7 12 15 18 20 21 19 17 20 20 18 17 17 19 23 27 29 29 28 27 27 29 31 30 27 27 27 25 23 21 18 16 13 10 8 8 5 3 4 4 7
8 8 7 14 14 16 15 17 18 17 16 16 16 16 16 16 19 23 24 23 22 23 23 25 26 26 27 27 26 24 22 20 17 13 10 8 5 1 3 4 5 9 9
7 7 8 14 13 13 13 15 16 16 14 14 14 14 12 11 12 15 14 15 17 19 22 24 25 27 28 26 25 24 20 17 15 11 8 7 3 1 4 8 9 10 11
8 10 10 8 11 13 14 14 14 14 13 12 10 9 6 2 4 6 8 13 17 19 21 25 27 27 26 27 24 22 20 15 12 9 7 4 0 4 6 9 10 10 12
8 10 7 5 9 10 11 13 14 14 11 9 8 8 5 6 9 12 15 17 21 26 26 27 28 28 28 27 25 21 17 14 10 7 3 2 3 7 4 9 10 10 12
5 6 8 6 7 8 12 13 13 13 10 12 15 12 13 14 17 20 20 21 22 26 29 33 32 28 24 21 21 18 12 10 6 3 2 1 2 2 2 6 9 11 12
7 8 6 5 6 13 13 14 15 12 12 17 17 18 20 22 22 23 24 25 26 28 31 32 32 29 25 17 14 13 10 8 6 3 1 1 2 5 6 8 9 11 14
6 6 6 5 11 11 11 13 13 10 13 16 16 18 21 24 25 24 25 25 28 34 32 29 27 25 20 14 12 10 10 7 4 3 2 2 4 7 11 12 11 12 14
6 5 5 7 8 8 10 9 10 11 13 14 13 17 21 25 26 27 28 29 29 30 28 25 21 20 17 14 13 11 9 8 5 4 4 7 11 13 13 14 16 16 16
4 6 7 8 7 9 9 11 13 13 14 12 13 12 20 24 27 27 26 25 26 26 23 22 18 16 14 11 8 7 5 4 3 4 8 11 12 13 12 15 15 17 19
6 7 6 8 10 9 9 13 12 14 14 12 14 16 20 25 26 25 24 22 21 22 20 17 14 12 12 7 6 3 2 4 5 8 10 10 11 12 13 15 17 17 23
6 8 8 7 7 9 9 13 13 14 14 15 17 19 22 25 24 23 20 19 18 18 17 15 13 13 11 11 8 6 5 7 8 9 11 13 12 13 15 15 16 17 18
5 7 6 8 8 10 15 15 13 14 18 19 21 22 22 20 19 19 17 16 16 16 16 14 12 10 7 6 6 6 6 7 10 10 11 12 14 15 14 13 13 13 14
7 7 9 9 8 8 13 16 14 17 20 21 20 18 17 16 14 15 14 14 11 11 10 9 8 8 6 5 5 6 7 8 9 10 9 13 13 12 12 11 11 11 14
8 9 9 10 12 13 14 16 16 19 18 18 18 16 16 15 13 13 11 11 9 9 8 7 7 5 5 5 6 8 10 10 12 12 11 12 10 9 10 11 12 13 14
9 9 11 10 12 16 16 16 15 15 18 18 16 15 14 14 14 14 11 11 10 7 7 7 5 4 4 6 7 10 11 11 11 9 13 13 13 14 15 16 17 17 18
14 12 13 14 15 16 15 15 13 14 17 17 15 14 14 13 13 14 15 11 10 8 7 6 6 4 4 6 7 9 9 9 10 9 11 13 14 15 17 18 20 20 20

GFSMW_925_spd_063.txt.gz
Wind_Speed
10 18 24 24 22 21 22 24 29 30 27 26 26 25 30 31 32 36 34 35 33 33 32 34 33 34 32 31 27 26 23 19 19 13 7 8 9 11 13 14 15 15 14
9 12 18 22 22 24 26 25 26 31 30 28 28 23 28 28 32 27 30 36 35 35 35 37 36 37 34 33 32 32 26 21 23 9 4 3 5 11 14 15 16 16 15
10 10 10 13 16 19 23 25 27 27 31 31 28 23 19 21 21 29 32 35 37 38 38 39 39 38 39 38 37 36 33 25 25 18 7 3 5 4 10 15 17 18 18
8 7 7 6 6 10 12 18 24 24 26 30 25 26 23 23 26 27 32 28 34 38 40 40 41 41 40 39 40 39 39 33 24 22 20 9 5 3 2 8 15 17 18
7 9 9 13 14 11 6 6 12 19 21 21 28 29 28 27 27 27 24 28 31 35 40 42 43 43 42 42 42 41 41 39 29 25 14 16 11 8 3 3 6 15 18
7 6 9 14 16 16 16 14 6 6 13 18 21 28 26 26 25 30 28 27 28 32 36 39 43 43 43 43 44 43 42 41 34 31 23 19 8 9 6 2 4 6 11
8 9 10 12 17 22 20 16 14 12 8 6 14 21 25 24 31 29 29 23 28 31 34 37 40 43 42 40 39 39 39 40 37 30 28 22 18 12 15 7 5 2 5
7 8 8 11 16 19 21 21 17 13 10 8 6 7 16 24 28 30 31 31 31 32 30 33 36 40 40 38 36 34 34 35 33 24 23 21 18 14 13 8 4 1 1
6 7 9 12 11 17 18 19 19 15 10 8 9 9 10 13 18 23 25 27 28 28 26 25 28 32 32 32 32 30 29 27 25 22 18 14 12 11 9 7 8 5 2
6 6 7 10 9 13 13 14 14 14 12 9 7 8 8 9 13 17 20 22 23 23 22 21 23 25 26 26 27 26 26 26 22 20 19 17 13 9 9 5 4 2 3
7 7 9 11 11 10 11 12 14 14 13 11 8 5 5 5 6 9 13 15 16 16 17 18 20 21 24 24 25 26 25 24 23 21 20 17 13 11 7 6 2 2 5
7 9 10 11 9 12 14 14 15 13 13 12 10 9 8 9 8 6 6 7 10 11 13 16 18 21 22 23 25 26 25 26 26 21 17 13 8 5 3 1 5 4 9
9 9 9 10 10 11 13 16 17 16 13 12 11 11 11 10 8 5 1 3 6 9 12 15 18 20 23 26 25 28 28 26 21 17 13 11 6 4 2 2 8 6 10
7 8 9 9 12 15 16 15 16 17 15 13 13 12 11 11 10 8 8 9 12 16 18 20 24 25 26 28 30 29 26 21 17 14 11 10 8 3 6 9 5 6 10
6 7 7 6 11 10 10 15 17 16 15 16 15 14 14 14 14 14 15 16 18 21 21 24 26 28 30 28 28 25 22 18 14 9 6 4 4 4 3 1 4 8 9
5 5 4 6 7 6 10 12 14 17 16 16 16 14 16 16 15 15 16 17 21 23 26 27 26 27 29 24 20 18 18 14 12 9 7 5 4 4 3 2 5 8 8
3 3 2 5 5 8 6 10 11 14 16 17 18 14 13 15 16 17 18 23 25 26 28 27 26 25 22 19 17 16 15 11 10 7 7 5 2 2 4 5 5 7 8
2 3 3 5 6 7 8 11 12 15 16 16 15 14 14 15 19 21 24 27 26 25 24 25 26 24 19 19 19 17 15 12 9 7 4 3 3 6 6 7 8 9 11
3 4 6 5 7 6 7 12 13 13 16 15 15 14 16 20 22 24 24 24 24 24 23 22 22 21 17 13 16 13 10 9 7 5 4 5 6 6 7 9 9 10 12
5 6 6 7 9 7 8 13 14 16 17 15 15 15 19 22 23 22 22 24 24 24 22 20 16 16 15 11 9 7 6 5 4 4 6 7 7 8 8 9 10 9 13
8 8 8 10 7 6 9 15 15 15 14 16 18 18 19 21 21 22 21 20 21 20 18 17 16 16 15 11 7 6 7 6 6 5 6 8 8 9 9 8 10 9 13
8 7 10 10 8 10 13 15 16 13 16 19 20 21 20 18 18 19 18 17 18 18 16 14 13 11 9 7 7 7 7 6 5 5 6 7 9 9 8 7 8 8 10
7 8 9 10 7 8 13 16 13 16 20 21 19 17 17 15 14 16 16 15 13 12 10 9 9 8 7 6 6 7 8 6 6 6 6 9 9 8 7 7 7 8 9
8 8 9 9 11 13 15 17 17 17 17 18 17 16 16 15 14 13 12 11 10 9 7 6 7 6 6 6 6 7 9 8 10 8 10 9 7 7 7 8 8 8 8
10 10 11 12 12 15 16 16 16 15 18 17 15 14 14 14 15 15 12 10 9 6 6 6 4 4 5 6 6 7 8 8 8 7 9 8 9 9 9 10 10 10 10
13 12 12 14 14 15 15 14 14 16 18 17 15 13 13 13 12 14 15 11 9 8 7 5 5 3 4 4 5 7 7 7 6 6 6 6 7 7 9 10 12 11 12

GFSMW_925_spd_066.txt.gz
Wind_Speed
11 13 15 15 15 15 16 20 19 22 21 21 22 23 26 26 26 28 23 23 24 25 26 25 23 24 25 24 22 20 19 16 15 11 9 8 10 11 13 13 14 14 14
11 13 14 14 16 17 18 19 20 21 23 23 23 23 21 23 25 25 27 25 25 26 28 29 28 26 26 26 25 23 19 18 19 12 10 5 9 14 16 15 16 16 16
4 4 7 9 10 14 17 18 19 20 21 25 24 21 19 17 17 27 32 35 33 28 30 29 29 27 27 28 29 28 24 21 19 20 8 4 6 8 12 17 16 16 16
5 6 7 7 4 3 7 12 15 17 18 20 24 25 25 23 24 23 24 24 26 35 29 29 29 28 32 30 33 32 32 23 21 19 20 10 2 4 4 9 16 16 16
5 7 8 8 9 9 6 2 7 11 15 16 21 23 25 24 24 24 23 23 23 31 36 28 28 29 29 31 29 35 35 33 23 25 13 16 11 8 4 4 7 13 15
6 6 7 8 10 9 8 8 7 2 6 13 15 20 22 22 21 22 23 23 21 26 31 34 31 31 29 29 31 30 35 35 29 28 22 17 11 10 10 6 4 8 8
6 6 7 7 9 11 11 9 8 5 4 0 9 14 19 21 21 22 20 21 18 21 29 30 31 32 36 31 26 27 30 35 33 32 30 27 19 11 14 9 4 4 5
6 7 8 8 7 9 10 10 11 9 6 3 2 4 9 14 17 18 19 19 19 19 21 24 27 29 30 30 29 28 28 30 30 24 24 31 21 15 9 6 9 2 2
6 7 7 8 7 10 11 11 10 9 9 7 6 5 5 6 8 11 13 15 16 17 15 18 21 26 29 29 28 26 25 21 22 25 26 21 18 14 10 7 3 3 3
5 6 6 8 8 8 9 10 11 10 10 9 7 6 6 6 6 6 8 10 11 11 11 17 19 20 23 26 27 26 22 22 22 22 21 17 12 10 8 10 9 4 4
4 5 6 6 5 7 8 9 11 12 12 11 10 8 7 7 6 6 6 7 7 7 8 11 14 15 17 19 22 23 23 22 21 18 17 17 15 16 14 10 8 6 5
4 4 5 6 6 8 9 10 11 11 11 10 9 9 9 8 8 7 7 6 6 6 6 7 7 9 12 15 17 16 18 20 22 22 23 20 16 13 9 7 5 5 4
3 4 5 7 8 9 9 10 11 11 11 9 8 9 9 9 9 8 7 7 5 4 1 3 6 8 11 13 16 19 23 22 23 21 20 17 13 10 7 6 5 4 3
2 3 5 7 8 8 9 9 10 9 9 10 11 11 11 10 10 10 11 9 9 9 9 9 10 12 14 18 21 24 28 27 24 19 16 13 10 8 7 3 2 2 4
2 4 5 4 7 6 7 9 11 11 9 10 11 11 10 11 12 13 13 13 12 13 13 14 15 16 18 20 23 24 25 25 21 17 14 10 6 3 4 3 3 3 5
3 4 5 3 7 5 6 8 7 8 9 8 11 11 12 11 13 15 15 18 18 17 17 21 22 22 22 18 21 20 20 20 17 14 11 9 7 4 4 5 4 5 8
2 3 3 4 5 3 5 4 6 6 6 8 11 12 13 14 13 14 16 20 21 21 24 25 25 22 20 18 15 16 17 16 14 13 10 7 3 2 3 4 5 6 7
3 4 4 5 4 4 5 4 5 6 8 11 13 12 14 15 15 18 22 23 22 23 24 23 22 22 18 18 17 17 17 12 11 9 7 4 1 3 3 5 6 6 7
4 6 6 6 7 6 5 5 5 6 9 12 13 12 14 17 19 22 23 23 24 24 25 22 20 19 16 13 13 12 12 10 7 5 3 3 2 4 4 7 6 9 9
5 7 7 7 6 5 7 8 8 8 11 13 15 16 17 19 20 19 21 22 23 23 22 20 16 13 11 8 10 8 5 5 4 3 3 2 3 4 5 7 8 9 9
8 8 7 6 6 7 10 12 11 13 14 17 19 18 18 19 19 20 19 19 17 16 15 13 11 10 8 7 6 6 5 4 2 1 2 3 4 6 6 6 7 7 9
8 7 7 7 8 9 12 15 14 14 17 20 21 20 18 18 17 17 14 13 12 12 10 9 8 6 6 6 6 6 6 3 1 2 3 4 7 6 5 5 5 7 8
9 9 9 10 8 9 12 15 14 17 20 21 17 15 13 12 11 11 11 10 8 7 6 5 5 4 3 3 4 5 5 3 4 3 4 6 6 5 4 5 5 6 6
10 10 10 10 11 11 13 16 17 15 13 14 13 12 12 11 10 8 8 7 5 5 5 4 4 3 2 2 3 4 4 4 4 4 5 5 4 4 4 5 5 5 6
12 11 12 12 13 15 15 13 12 12 13 13 12 11 10 10 10 8 6 6 5 4 4 4 3 1 1 2 3 4 5 5 6 5 5 3 3 4 4 5 6 6 7
15 14 15 15 15 16 15 13 11 12 13 13 11 9 9 8 8 8 9 10 9 7 6 4 2 0 1 1 3 4 5 5 5 4 4 4 5 5 7 8 8 8 8

GFSMW_925_spd_069.txt.gz
Wind_Speed
12 15 15 14 15 17 19 20 20 20 19 20 17 22 24 28 21 21 20 20 21 21 24 24 22 23 24 24 26 21 20 18 16 13 11 11 12 14 16 16 16 16 16
12 9 14 15 16 18 18 19 20 21 21 21 20 18 19 23 23 27 29 22 24 26 26 27 26 26 25 24 28 25 21 20 20 15 11 4 10 17 19 18 18 18 17
8 9 10 11 12 14 16 17 19 20 21 21 20 19 18 17 16 24 28 29 28 25 27 27 28 25 25 26 27 30 28 23 23 23 9 3 5 8 15 20 18 18 18
4 1 1 2 1 4 7 11 14 15 18 18 21 22 21 20 20 19 19 21 24 28 28 26 27 28 27 26 28 28 31 25 23 21 26 14 3 3 3 11 18 17 18
3 5 5 5 6 6 4 3 7 12 16 15 18 19 21 19 19 19 20 20 19 22 25 29 28 28 31 30 28 27 29 30 24 26 13 19 16 12 2 4 7 15 17
5 5 5 5 7 7 6 6 4 2 6 12 15 17 19 19 18 18 18 18 18 17 20 22 26 31 27 32 32 29 28 29 27 24 23 22 13 14 8 3 7 10 14
4 4 4 3 5 6 8 7 6 5 4 2 8 13 15 18 18 18 17 17 17 18 22 22 22 26 30 28 29 29 31 34 31 28 29 26 23 16 17 13 4 3 5
4 3 4 4 4 6 7 8 7 6 6 4 4 3 7 11 14 16 16 16 15 15 15 20 22 24 25 29 31 30 31 28 29 28 23 19 20 20 16 6 6 2 3
2 3 4 5 5 5 6 7 7 7 7 7 5 4 4 4 6 8 10 12 13 13 12 14 15 17 20 23 27 30 29 27 25 22 22 21 17 17 15 14 11 2 2
1 3 4 4 5 5 6 6 8 8 8 8 7 5 5 5 4 4 4 5 6 7 8 11 13 13 15 17 20 21 21 20 20 22 23 19 16 13 9 6 11 9 6
2 3 3 3 4 5 7 7 8 8 8 8 7 6 5 5 4 4 4 4 4 4 5 6 7 10 11 12 14 15 17 18 17 15 15 13 12 13 11 10 7 10 11
1 1 2 3 4 5 7 8 9 10 9 7 6 8 8 8 9 9 9 8 7 7 6 4 2 3 5 8 10 11 12 12 13 13 15 15 16 13 13 13 8 8 4
2 2 2 2 4 5 6 7 9 9 9 8 8 9 10 10 11 11 11 10 9 10 10 8 8 6 3 0 3 6 8 11 13 14 16 18 19 17 12 12 9 8 5
4 2 3 3 4 4 5 7 7 8 8 9 9 10 11 11 11 12 12 12 11 11 11 11 10 8 7 9 11 14 17 19 19 18 15 15 14 16 12 10 8 5 4
4 3 3 3 2 3 5 6 7 8 8 8 9 9 10 10 11 12 13 13 15 14 14 14 14 14 13 12 13 16 18 19 20 18 13 10 11 11 9 7 5 5 3
5 5 4 3 1 4 5 4 5 7 7 7 10 10 9 9 10 11 14 15 16 18 19 23 24 23 21 17 17 18 19 18 16 15 11 9 9 9 7 5 6 4 1
6 5 6 5 3 3 4 4 5 6 7 8 9 8 7 9 12 11 13 16 17 19 23 23 23 24 21 17 16 15 16 17 17 12 7 6 3 5 3 2 1 1 2
6 6 6 6 5 4 5 5 5 6 7 7 7 8 9 11 15 17 19 21 23 22 22 21 21 21 19 15 15 14 14 13 11 7 7 1 2 2 2 2 2 2 4
5 5 6 6 6 4 4 5 5 6 7 7 7 9 12 16 19 21 21 20 22 21 20 19 17 17 15 14 13 12 10 8 6 5 3 2 3 3 4 5 4 4 6
7 8 7 7 6 4 5 6 6 7 8 8 10 11 15 17 21 19 20 19 19 19 17 17 13 11 12 11 10 6 3 3 3 2 2 4 4 4 5 6 6 5 6
8 9 7 7 6 5 7 8 8 11 11 13 14 15 16 18 20 20 18 16 14 13 12 12 10 10 9 9 9 8 6 4 3 2 2 3 5 7 7 6 5 5 8
9 9 8 7 6 7 9 12 13 14 16 17 18 18 16 13 15 15 11 10 10 9 8 7 7 7 6 6 6 7 6 5 4 4 5 5 8 7 6 5 5 6 8
9 8 10 10 8 9 11 15 15 17 18 17 14 13 12 11 10 9 8 7 6 5 5 4 4 3 3 2 4 4 5 4 5 4 5 8 7 6 5 4 6 6 5
10 11 11 10 11 11 12 16 18 17 14 13 12 11 11 10 9 7 5 5 4 4 3 3 2 1 1 2 3 4 5 6 6 7 7 7 6 5 5 5 4 5 6
12 11 12 12 14 14 15 16 15 14 13 12 11 10 10 9 9 7 5 5 3 3 2 2 1 1 1 3 4 5 6 6 6 8 6 6 5 5 4 5 5 6 7
14 14 14 15 16 15 15 14 13 13 13 12 11 9 9 8 8 9 8 8 7 5 4 3 2 1 2 2 3 5 6 6 6 5 5 5 5 5 5 7 7 7 8

GFSMW_925_spd_072.txt.gz
Wind_Speed
4 9 13 11 14 18 16 16 14 16 17 25 24 23 25 23 21 19 20 22 23 24 27 28 26 26 27 27 29 25 24 23 20 19 14 14 17 20 20 21 22 21 23
6 8 6 2 6 8 10 13 15 14 20 20 22 23 23 25 30 27 22 23 22 25 28 30 30 29 29 28 28 32 24 26 24 17 11 2 9 22 25 24 24 24 24
6 7 9 8 5 8 10 10 17 21 16 20 19 21 16 16 18 26 31 31 25 21 25 28 30 30 28 30 29 34 34 24 28 29 11 3 5 5 16 28 25 25 25
1 5 8 9 6 4 7 11 12 10 13 16 18 15 23 19 22 23 22 23 24 28 31 20 28 29 30 29 30 28 35 26 26 28 33 19 3 4 1 12 27 26 24
7 7 5 7 5 4 5 3 8 14 16 12 10 13 14 14 22 21 18 17 18 19 21 22 28 27 31 32 31 28 28 36 29 30 26 31 23 13 2 3 8 22 26
7 7 7 10 9 7 7 7 5 4 3 9 13 15 16 16 13 12 14 14 16 19 19 19 19 24 28 28 30 31 32 28 33 32 31 27 15 16 10 2 3 7 13
7 7 6 7 8 8 9 9 10 9 8 6 4 9 12 13 15 12 11 11 13 16 15 16 17 20 21 25 29 29 32 33 29 33 31 30 29 19 23 11 3 3 3
6 6 6 5 7 7 9 9 9 10 9 8 7 6 5 5 7 8 8 9 8 7 9 12 14 17 19 21 22 26 30 28 32 33 28 28 26 26 19 14 13 1 3
6 6 6 8 7 10 10 9 10 10 10 9 7 5 6 4 5 4 5 4 4 4 4 5 7 14 11 13 16 20 23 27 28 29 26 22 21 21 20 17 16 9 4
6 5 6 8 10 10 8 9 8 9 9 9 9 7 6 5 4 3 3 2 2 3 4 6 8 8 11 11 13 14 15 15 17 17 18 18 16 15 13 11 10 9 7
6 5 6 11 9 8 8 9 9 9 9 8 9 10 10 10 9 8 6 6 5 3 4 6 4 4 3 4 7 9 11 12 12 11 12 12 11 10 9 8 8 9 10
6 5 7 8 9 8 9 10 10 10 9 8 9 11 11 11 11 12 10 9 7 6 6 3 3 3 4 3 2 1 2 4 5 6 8 9 7 8 9 10 10 10 10
6 6 6 7 8 8 7 8 10 10 9 10 10 11 12 11 11 9 9 9 9 10 10 8 8 6 6 4 4 2 3 3 3 5 9 11 12 13 11 10 10 8 7
6 5 6 7 8 6 6 8 9 9 9 10 11 11 11 11 11 11 12 12 12 12 13 13 13 11 10 9 10 10 11 11 11 11 12 12 12 13 11 9 6 6 7
7 5 5 6 9 7 7 7 8 9 9 10 10 10 11 11 14 15 16 16 16 17 17 18 17 15 15 12 11 15 17 18 18 16 15 11 11 10 9 7 4 4 6
7 6 5 6 7 8 7 7 8 9 9 11 10 10 11 11 14 14 16 16 18 19 21 24 23 22 20 18 16 18 20 17 17 18 14 12 12 9 10 3 3 2 4
6 6 7 6 7 7 7 7 8 8 10 10 10 10 10 11 13 14 14 16 17 21 24 23 22 22 20 18 15 14 16 15 14 13 11 9 7 4 4 1 0 1 1
5 6 8 9 7 8 8 8 8 9 11 11 10 11 10 13 16 16 16 18 20 21 23 22 21 20 17 14 13 12 12 11 9 8 7 6 6 5 2 5 3 1 4
6 8 12 12 8 8 7 9 9 10 10 10 11 11 14 16 17 18 18 19 20 19 20 18 17 17 14 12 13 12 11 9 9 9 9 6 4 5 5 3 3 3 3
11 13 12 10 9 7 7 10 10 11 12 10 12 15 16 17 17 18 17 18 19 18 16 16 14 13 14 10 8 5 3 7 6 5 4 5 4 5 5 5 3 3 3
13 12 10 9 10 8 9 11 11 11 12 13 15 16 17 17 17 17 17 16 18 17 14 14 12 11 9 9 9 9 5 4 4 3 2 3 5 6 5 4 2 3 5
12 11 10 10 9 8 11 12 15 15 16 16 17 17 17 16 16 15 13 13 12 12 10 9 8 7 6 5 6 7 7 6 4 4 3 3 7 6 5 3 3 5 6
13 12 11 10 8 8 11 15 16 18 18 18 18 14 15 14 12 11 10 8 7 8 7 6 6 4 3 4 6 7 7 7 6 4 6 5 6 5 3 2 6 5 4
13 13 13 11 9 10 12 15 19 19 19 16 15 13 12 12 11 9 7 7 6 6 5 4 4 2 2 1 2 2 3 3 3 7 8 7 6 5 5 5 5 5 7
14 14 16 12 11 14 15 17 21 19 16 15 15 14 13 12 11 9 7 6 5 4 6 4 2 2 3 1 2 5 6 7 7 9 5 6 5 5 5 5 6 6 7
17 14 12 14 14 15 18 20 18 17 17 17 16 16 14 13 11 10 8 5 5 4 4 3 2 1 2 2 3 4 5 6 6 7 5 4 5 5 7 8 9 9 8

GFSMW_925_spd_075.txt.gz
Wind_Speed
9 14 16 18 17 13 11 20 20 25 26 24 22 24 25 23 23 22 25 24 25 26 28 29 29 27 28 27 29 27 27 26 21 18 18 18 21 24 26 26 24 26 25
5 8 6 8 9 8 6 8 10 13 25 27 27 24 27 29 27 26 21 25 27 28 30 31 32 32 30 30 28 32 28 27 24 16 4 2 9 24 29 28 30 28 27
5 5 8 9 8 5 1 2 7 11 11 16 25 26 21 24 22 29 32 29 25 21 26 31 35 34 35 33 33 33 36 30 30 31 15 2 5 2 17 36 34 33 30
6 6 8 9 6 3 3 6 10 10 9 13 9 23 25 24 26 25 25 26 29 30 28 25 24 29 33 34 35 35 37 34 28 29 35 28 5 4 3 9 25 32 29
8 7 8 9 8 6 6 2 5 12 14 10 7 5 11 14 17 20 23 22 19 17 16 17 20 25 26 26 30 28 28 30 29 29 22 28 21 11 3 4 4 19 25
7 7 10 11 9 8 6 8 7 8 4 3 9 10 7 9 10 7 14 22 19 18 19 18 16 16 16 23 24 24 21 27 30 29 31 27 13 19 7 3 3 2 2
7 6 7 10 9 8 8 9 9 10 8 9 8 3 5 7 8 7 6 8 11 11 10 12 16 17 17 16 19 22 24 26 27 30 33 35 32 23 24 16 3 2 6
7 7 7 10 10 9 8 9 9 9 7 5 6 7 5 4 4 1 1 1 1 2 5 9 10 11 9 10 12 15 18 20 23 26 27 29 32 32 29 22 13 1 2
8 7 9 11 12 12 10 9 8 8 7 6 4 3 4 5 6 5 5 7 7 5 4 4 5 5 6 12 11 12 12 13 16 19 19 22 21 21 19 17 15 12 4
8 7 8 13 11 10 9 8 8 8 8 8 8 8 7 5 4 2 4 4 4 3 2 2 3 5 5 7 11 12 13 12 14 11 10 10 10 11 11 12 12 11 7
7 6 8 12 12 11 10 10 9 8 9 10 11 11 13 11 7 6 5 3 1 1 1 1 2 3 2 1 2 3 4 6 6 5 5 5 6 6 6 6 6 7 8
7 6 10 12 11 10 9 9 8 9 10 10 9 10 9 8 8 9 7 6 6 6 5 4 3 3 3 2 2 1 1 2 1 0 0 0 1 2 3 4 7 8 4
7 6 8 9 10 9 8 8 7 8 8 6 6 7 8 8 10 10 9 9 9 9 9 7 8 7 7 6 6 4 5 4 4 4 5 6 6 7 6 6 6 6 6
8 6 6 9 10 9 8 7 7 8 8 7 8 10 10 10 10 10 10 11 11 12 12 12 11 10 10 9 9 10 10 12 12 12 12 11 10 10 8 7 6 4 6
7 7 7 7 11 11 9 8 7 9 9 10 11 12 12 12 12 14 14 14 15 16 15 15 15 13 12 11 12 15 16 17 18 17 16 14 12 10 8 6 7 6 4
8 7 7 10 12 13 10 9 8 9 10 12 13 11 12 11 11 12 13 14 16 18 19 20 17 17 17 15 14 16 17 17 16 15 14 13 11 9 8 8 5 5 4
7 8 8 9 13 12 12 11 10 10 11 13 13 11 9 11 11 12 14 16 19 20 20 20 19 20 17 15 14 14 16 15 13 11 9 7 5 4 5 4 1 2 0
8 7 10 13 13 11 12 13 12 12 13 13 12 10 10 12 14 17 18 18 19 18 18 18 19 19 16 15 14 13 13 12 10 9 8 8 7 7 5 1 1 1 1
6 11 17 16 13 13 14 15 13 13 13 12 11 11 14 17 18 19 18 18 18 16 15 15 16 17 15 14 13 12 12 12 11 10 8 5 5 3 3 2 2 3 2
13 16 17 16 15 14 14 14 14 13 12 11 13 14 16 18 18 17 17 17 16 17 15 15 14 14 14 11 7 6 7 7 5 4 4 3 2 3 3 4 2 2 2
16 17 16 15 14 12 13 14 14 13 13 15 17 16 16 18 18 17 16 17 17 15 13 12 11 11 10 10 10 7 5 4 3 2 0 1 3 5 4 3 2 1 4
14 13 13 13 11 11 13 13 13 15 16 16 18 18 17 17 17 17 16 15 13 12 11 10 8 6 6 5 6 6 6 4 1 1 2 4 5 5 4 3 2 3 5
14 14 15 13 11 11 13 15 17 18 19 19 18 19 17 15 15 15 14 12 10 9 8 7 6 5 4 3 3 4 2 4 4 2 5 5 6 4 3 0 4 3 4
15 17 16 15 13 10 12 15 19 20 21 20 19 17 17 16 13 12 11 10 10 9 7 7 6 5 4 2 1 2 3 4 4 7 8 4 4 3 3 3 3 4 5
18 18 18 16 13 13 15 18 21 23 19 19 19 17 15 15 14 12 11 10 8 7 8 7 6 5 5 2 1 3 4 5 5 7 3 2 2 2 2 2 3 4 6
18 18 20 17 16 16 16 20 23 22 22 20 18 18 18 17 15 14 11 7 6 5 5 4 4 4 3 3 3 4 4 4 5 6 3 3 4 4 4 5 6 7 5

GFSMW_925_spd_078.txt.gz
Wind_Speed
8 12 15 17 17 15 20 21 24 23 20 20 24 25 24 22 23 25 25 25 25 26 28 28 28 27 27 29 29 27 26 27 23 19 20 22 23 25 27 26 28 29 28
3 2 6 10 13 15 15 20 24 21 24 26 23 23 29 28 26 24 24 27 28 29 29 29 29 30 30 30 30 30 31 30 27 16 3 2 11 27 32 30 31 31 29
7 3 8 9 11 12 12 12 15 14 17 23 24 21 20 22 29 29 27 27 26 27 30 31 33 32 32 34 34 32 32 27 29 30 13 1 5 2 11 28 35 30 29
5 5 7 7 5 4 4 6 7 8 10 14 19 25 26 22 26 27 28 31 30 28 24 24 29 32 32 31 35 36 35 32 26 23 32 22 6 4 3 7 13 24 30
9 8 8 9 8 5 3 2 7 9 7 9 10 16 23 24 24 17 19 21 21 21 20 23 25 26 26 26 27 29 32 30 29 29 22 31 24 9 4 6 4 6 15
8 8 12 11 9 8 8 8 8 7 2 5 7 10 11 12 13 12 11 15 20 19 17 18 17 16 16 17 18 21 22 24 25 26 28 25 11 13 13 5 7 7 10
9 8 8 11 10 10 9 9 8 9 8 8 6 4 8 9 10 11 12 11 13 16 21 19 21 22 19 16 14 12 12 14 16 20 23 25 30 30 19 16 6 5 8
7 8 8 12 10 9 8 7 7 6 5 5 6 7 6 5 4 5 6 8 7 8 12 15 15 14 14 13 11 12 14 13 12 13 14 19 24 25 24 20 12 2 4
8 8 9 12 11 9 8 6 5 5 5 4 3 4 4 4 5 5 6 7 7 7 7 8 10 10 9 10 11 13 10 10 12 13 10 9 14 15 18 19 17 10 3
8 7 8 14 11 9 8 7 5 5 5 5 5 5 5 5 5 6 6 6 6 6 5 5 5 5 6 10 12 7 7 8 7 5 9 5 4 4 6 8 9 10 8
8 7 8 12 12 10 8 8 6 5 7 7 8 8 8 7 6 5 5 5 4 4 4 3 2 2 3 6 4 3 3 3 1 2 2 1 1 1 1 2 3 3 4
7 7 11 14 12 10 8 7 7 7 7 7 6 6 6 5 5 6 6 5 5 6 5 4 4 4 4 4 4 4 2 1 1 2 2 2 2 3 2 2 3 2 2
7 7 8 10 12 10 8 7 7 7 6 5 5 6 6 6 7 7 8 8 9 9 9 8 7 7 7 7 6 6 6 6 6 5 5 7 5 7 7 7 7 6 5
8 7 6 8 12 11 10 8 7 6 6 5 6 7 7 8 8 8 9 10 10 11 11 11 11 10 10 10 9 9 9 11 11 10 10 11 10 10 9 8 7 7 7
8 8 7 7 13 12 10 9 8 8 6 7 8 9 9 10 10 11 11 12 13 14 13 13 13 13 12 13 11 12 13 15 16 16 16 14 12 9 7 6 6 5 6
9 9 8 11 13 15 13 11 10 9 8 9 10 9 8 7 8 9 9 12 13 15 15 16 17 17 17 14 13 13 14 14 14 13 12 11 10 9 9 7 5 5 3
9 9 10 13 16 17 15 13 12 11 11 10 10 8 7 8 8 9 11 14 15 16 18 19 19 19 16 13 13 12 12 11 10 10 8 7 7 6 5 5 4 3 2
8 7 10 15 17 17 15 14 12 12 12 11 9 7 8 9 10 12 15 15 16 18 18 18 18 17 13 12 11 9 9 9 9 8 7 7 8 7 4 3 1 1 1
6 12 19 19 18 18 18 17 15 14 13 12 9 9 10 13 15 16 16 16 17 17 17 15 14 15 13 10 10 9 9 8 8 7 8 6 6 5 4 4 1 2 1
12 16 19 19 19 19 20 19 17 15 14 13 11 13 14 16 17 17 17 16 16 18 16 16 13 12 12 6 4 3 3 3 3 4 4 4 4 4 4 5 3 3 3
13 16 18 18 18 18 18 16 16 15 14 13 15 16 16 17 17 17 18 18 16 16 15 13 11 10 8 8 6 3 1 1 1 1 1 1 3 5 4 3 3 1 4
13 15 16 15 15 16 16 16 16 15 14 16 17 17 17 18 17 17 18 16 15 13 12 10 8 6 5 4 3 2 3 2 1 1 2 4 4 5 3 3 1 2 5
12 14 15 15 14 14 15 16 16 17 17 19 19 19 18 17 17 18 17 14 12 11 9 7 6 5 4 4 2 0 1 2 3 2 3 4 4 4 3 1 2 4 3
12 15 16 16 14 14 14 15 18 20 20 20 20 20 19 18 17 15 13 12 11 9 8 8 8 7 7 6 5 4 5 5 5 6 6 3 3 2 2 2 3 3 3
14 18 18 17 17 15 13 14 20 21 21 20 21 22 20 18 17 14 13 11 9 10 10 10 10 9 10 8 5 3 4 4 4 5 4 2 2 2 2 2 3 4 4
16 16 17 18 18 16 15 17 21 23 21 19 23 23 21 18 17 15 12 9 8 7 9 8 8 8 7 6 6 5 5 4 4 6 4 3 3 4 4 4 5 5 4

GFSMW_925_spd_081.txt.gz
Wind_Speed
8 11 13 20 19 18 21 22 23 26 25 23 23 25 25 22 23 24 25 24 24 23 27 28 27 27 27 26 25 26 26 25 23 18 21 24 25 26 27 27 28 30 29
7 5 7 15 17 17 21 23 22 21 22 23 26 27 26 25 25 25 26 27 28 26 27 27 27 27 28 28 27 27 27 26 24 13 5 3 8 22 28 31 31 31 29
8 5 6 8 16 17 12 16 21 21 21 21 21 20 20 22 25 28 26 27 26 27 27 27 29 29 28 30 30 28 28 26 24 23 11 1 4 3 7 12 19 28 29
6 4 8 10 11 11 9 10 11 12 15 19 22 24 26 23 23 24 29 30 27 25 23 26 27 29 29 29 30 29 29 29 22 18 23 27 12 3 3 5 8 11 16
9 8 8 12 10 9 7 6 7 8 9 10 14 20 23 25 24 22 20 20 20 21 22 23 24 24 22 22 22 24 25 26 23 25 18 20 25 19 8 7 6 9 11
8 7 9 11 10 8 9 9 7 4 5 9 11 12 15 19 20 20 20 20 19 20 20 19 18 18 19 17 16 15 13 16 21 22 21 21 10 6 11 7 10 8 12
9 8 8 12 12 11 10 9 8 9 6 3 3 8 11 11 12 13 14 13 12 14 17 20 18 18 18 16 15 14 12 9 11 12 15 16 21 23 20 16 7 6 7
10 9 8 14 15 12 10 8 6 7 5 5 5 4 2 5 8 9 10 11 12 13 15 16 19 18 16 15 14 11 8 7 9 11 9 9 12 13 16 15 4 2 4
8 9 11 16 15 12 10 8 6 6 4 4 3 3 4 4 4 3 4 5 5 4 5 8 10 11 12 11 11 10 9 13 9 8 8 10 8 9 10 9 10 5 2
8 7 8 15 13 12 10 8 6 5 5 5 4 4 3 3 4 4 4 4 4 4 5 6 7 8 8 7 7 7 12 8 6 6 6 4 5 4 5 4 5 5 3
8 7 9 14 14 11 10 8 7 7 6 7 7 6 5 3 3 3 3 3 3 4 4 5 5 5 5 5 6 6 5 3 2 1 1 1 1 1 2 3 4 4 4
8 7 11 16 14 12 10 8 8 8 7 7 6 5 5 3 2 3 2 3 3 4 4 4 4 5 5 6 6 6 6 6 4 3 2 2 1 1 2 2 2 2 3
8 7 9 11 14 13 11 9 8 8 7 5 4 4 4 4 4 4 5 5 5 6 6 5 6 6 6 6 7 7 8 7 6 5 4 4 3 5 6 6 5 5 5
9 7 6 9 13 12 12 10 8 7 6 5 5 5 5 5 5 5 6 6 6 6 6 7 7 8 8 9 10 11 12 13 13 11 10 9 8 8 7 7 7 6 8
7 7 7 7 13 13 11 10 10 9 7 7 7 8 7 7 7 7 8 8 8 9 9 10 11 11 11 11 11 13 14 16 17 15 15 14 12 9 7 6 6 5 6
9 8 7 10 14 18 16 14 13 11 9 9 10 10 8 6 6 6 7 8 11 13 13 13 13 14 15 13 13 14 17 16 15 14 12 9 7 9 9 9 8 6 5
9 10 11 14 19 20 19 17 15 14 12 12 11 10 8 7 7 8 9 11 12 12 14 16 16 17 15 14 15 14 14 13 12 11 9 7 7 6 5 5 4 6 6
8 8 11 15 19 19 18 16 16 16 13 12 11 9 8 8 8 10 11 13 14 16 16 16 16 16 14 13 12 10 10 11 11 10 8 8 7 7 5 4 1 1 2
6 12 19 19 20 21 20 19 18 16 14 14 12 10 10 10 11 13 13 14 16 16 15 14 13 14 13 11 11 9 9 9 9 8 9 6 6 5 5 4 2 1 0
8 13 16 17 19 20 21 20 18 17 16 14 12 10 11 13 14 15 15 16 15 14 13 15 12 10 10 7 6 5 5 5 5 5 5 4 4 4 4 5 4 2 2
8 12 16 19 19 19 20 19 17 17 15 14 11 12 14 14 15 15 15 15 16 15 14 12 11 10 9 8 6 3 3 3 3 2 1 1 3 6 4 4 4 3 3
9 13 16 16 16 19 19 17 17 14 14 14 13 14 14 15 16 16 17 16 15 14 12 10 9 7 6 5 4 3 4 4 2 1 2 4 3 4 3 4 1 2 5
10 13 15 15 15 17 19 18 17 16 16 16 17 16 16 17 18 19 19 17 15 13 11 9 7 6 4 4 3 1 0 2 3 2 3 5 5 5 4 1 2 5 5
11 13 13 14 14 15 15 15 16 18 18 19 19 19 20 20 20 19 18 16 15 12 11 9 8 6 7 7 6 4 4 5 5 5 6 4 4 4 4 4 5 4 4
13 16 15 15 16 15 14 14 16 19 20 20 21 21 21 19 21 19 17 15 13 12 11 10 9 10 10 8 6 5 4 4 3 5 5 4 4 5 5 5 5 5 5
14 15 15 16 17 17 16 14 16 20 21 19 21 22 23 20 20 18 15 13 11 10 10 9 10 10 7 6 6 6 6 4 4 7 7 6 6 6 7 7 7 6 6

GFSMW_925_spd_084.txt.gz
Wind_Speed
15 15 14 12 14 13 18 22 27 25 24 21 22 25 28 29 28 28 27 26 25 25 25 25 24 23 24 24 22 22 22 23 22 18 20 22 22 23 24 25 26 25 26
7 11 17 14 16 19 19 22 23 27 27 25 23 22 25 26 26 25 27 27 27 26 25 25 26 25 25 26 25 24 24 23 22 10 3 3 7 16 19 23 24 26 26
15 5 8 13 16 19 21 21 21 19 22 25 24 21 20 22 21 25 25 26 25 26 25 24 24 24 24 26 25 25 24 23 18 18 11 1 4 2 8 8 12 15 18
5 4 7 11 15 19 16 15 16 19 19 21 22 23 23 23 26 26 27 27 24 24 24 26 26 25 25 25 27 26 25 23 22 18 21 24 11 3 3 8 10 8 14
7 9 9 11 10 11 12 12 11 12 13 14 17 20 21 22 22 20 17 16 17 20 23 24 23 24 24 23 23 23 22 22 21 22 16 14 19 19 7 4 6 8 9
11 7 9 10 11 11 11 11 10 8 7 8 9 10 13 16 18 19 19 18 17 16 17 18 20 21 21 20 19 17 16 14 13 13 16 16 7 5 9 5 9 8 8
10 12 11 13 11 13 13 12 10 9 5 4 6 8 10 11 11 12 14 14 13 13 15 17 20 20 19 18 16 14 13 13 11 9 9 13 14 14 15 13 4 5 4
9 12 13 20 17 15 13 12 10 10 7 6 4 2 2 6 8 8 9 10 11 12 13 13 14 18 18 16 14 12 11 11 9 7 7 8 9 10 10 8 3 2 3
9 10 10 17 19 17 14 13 12 9 7 6 5 4 4 2 1 1 2 3 4 4 4 6 8 9 12 12 13 13 12 10 7 6 7 7 8 7 7 8 7 3 2
7 7 8 16 16 14 13 12 10 9 7 6 5 4 4 3 3 2 1 1 2 3 4 4 5 7 8 9 9 9 8 6 5 7 5 4 3 4 5 5 3 5 6
7 7 9 16 17 16 13 12 11 10 9 7 7 5 5 3 2 2 2 1 1 2 2 3 4 4 4 4 5 6 6 6 6 5 3 2 2 2 2 2 2 3 3
7 6 9 16 17 17 14 11 11 10 9 8 6 5 4 3 1 1 1 2 3 2 2 2 2 3 3 4 5 6 5 4 5 5 4 3 3 2 1 0 2 3 1
8 7 8 10 14 13 13 11 10 10 9 7 5 4 3 2 2 2 2 2 2 2 3 3 3 4 5 5 6 7 8 8 8 7 5 5 5 6 6 6 5 4 3
8 6 6 8 12 14 13 15 11 9 8 7 6 5 4 3 3 3 3 3 4 5 6 6 6 6 8 8 10 10 11 12 12 11 11 10 10 11 9 7 6 5 6
7 8 7 6 13 13 13 13 12 11 9 8 7 7 6 5 5 4 5 5 6 7 8 9 9 9 9 9 11 12 15 17 18 17 16 15 14 11 8 6 6 5 4
8 7 7 10 14 17 16 14 13 11 10 9 9 9 8 7 5 5 5 6 8 9 10 11 10 10 11 11 12 15 18 18 17 16 14 13 13 11 9 9 8 6 5
10 10 11 13 19 20 19 18 17 15 12 11 11 10 7 6 6 6 6 7 7 7 11 13 15 16 15 14 14 14 15 15 14 12 11 10 9 6 5 6 6 7 7
8 8 11 18 22 21 19 17 16 15 13 12 12 11 9 8 8 8 8 10 11 12 14 15 16 17 14 14 13 13 14 13 12 11 10 8 8 7 4 3 3 3 5
7 13 19 20 21 23 22 20 18 17 16 15 14 12 11 10 10 11 12 13 15 16 16 15 15 15 14 12 11 11 11 11 11 10 8 7 6 5 4 3 2 2 3
6 10 15 18 21 22 23 22 20 19 18 17 15 13 11 12 13 14 15 16 16 16 15 15 13 12 12 8 8 7 7 8 8 8 7 5 5 4 3 4 3 2 2
4 8 13 18 20 21 22 21 19 20 17 15 14 12 12 13 14 16 18 17 17 15 15 14 13 11 9 8 6 4 5 5 6 4 3 2 1 2 2 2 3 4 1
6 8 12 13 16 19 20 18 18 16 15 15 14 13 14 14 16 18 18 18 17 17 14 12 11 9 9 7 5 5 5 4 3 3 2 2 1 2 1 1 1 1 2
6 7 11 12 13 15 17 17 16 15 16 16 15 15 15 16 17 19 19 20 18 16 14 12 10 9 8 7 6 4 3 1 0 1 1 3 2 3 2 1 0 3 3
7 9 11 11 11 13 14 14 14 16 16 16 16 16 18 17 18 19 21 19 19 16 14 12 11 10 9 9 8 6 6 4 2 2 3 3 3 2 2 3 4 4 4
9 11 12 12 13 14 14 14 14 16 17 17 17 19 19 18 19 19 21 19 17 15 13 12 11 11 11 9 8 8 5 2 2 2 3 3 4 4 4 4 4 5 5
10 12 13 13 13 16 16 16 15 16 18 18 20 21 21 20 22 21 19 17 13 12 12 11 10 10 9 7 8 8 5 4 4 6 6 5 5 6 6 7 7 7 6

GFSMW_925_spd_087.txt.gz
Wind_Speed
8 10 13 7 9 10 15 16 18 19 22 23 23 23 25 26 25 24 22 21 20 21 22 21 21 21 21 20 18 18 17 16 16 13 12 17 14 16 16 16 18 20 19
5 7 10 6 6 10 10 12 17 19 21 23 22 21 22 25 29 28 26 24 24 24 25 25 25 23 24 22 21 21 18 16 17 7 3 3 4 11 15 12 14 14 16
9 6 10 13 8 10 16 17 17 21 23 23 22 18 16 17 14 21 22 22 23 23 24 24 24 23 22 25 23 22 21 16 16 15 9 1 4 2 7 11 10 8 13
6 2 3 9 12 14 14 16 18 19 20 21 24 23 21 17 18 19 20 21 22 21 22 25 25 24 23 23 23 21 22 21 16 16 20 21 12 3 3 7 7 9 12
8 8 7 11 12 11 12 14 14 17 19 19 21 22 20 18 16 15 15 13 15 18 22 24 24 25 25 25 24 22 22 21 20 20 14 13 17 17 7 2 5 6 5
13 11 10 9 7 9 11 14 13 13 14 15 16 17 19 19 17 17 16 15 16 15 16 17 20 21 22 22 22 20 19 18 17 17 15 15 7 6 7 4 8 6 6
14 13 10 13 14 13 13 12 15 14 11 10 9 9 10 10 10 11 12 13 14 14 14 16 18 20 20 20 20 18 17 16 16 14 14 13 13 12 10 8 3 4 4
7 10 12 16 21 21 16 15 13 13 11 9 7 5 4 6 7 8 9 9 10 11 12 12 12 15 18 18 18 16 15 14 14 13 12 9 8 8 10 7 6 1 4
7 10 13 17 20 21 19 17 15 11 10 9 7 5 4 4 3 3 5 6 7 8 8 9 9 10 10 14 16 16 18 16 15 12 9 8 6 8 6 7 7 4 2
7 8 11 15 17 18 17 16 14 14 11 9 8 7 5 4 4 4 3 3 3 4 4 4 5 5 7 11 15 16 15 14 10 6 4 4 3 2 2 3 4 4 4
7 8 10 13 16 16 16 14 13 13 13 11 9 8 6 5 4 3 3 3 3 4 5 6 6 6 7 8 10 10 11 11 7 4 5 4 4 3 3 2 2 3 3
8 10 14 16 14 12 10 11 11 11 11 11 10 8 6 4 3 2 2 3 3 4 4 5 6 6 7 8 9 9 9 7 7 6 6 6 5 4 3 4 3 2 3
7 7 9 11 14 15 13 11 11 11 10 9 9 8 7 5 3 2 2 3 3 3 4 4 6 6 7 8 9 9 10 9 9 9 8 8 6 6 6 5 4 5 4
9 8 7 10 13 15 14 13 12 12 12 11 7 7 5 5 5 3 3 3 3 5 5 5 6 8 8 9 10 11 11 11 11 10 9 9 8 8 8 7 7 7 7
9 9 8 9 11 12 14 14 14 12 11 10 9 6 6 6 5 5 4 4 3 5 6 7 7 7 7 8 11 12 14 15 17 16 15 12 11 9 8 7 7 6 6
9 9 9 11 14 18 19 18 16 14 11 9 9 8 7 7 7 6 6 6 6 6 7 8 7 6 8 10 11 15 17 18 18 18 16 16 15 11 10 10 10 7 6
11 11 12 16 20 24 23 21 18 15 13 11 11 12 11 8 6 5 5 6 6 6 7 9 9 12 13 13 14 17 19 18 16 14 14 12 10 9 8 9 9 10 8
8 9 12 16 22 23 22 20 19 18 17 15 14 13 10 9 7 7 7 8 9 8 10 12 14 16 14 13 14 16 17 16 14 12 11 10 9 6 5 6 5 6 6
7 13 20 22 22 23 23 22 20 19 17 16 16 15 13 10 9 9 10 10 11 13 15 15 15 15 14 12 13 14 16 14 13 11 10 9 8 5 5 5 5 6 5
6 12 15 17 20 23 24 23 21 20 19 17 16 14 12 9 10 11 12 13 15 17 15 15 13 13 14 11 11 11 12 12 11 10 9 6 6 4 2 4 4 6 5
3 5 9 14 17 21 24 23 21 21 18 14 13 12 11 10 12 13 15 17 18 16 15 15 14 12 11 9 8 7 8 9 10 9 8 8 4 3 3 3 5 5 5
4 5 8 9 13 18 21 20 20 17 15 15 15 14 12 12 14 16 18 19 19 17 15 14 14 12 11 9 7 7 7 8 8 9 8 6 5 4 4 4 5 5 3
4 4 8 10 11 15 17 18 16 15 16 16 16 14 13 14 15 19 21 21 19 19 17 15 14 13 12 11 9 8 7 6 7 8 7 5 5 5 5 5 6 7 3
4 6 8 10 11 13 14 14 13 15 17 18 17 15 16 16 17 19 21 23 22 21 18 15 14 14 13 13 12 12 11 8 7 7 7 5 6 6 6 8 7 6 5
6 9 10 11 11 12 13 13 14 16 17 16 17 18 18 18 19 20 22 24 24 24 21 19 16 16 15 16 14 14 13 11 9 8 7 6 8 8 7 7 7 7 7
4 7 10 11 11 12 14 14 14 16 18 18 19 20 20 21 21 21 19 22 19 18 16 13 14 14 12 10 13 14 12 10 10 9 8 7 8 8 8 8 9 10 9

GFSMW_925_spd_093.txt.gz
Wind_Speed
17 21 14 17 20 17 16 17 19 17 17 19 17 18 19 18 14 13 12 10 11 12 12 12 11 12 12 12 11 10 10 10 8 7 10 12 13 13 13 11 10 8 6
15 20 16 14 20 18 17 16 17 17 18 18 18 14 18 15 13 14 12 13 12 14 14 15 13 12 12 13 13 13 11 11 10 6 6 3 6 12 12 8 6 5 4
14 16 15 12 15 16 15 17 16 17 18 16 17 12 15 13 13 16 13 16 19 18 17 15 15 14 15 15 16 16 16 13 12 14 7 1 3 3 4 4 4 3 3
13 14 16 13 11 11 11 14 17 13 15 17 14 18 16 12 12 9 11 9 10 16 21 19 20 20 19 19 17 17 18 17 14 12 16 16 6 2 2 5 5 4 3
14 18 16 16 13 11 10 12 16 17 16 16 14 11 10 9 9 6 8 9 8 14 13 18 19 22 21 19 16 17 18 18 17 16 8 12 12 10 6 3 5 3 5
15 16 18 14 12 11 12 9 13 17 13 12 16 11 15 9 6 6 13 17 21 10 13 14 17 20 19 20 20 19 18 19 18 17 15 16 6 10 6 4 7 8 4
16 15 15 14 14 15 13 11 10 11 15 18 17 15 17 13 15 15 21 18 15 18 15 14 16 17 19 19 17 18 19 21 20 19 19 19 16 11 10 9 6 6 4
15 16 16 19 17 14 17 14 13 12 11 10 10 10 12 12 16 16 14 12 9 9 10 14 14 13 13 17 18 20 20 19 18 18 19 19 15 15 13 7 6 1 5
10 13 13 17 16 14 13 15 15 10 10 10 8 5 7 9 9 7 9 12 11 12 13 12 11 11 12 11 13 16 17 18 19 19 19 17 14 12 12 11 10 5 3
9 9 12 16 10 13 12 11 17 11 8 8 8 7 4 5 5 3 4 5 5 6 7 6 7 8 9 11 11 14 15 16 16 16 16 15 13 11 8 9 10 10 5
8 8 7 12 12 11 11 11 12 18 13 11 8 7 7 5 4 4 3 3 3 3 3 5 4 4 4 5 8 10 13 13 12 11 11 9 9 7 5 7 8 9 9
5 6 9 11 12 12 13 14 14 14 13 12 10 8 7 7 5 3 3 2 1 4 4 5 4 6 7 4 5 6 9 11 11 11 10 10 7 5 5 6 8 7 7
6 7 8 11 13 15 15 14 14 13 12 11 10 10 8 6 5 4 1 0 1 2 4 4 4 5 6 5 5 4 6 7 7 8 8 7 6 7 8 9 8 8 7
7 8 9 10 14 15 15 14 13 12 11 11 10 9 7 6 5 4 2 1 0 1 1 2 3 4 4 5 5 5 6 6 7 8 8 7 8 8 9 9 8 7 7
8 9 9 10 14 14 13 13 12 12 12 11 9 8 6 5 4 3 1 1 0 1 2 0 1 1 2 3 4 6 7 8 8 7 7 8 9 11 10 7 8 9 7
8 9 9 10 12 12 12 11 11 11 10 9 8 6 6 5 4 3 2 1 0 1 1 1 1 0 2 2 4 6 7 8 10 11 9 10 10 9 9 10 10 9 7
9 10 10 11 12 12 12 12 12 11 9 8 8 8 7 6 5 4 3 2 2 1 1 2 2 1 2 2 6 8 11 12 13 14 15 12 12 10 9 10 8 7 8
9 10 11 12 12 11 12 12 13 13 12 10 9 8 8 7 6 5 5 5 4 4 6 4 4 4 3 6 7 8 9 11 11 12 10 9 11 9 7 6 6 6 6
7 11 13 12 12 13 13 13 13 13 12 11 11 10 9 8 8 7 7 6 7 7 6 4 4 6 7 7 9 11 11 9 9 9 9 8 7 8 8 7 8 6 5
2 6 9 10 12 13 14 15 15 14 14 12 11 10 10 9 9 8 8 9 7 7 7 8 8 7 8 9 10 10 9 10 8 8 8 9 6 8 10 6 7 8 6
3 3 3 7 7 10 13 14 14 14 12 11 11 10 10 10 9 11 10 9 10 9 11 10 8 7 6 9 10 8 8 8 9 9 7 7 7 6 7 8 7 7 8
6 5 4 4 3 6 10 11 11 12 12 11 11 11 11 10 10 11 11 11 12 12 13 11 9 9 9 9 10 9 8 7 10 9 9 8 8 6 5 7 7 9 9
6 5 4 4 3 4 6 8 8 10 11 11 11 11 10 10 10 11 12 14 15 16 15 12 11 10 10 8 8 8 9 10 8 9 9 8 8 6 6 7 7 9 8
5 4 3 3 2 3 4 4 6 8 9 10 10 10 10 11 11 12 14 16 18 17 16 13 13 11 11 11 10 11 11 9 10 9 9 7 7 7 7 8 10 11 8
4 4 3 1 1 3 3 4 5 7 9 9 9 10 11 12 12 15 17 19 20 22 22 17 14 13 13 16 15 15 14 12 10 10 9 9 10 11 11 10 11 11 11
4 3 3 3 3 4 5 6 8 10 10 10 10 10 10 11 14 15 16 16 17 19 20 17 15 15 13 12 15 15 13 12 11 12 11 12 14 14 14 14 13 14 12

GFSMW_925_spd_096.txt.gz
Wind_Speed
8 23 23 19 18 22 26 26 26 22 22 19 22 20 23 19 21 14 16 18 15 17 15 15 13 14 14 13 13 12 12 11 11 8 11 15 15 15 16 13 11 7 10
9 9 24 21 20 20 24 25 26 23 23 24 23 22 25 24 23 16 17 18 18 14 15 15 14 14 15 14 14 15 14 14 12 7 7 2 5 18 15 12 10 7 5
7 7 17 22 21 20 21 25 24 26 24 23 21 16 13 17 20 20 20 20 18 18 18 17 18 16 14 16 17 17 18 17 15 16 7 1 3 1 7 11 7 6 6
7 8 14 19 18 21 18 21 21 26 23 19 18 16 15 15 14 14 13 11 10 11 18 19 17 16 16 17 18 20 21 20 17 13 20 15 3 1 1 5 5 8 7
6 8 11 23 17 17 17 21 20 21 22 18 15 12 8 4 4 6 8 6 6 8 9 9 11 14 13 15 15 19 21 20 21 20 10 18 17 12 5 3 3 4 4
9 7 19 26 20 16 14 9 17 17 21 20 16 14 11 5 8 7 9 7 4 4 6 10 15 13 12 14 21 25 30 25 20 21 20 16 7 10 7 4 8 4 5
9 8 13 16 22 18 16 12 12 13 15 18 20 19 14 12 13 10 14 7 9 9 6 10 13 16 14 15 16 19 21 23 23 23 23 22 23 15 14 11 7 6 7
9 9 10 19 24 20 19 19 17 13 14 15 17 15 17 22 26 21 25 17 19 17 10 13 23 16 12 12 14 20 22 21 22 22 22 20 18 18 15 15 10 2 4
8 10 10 20 25 24 20 18 19 18 15 13 13 8 7 12 16 19 18 13 12 9 11 12 13 12 13 13 15 17 21 21 21 21 19 21 20 19 17 17 14 8 3
3 2 5 16 24 25 21 17 19 20 22 19 14 15 12 8 7 9 8 8 7 7 7 6 7 8 10 11 13 13 16 18 19 17 19 20 19 16 14 13 11 11 10
6 4 2 7 24 24 21 19 20 21 20 22 22 14 10 10 7 6 6 5 4 3 2 4 5 5 5 6 4 8 12 13 13 13 14 15 14 15 11 10 9 10 10
5 3 7 16 21 20 18 18 18 18 19 17 17 17 12 8 7 8 6 4 2 2 4 4 4 6 5 4 4 6 8 10 12 14 13 12 12 10 8 7 8 9 12
4 2 7 10 15 15 16 17 16 17 17 16 15 14 13 11 9 6 5 4 4 2 1 3 4 6 6 6 6 5 6 8 10 10 11 12 11 10 9 9 11 11 10
5 5 5 7 14 16 17 17 16 14 14 14 14 15 13 12 9 7 5 4 2 1 2 3 4 4 5 6 7 8 9 10 10 10 10 10 11 10 10 10 9 9 9
5 6 7 5 14 16 18 17 16 15 16 16 16 15 13 11 8 7 5 4 3 1 2 2 3 3 4 6 5 8 11 11 10 10 10 10 10 9 9 11 11 11 11
7 7 7 10 13 16 17 19 17 16 16 16 15 14 12 11 9 7 5 3 2 2 2 2 3 4 5 6 4 6 8 8 10 11 9 9 9 10 12 11 11 12 13
7 7 8 10 17 18 19 20 19 17 16 16 14 12 11 10 8 7 6 5 4 4 5 5 6 5 5 5 6 9 10 11 11 11 11 12 11 11 10 10 11 10 10
7 8 9 12 17 19 19 18 18 17 16 15 14 14 13 12 11 9 7 7 5 4 4 4 4 5 5 4 8 8 10 10 10 12 13 14 14 12 11 9 10 8 9
4 12 15 16 15 18 18 19 19 17 17 16 15 14 13 12 10 9 8 6 6 5 4 4 4 4 3 6 6 8 11 12 13 12 10 12 12 10 10 10 9 9 8
10 6 16 15 17 17 19 19 18 16 15 14 13 13 13 12 11 10 8 8 7 6 6 6 6 6 6 7 8 7 9 12 11 11 11 7 8 11 9 9 11 10 9
10 9 12 11 10 16 18 16 16 16 14 13 13 13 12 12 11 11 10 8 8 7 8 8 8 8 7 9 9 8 9 10 11 10 11 11 8 10 11 10 10 8 10
8 10 9 9 8 9 12 12 11 11 13 12 13 14 12 12 11 10 9 9 9 10 10 10 10 9 9 8 11 10 9 8 11 11 10 10 9 8 9 11 9 10 9
9 8 8 7 4 3 5 8 9 11 11 11 13 12 11 11 10 11 10 11 12 13 14 14 13 12 11 11 10 11 9 9 10 11 10 9 10 9 9 8 8 11 12
8 7 6 5 5 3 4 4 8 9 10 12 12 12 12 10 11 12 12 14 15 16 16 16 16 14 14 14 13 13 12 10 10 10 10 11 12 10 8 9 9 11 12
7 7 6 7 5 3 2 4 6 8 10 11 12 13 12 11 13 14 15 16 17 18 20 20 20 17 17 17 17 14 15 15 13 12 12 12 12 12 11 12 13 14 13
8 8 8 6 4 2 3 4 4 7 10 11 11 14 13 12 13 14 14 14 15 15 16 15 18 18 14 15 15 16 15 13 13 13 14 14 14 14 15 16 15 15 15

GFSMW_925_spd_102.txt.gz
Wind_Speed
10 21 20 25 27 30 31 31 32 31 31 29 28 26 25 21 22 25 20 17 16 21 21 21 19 18 17 16 16 15 13 13 11 8 11 14 16 18 17 16 13 14 13
7 8 20 22 25 27 29 31 31 29 32 33 34 26 27 23 22 20 18 25 24 22 21 19 19 19 16 16 17 17 16 14 13 5 3 3 4 11 14 17 14 14 14
10 6 10 23 25 26 27 28 30 31 31 31 28 24 24 23 23 24 24 20 25 24 23 21 19 18 20 19 20 19 16 16 13 15 5 0 3 3 6 2 9 10 13
6 7 11 16 26 29 28 27 28 29 32 31 30 27 28 21 27 25 21 20 21 19 18 23 22 20 20 20 20 18 17 19 16 12 15 13 5 1 2 2 4 7 9
9 10 12 23 31 30 29 29 27 27 29 30 28 25 25 22 20 27 24 17 13 12 12 11 10 19 20 19 17 14 16 15 12 12 11 10 17 15 7 3 5 8 8
7 8 14 20 24 26 27 28 26 26 25 26 24 22 20 16 15 16 17 16 12 14 15 15 13 7 8 9 9 11 13 15 15 16 16 19 11 11 10 5 6 9 10
6 7 8 11 17 23 24 24 24 24 22 21 21 22 21 20 17 19 19 19 17 17 16 18 18 17 20 16 13 14 15 15 14 18 23 28 32 24 21 16 7 5 10
8 8 9 16 22 24 21 23 23 22 22 22 22 23 23 20 21 19 20 20 21 18 18 16 15 13 15 15 23 29 25 21 21 21 20 29 28 24 23 19 13 2 5
7 9 9 20 25 24 24 24 24 23 23 26 26 25 23 22 22 20 19 17 16 15 14 14 12 11 12 13 14 20 21 20 20 24 23 23 23 19 22 22 21 15 4
7 7 9 19 26 27 23 20 21 23 25 25 25 24 23 21 21 20 17 16 15 13 12 12 12 12 14 14 16 18 18 17 19 20 19 18 19 18 20 20 19 22 17
4 8 8 14 22 25 22 20 19 21 23 23 23 22 22 20 19 19 18 16 14 13 12 12 12 11 12 12 12 11 12 14 15 16 15 17 16 16 16 16 18 17 16
3 4 9 17 17 20 19 19 19 19 19 19 18 17 16 16 16 15 15 14 13 11 10 8 8 8 9 9 10 10 11 11 13 13 12 14 13 14 14 14 14 13 13
6 4 5 8 16 18 19 18 16 18 17 16 17 16 15 14 12 11 9 9 10 9 8 7 7 8 9 9 10 11 12 11 12 13 13 15 15 14 14 15 14 11 10
5 3 5 6 15 17 17 19 18 17 17 16 15 14 12 11 9 8 8 8 7 7 5 4 5 6 7 8 8 10 11 13 11 12 14 13 13 13 12 12 12 11 11
5 4 4 4 11 15 16 15 15 16 17 16 15 13 13 12 11 10 9 8 7 5 3 3 4 5 6 7 8 9 10 10 12 12 12 13 12 12 12 12 12 13 12
2 5 5 6 9 13 15 16 15 15 14 14 15 16 15 14 12 11 10 8 6 4 3 3 4 5 7 8 9 10 10 11 13 12 13 12 9 10 9 10 11 12 14
5 6 7 12 17 18 20 19 16 15 16 16 16 17 15 14 13 12 11 9 7 5 4 5 6 8 8 8 10 8 10 12 12 12 12 10 9 7 7 8 8 10 11
4 5 7 13 16 17 18 15 15 17 17 17 17 16 15 14 14 13 11 8 6 5 6 8 8 9 9 9 7 9 10 12 12 11 11 10 10 10 10 10 9 8 9
5 8 11 15 17 18 17 17 18 17 16 17 17 16 16 15 14 12 10 8 7 8 10 8 7 8 9 8 8 10 11 12 11 10 10 10 9 8 9 9 10 8 6
8 9 9 14 18 19 20 21 19 18 17 17 16 15 15 15 13 12 11 10 9 9 9 9 7 8 9 8 9 10 11 10 10 10 9 9 9 9 8 9 9 9 9
11 10 5 10 15 18 20 20 17 18 16 14 14 14 14 14 13 12 11 10 10 9 9 8 8 10 10 10 10 11 11 10 10 10 10 9 9 10 9 9 11 9 10
11 11 14 11 5 11 17 17 17 14 12 14 15 16 16 15 15 14 12 12 11 10 10 11 11 12 13 12 12 12 11 10 11 12 11 10 9 9 10 9 9 8 9
10 10 10 10 10 6 7 10 10 11 13 14 15 15 15 14 14 14 13 11 11 11 12 12 14 16 15 15 14 12 12 10 12 12 11 10 11 9 9 9 8 10 15
10 9 10 11 10 7 4 1 4 6 10 12 12 13 14 14 14 13 13 12 13 13 14 14 16 19 17 16 15 16 13 13 12 11 10 11 11 13 11 9 10 12 13
9 10 10 9 8 7 7 5 1 3 7 9 10 12 13 14 14 14 13 14 14 14 16 17 17 19 19 19 19 18 18 16 17 14 12 13 14 15 14 13 14 14 14
8 9 9 7 7 5 4 3 2 2 5 7 8 11 12 13 14 14 14 14 14 14 15 15 17 17 16 15 13 16 15 16 15 15 16 17 18 18 19 19 18 17 17

GFSMW_925_spd_105.txt.gz
Wind_Speed
6 9 10 26 28 30 36 37 36 35 34 36 32 29 31 28 25 28 25 23 21 19 17 16 15 18 19 19 18 16 14 12 10 8 9 12 14 15 16 15 14 13 12
9 8 5 18 30 30 35 36 34 35 33 30 31 23 28 23 23 24 24 21 23 20 19 19 18 18 18 17 18 18 16 11 11 5 2 3 2 1 5 12 15 12 11
8 7 5 15 26 28 31 32 30 28 31 32 30 24 24 22 19 25 28 26 23 21 20 19 17 17 17 18 18 19 18 10 9 12 5 0 3 3 5 5 4 9 10
7 6 6 10 17 26 28 27 28 27 28 28 29 29 27 18 21 29 27 24 23 24 23 23 21 19 18 19 18 18 20 13 13 12 16 14 4 2 2 1 1 4 7
12 11 8 17 22 21 22 26 28 29 27 27 27 23 20 25 26 28 22 19 20 20 17 18 18 21 18 14 16 18 25 15 15 13 7 12 13 11 7 3 5 9 12
19 14 14 19 19 19 21 21 20 20 22 20 20 19 18 19 19 18 23 25 20 20 17 16 20 17 18 25 27 20 13 15 11 12 14 12 6 6 8 6 8 11 10
14 8 8 10 15 19 19 19 19 18 17 17 17 18 16 16 16 17 16 17 16 15 14 14 13 14 13 13 14 13 12 11 12 14 20 21 20 18 19 17 10 8 12
12 9 7 14 20 21 17 17 19 19 17 16 17 17 17 17 17 13 12 14 15 12 11 13 13 12 13 14 13 12 12 13 21 20 19 22 21 22 25 24 16 2 8
6 8 7 11 17 20 21 21 20 18 17 17 17 18 18 22 18 17 16 17 15 13 11 13 13 13 15 16 18 19 16 16 18 22 22 22 23 22 25 25 24 15 3
5 5 4 10 18 23 23 19 19 18 17 18 19 21 22 19 19 18 18 17 14 13 12 13 13 12 12 12 13 14 14 16 17 18 18 19 19 19 22 21 21 22 16
6 7 6 9 16 21 20 18 16 15 15 16 19 20 19 17 15 14 14 13 12 12 12 12 11 10 10 10 10 11 12 12 13 13 14 16 16 16 18 17 16 18 17
5 5 8 16 15 18 20 20 17 15 14 16 16 15 16 15 15 14 12 11 11 9 8 8 8 7 7 7 8 9 10 12 13 13 12 13 12 15 14 13 15 14 14
3 4 4 4 12 17 17 17 16 16 15 15 14 14 14 13 12 11 10 9 8 6 6 5 5 5 5 6 8 10 11 12 12 12 12 11 12 14 13 13 11 11 10
4 4 4 3 6 11 14 13 13 14 14 15 15 14 13 12 11 11 10 8 8 6 4 4 4 4 5 5 6 8 10 11 12 12 11 12 12 12 12 12 10 9 9
4 4 2 4 7 10 12 13 13 14 16 16 15 14 14 13 13 11 10 9 7 5 4 4 3 2 3 4 6 8 10 11 11 11 12 12 12 11 11 11 11 9 10
3 3 2 4 6 10 12 13 14 14 14 14 16 15 15 14 12 11 9 7 6 5 4 4 2 3 4 6 8 10 11 11 12 13 13 13 13 11 9 9 10 12 12
2 3 4 5 9 12 13 14 14 13 13 12 12 14 13 12 11 9 7 7 6 5 4 3 4 5 6 6 7 8 11 11 11 13 14 13 12 11 9 8 7 8 9
7 5 3 7 8 8 9 10 11 12 12 14 13 13 12 11 10 8 8 7 6 5 5 5 6 6 6 7 8 7 10 11 12 12 12 12 11 11 10 11 10 9 8
6 9 9 8 9 13 15 14 14 13 13 13 13 12 12 11 11 10 9 7 6 6 6 9 8 7 7 8 7 10 13 13 13 12 11 11 11 10 9 9 8 7 6
11 15 10 7 10 12 14 15 14 14 11 13 12 12 11 11 11 10 9 9 7 7 9 9 9 6 8 7 8 11 12 14 12 11 11 9 9 8 7 7 8 7 5
11 13 6 4 8 12 14 14 12 13 12 10 11 11 11 11 10 10 11 9 8 8 9 10 8 9 9 9 10 9 12 12 12 11 11 9 9 8 7 8 9 7 6
12 11 12 12 6 8 13 12 11 9 9 10 11 11 10 10 11 12 11 10 9 9 11 11 11 10 10 11 12 12 11 13 12 12 11 10 8 8 8 9 8 8 8
9 10 10 14 14 8 5 7 5 5 6 8 8 9 10 12 12 12 12 11 10 11 12 12 13 13 12 13 13 13 12 11 11 12 10 10 10 9 9 9 10 8 11
10 9 11 13 14 11 9 5 2 2 5 7 8 9 10 11 12 13 13 12 12 12 13 14 16 16 15 15 14 14 14 12 12 13 11 11 10 11 13 10 9 11 14
9 9 10 10 10 9 10 7 5 2 3 4 6 8 10 11 12 13 13 13 13 13 14 16 15 16 18 16 14 14 17 16 15 14 15 13 13 13 14 13 12 12 12
6 8 8 8 8 7 7 6 4 2 1 2 4 7 9 10 12 13 13 13 14 13 14 14 14 17 17 16 14 14 14 15 13 13 17 17 16 17 18 17 16 15 15

GFSMW_925_spd_108.txt.gz
Wind_Speed
1 4 10 19 32 35 37 36 35 36 36 34 30 29 32 31 28 26 24 23 23 21 20 18 18 19 20 19 17 15 14 13 11 9 9 9 11 11 13 13 12 11 11
1 4 10 16 19 28 30 26 31 36 38 34 34 24 29 31 27 24 25 23 23 22 21 21 20 19 19 18 16 16 12 9 8 3 4 3 0 2 1 6 13 14 11
1 3 5 15 21 23 28 26 25 33 33 29 29 18 20 18 27 26 25 24 23 21 18 20 19 17 16 18 17 16 13 6 2 6 3 2 3 3 1 0 2 8 10
2 2 4 9 18 23 23 20 19 32 36 31 26 18 18 12 16 25 27 24 24 22 20 21 19 16 15 13 11 8 8 9 9 7 6 12 8 3 3 2 0 1 4
4 1 2 5 13 18 23 23 29 25 26 34 34 33 29 30 22 21 24 28 29 23 20 19 16 9 7 10 11 15 15 17 18 17 12 10 11 17 6 2 2 5 8
6 2 1 2 9 11 20 16 19 22 25 29 36 39 37 31 31 28 29 24 23 20 21 18 17 12 17 15 15 15 15 11 13 15 10 10 4 5 7 4 7 8 15
8 4 4 3 10 16 21 28 31 29 23 22 15 15 13 17 21 25 20 20 21 18 18 16 14 9 5 5 5 6 6 9 10 11 13 14 16 18 17 14 8 9 12
9 5 4 3 7 15 15 15 16 15 13 15 16 14 17 17 16 14 9 11 14 12 11 9 7 5 4 4 4 6 6 6 9 13 17 16 15 16 18 19 10 4 8
5 4 5 6 8 15 17 15 13 11 12 12 12 13 14 14 13 12 10 12 12 11 11 9 7 7 7 6 7 8 10 11 10 11 12 14 16 16 15 19 22 15 5
5 5 4 9 10 11 13 12 12 11 9 10 12 13 13 13 14 12 14 14 12 9 8 8 8 6 4 4 4 5 7 9 10 10 12 13 14 14 14 15 17 18 17
5 4 5 6 7 9 11 10 9 8 9 10 10 12 13 14 13 14 13 11 10 9 6 4 3 2 3 4 5 5 5 6 7 8 10 11 11 12 12 14 14 14 16
6 4 3 6 5 8 12 12 10 10 9 11 13 15 15 14 13 11 11 10 9 6 5 5 3 2 2 2 2 3 3 5 6 7 8 9 10 9 11 13 13 13 14
7 6 5 2 4 7 10 11 11 11 11 13 16 17 16 15 15 14 12 10 8 8 8 6 6 4 2 1 2 4 4 5 6 7 8 9 9 10 11 12 12 12 11
6 5 5 5 6 7 10 11 11 12 14 15 16 16 15 14 13 12 11 11 11 11 9 7 5 3 2 1 2 3 4 5 6 7 7 8 9 10 11 11 11 10 9
8 7 6 5 7 7 9 11 12 13 14 15 16 16 15 15 14 14 15 14 13 11 9 7 5 5 2 2 3 5 6 7 7 7 8 8 9 9 10 10 10 10 9
8 7 6 6 7 8 10 12 14 15 15 16 16 17 18 17 17 15 14 12 10 9 8 6 5 3 2 2 4 6 6 7 8 9 9 10 10 10 10 9 9 8 10
8 8 6 2 2 5 10 12 13 15 15 15 15 15 16 16 14 13 12 12 10 9 8 7 5 2 1 2 4 5 7 8 8 9 9 8 8 9 9 10 9 9 9
6 8 10 9 2 6 8 10 11 11 12 13 14 14 14 14 14 13 12 12 11 8 7 4 2 1 1 1 3 3 8 9 10 9 8 9 9 9 10 10 11 11 10
7 9 10 9 7 8 9 12 12 11 11 12 14 14 14 15 15 14 13 11 10 8 6 3 0 0 1 1 2 5 8 10 12 9 9 8 10 9 8 7 9 8 6
11 13 12 3 7 10 11 11 10 10 11 12 13 14 14 13 13 11 12 11 9 7 5 1 2 1 1 2 4 6 8 10 10 9 7 7 7 8 6 6 6 7 6
13 14 9 5 3 9 13 12 11 10 8 8 11 12 11 11 13 13 11 9 8 7 4 3 3 3 5 4 5 6 9 10 10 11 9 8 8 6 5 7 5 6 6
11 12 12 10 6 7 11 9 7 5 7 10 11 12 13 12 11 11 11 10 9 7 5 6 7 5 6 7 7 9 9 10 12 11 11 8 7 6 5 6 8 6 7
10 10 10 13 14 9 5 8 5 6 7 9 9 10 9 10 13 12 11 10 9 8 6 8 9 9 7 8 9 11 12 10 12 13 11 9 7 7 7 7 8 6 9
10 10 11 14 15 14 12 8 5 3 5 6 7 8 10 11 9 10 9 11 10 9 8 9 12 12 11 9 10 11 12 11 12 12 11 9 8 9 9 10 9 9 10
9 10 10 11 11 11 12 10 7 4 4 4 4 5 7 9 10 11 11 11 10 10 11 11 11 11 14 11 8 9 10 11 13 12 13 13 11 11 11 11 10 10 9
7 9 9 9 9 9 9 9 7 5 3 2 0 3 5 6 8 9 10 12 12 12 13 11 12 12 13 12 11 11 10 10 10 11 14 15 14 14 13 13 13 12 11

GFSMW_925_spd_111.txt.gz
Wind_Speed
8 7 30 32 28 26 29 31 30 29 34 34 32 28 27 30 28 28 27 28 26 24 23 20 19 19 17 16 14 11 9 6 5 4 5 6 8 10 12 11 12 12 12
7 6 16 23 25 30 27 26 27 26 27 27 25 21 22 27 29 25 24 25 24 23 22 21 19 19 18 15 13 12 7 5 5 5 3 1 1 2 3 5 11 13 12
6 4 11 23 21 16 14 25 23 24 31 30 29 22 24 18 24 26 25 24 23 24 23 21 19 17 16 16 14 12 10 8 8 9 3 1 2 1 3 4 4 6 9
7 4 7 16 23 21 22 26 24 27 26 26 29 30 29 21 23 25 29 26 24 21 21 19 16 15 11 9 11 11 14 15 12 9 11 13 5 2 2 4 4 2 1
9 6 7 9 16 23 34 30 19 18 34 18 27 26 18 22 25 21 20 20 20 21 23 19 18 17 9 6 10 15 19 17 16 13 6 9 15 17 8 1 2 5 6
8 5 7 11 11 16 21 26 25 32 31 42 20 22 17 16 20 22 21 18 16 24 21 16 19 17 19 13 19 20 18 17 15 11 10 10 4 3 4 2 3 5 8
4 6 6 5 8 15 21 28 33 32 27 25 36 30 24 21 28 27 18 16 21 24 24 19 25 22 15 11 10 11 8 10 10 8 8 8 10 11 12 11 7 5 7
6 6 6 9 14 16 21 23 24 25 24 24 26 14 23 17 26 24 22 25 28 25 25 20 17 14 14 12 10 9 9 8 7 6 7 11 11 9 9 9 9 5 6
7 7 7 9 6 10 15 18 20 20 22 21 20 23 30 33 33 28 28 23 22 21 21 19 18 16 14 12 10 9 9 8 7 5 5 8 9 11 11 10 11 8 3
9 7 6 9 6 7 12 11 17 21 23 23 25 27 27 23 19 21 22 21 20 21 21 20 17 15 13 11 10 9 6 3 4 5 6 6 6 6 6 7 9 10 13
9 7 7 10 6 8 11 13 16 19 18 17 18 20 21 23 22 23 23 23 21 20 20 18 17 15 13 11 9 7 4 3 2 1 3 2 4 5 6 6 7 9 11
5 5 7 6 5 6 10 12 14 16 17 17 19 21 22 22 23 24 22 20 20 19 17 17 16 13 11 10 8 7 4 3 3 2 1 1 3 4 5 6 7 8 9
5 5 5 6 5 4 7 10 12 15 17 19 21 22 22 23 23 22 21 20 20 17 15 13 13 13 11 9 8 6 4 3 2 1 1 3 4 5 6 7 8 8 9
8 7 6 4 4 3 5 9 10 13 16 18 19 21 20 19 20 20 19 17 15 15 16 15 14 13 12 10 9 7 4 3 1 2 2 3 4 6 6 7 8 9 10
11 9 8 6 7 6 8 9 10 11 14 17 19 19 19 20 19 18 16 16 16 17 16 15 14 12 10 10 8 6 3 2 0 2 3 4 5 5 6 8 8 8 9
10 9 8 8 7 4 7 9 11 12 14 16 16 17 20 20 19 19 19 16 15 15 14 14 14 14 11 8 6 5 2 2 2 2 3 4 4 5 5 8 9 9 8
7 8 8 8 6 4 6 8 11 12 14 18 20 21 21 20 18 18 18 18 16 15 14 15 14 11 8 6 2 4 2 2 4 4 4 3 5 5 6 7 8 8 8
9 8 8 10 5 1 6 11 12 13 13 15 15 16 18 20 19 19 18 17 16 15 13 10 9 8 7 6 3 3 1 2 4 4 3 4 6 8 8 9 9 9 9
8 12 15 14 5 2 6 9 10 11 12 15 18 19 19 19 18 17 16 15 14 12 10 9 9 10 8 8 5 4 0 2 5 5 4 4 6 7 6 8 9 8 6
10 15 15 7 3 2 6 7 9 8 7 8 10 12 14 16 17 18 18 16 15 13 11 9 6 8 8 8 6 4 3 2 3 4 5 4 5 6 6 7 7 7 5
14 14 11 9 5 5 8 7 6 6 8 10 11 12 13 13 14 15 14 14 13 12 10 8 5 5 8 7 7 6 4 5 5 5 6 6 6 7 7 7 8 6 5
14 16 16 15 11 5 4 6 5 3 5 8 10 11 11 13 14 13 13 14 15 14 10 6 6 7 6 7 9 8 9 8 8 8 7 7 7 6 6 6 8 6 5
12 12 12 14 15 11 4 5 3 3 6 8 10 11 11 11 13 15 14 14 13 11 10 9 7 7 7 8 8 8 9 9 11 11 9 8 7 6 7 7 6 6 8
10 10 13 14 16 15 13 10 6 3 1 2 5 7 9 10 10 10 10 13 15 14 11 10 10 9 8 7 8 7 9 10 10 12 10 10 8 8 8 8 8 9 8
9 10 11 11 12 11 13 11 9 5 2 2 3 5 7 10 12 13 13 13 12 12 13 13 10 10 9 6 6 5 7 9 8 10 11 11 11 11 10 9 9 10 9
5 7 8 8 8 9 10 10 9 7 4 2 2 0 3 8 6 8 10 11 12 13 13 11 10 10 10 6 5 6 8 8 9 9 11 12 12 13 12 10 11 12 12

GFSMW_925_spd_114.txt.gz
Wind_Speed
13 14 16 31 30 37 42 36 41 41 33 30 29 25 23 21 20 19 19 19 18 17 16 13 12 11 10 10 10 8 7 6 5 5 7 6 6 7 7 7 9 9 9
13 9 15 27 30 40 38 36 32 32 33 30 29 28 23 20 20 20 21 20 20 19 17 14 12 13 11 11 11 10 7 8 9 5 3 2 3 3 4 5 6 8 8
12 9 12 24 29 29 29 31 28 29 31 29 28 22 21 16 17 19 18 19 20 20 18 14 13 13 13 11 10 11 10 10 7 8 3 2 2 2 3 2 3 6 10
7 6 13 23 35 31 37 30 26 28 31 27 27 28 27 22 22 21 19 23 22 20 19 18 15 14 13 13 14 13 15 14 9 6 9 7 5 3 3 0 2 4 2
8 7 14 22 32 35 18 20 26 26 24 26 27 26 22 22 20 19 19 20 21 18 18 16 13 15 14 14 16 17 21 18 10 9 4 5 4 5 5 2 2 5 8
8 10 16 13 25 25 29 15 15 19 21 22 25 28 24 20 20 20 22 19 20 20 16 16 14 15 17 17 18 18 19 18 13 10 10 7 4 3 4 3 5 5 7
8 8 14 13 24 28 29 30 21 14 16 17 14 20 18 10 10 14 20 18 15 13 13 16 16 21 20 22 17 15 14 19 16 15 10 8 7 6 7 9 9 7 5
7 5 13 17 20 25 29 29 29 30 24 16 22 28 18 9 14 9 11 8 6 10 11 11 16 25 26 19 15 15 12 13 12 10 7 5 5 6 7 8 7 6 10
10 8 14 16 18 20 22 24 23 21 25 26 19 19 6 23 13 9 15 18 16 19 16 14 28 27 19 16 15 12 11 10 9 7 7 7 8 10 10 10 10 8 6
7 12 14 15 14 18 23 22 23 26 30 29 23 28 26 32 28 15 24 23 20 19 22 29 24 21 20 17 13 12 12 10 9 8 7 7 6 5 5 4 6 8 10
13 13 13 16 14 14 15 20 18 21 25 29 30 27 27 27 29 32 32 28 26 27 31 27 25 21 19 16 14 12 12 10 9 8 6 5 5 4 4 5 5 6 8
12 9 12 15 15 13 13 14 16 19 20 27 29 26 26 28 28 28 28 27 30 31 30 26 22 20 18 16 14 14 12 9 9 7 6 4 3 3 3 3 6 6 6
13 14 12 11 13 13 11 9 10 12 16 22 28 29 27 28 28 30 30 29 27 26 24 22 22 20 18 16 13 12 12 10 9 8 7 4 2 3 3 4 6 6 6
12 13 12 10 12 9 10 8 9 10 13 18 22 25 27 27 26 26 25 24 24 24 22 20 20 20 19 16 15 13 11 9 8 6 5 4 3 3 4 5 6 9 9
13 12 11 10 11 8 9 11 8 10 12 15 17 19 22 24 23 22 21 22 22 22 22 22 21 19 16 14 12 10 9 7 6 5 4 3 5 6 5 5 5 7 7
12 11 10 11 10 8 9 9 9 9 11 12 15 19 22 22 22 21 20 19 19 20 20 19 18 16 15 15 13 11 9 7 5 4 2 2 3 5 7 7 4 6 6
10 9 9 9 9 7 7 9 8 9 10 11 13 14 18 21 21 22 22 22 21 19 18 17 15 13 12 13 12 11 9 7 4 2 2 3 4 6 6 6 7 9 7
10 10 10 9 6 6 7 8 8 8 11 12 11 11 13 14 17 19 19 20 22 23 22 20 19 17 13 11 10 10 6 3 1 2 1 2 4 7 6 5 7 8 10
10 11 10 7 5 3 5 8 8 8 7 8 11 13 15 15 14 17 18 17 19 19 19 18 17 15 14 13 10 9 6 4 2 3 2 3 4 7 8 7 8 8 8
11 13 12 8 5 4 3 4 5 7 7 7 8 9 12 13 14 16 17 17 15 15 14 14 13 14 13 17 16 11 6 4 2 1 2 5 6 7 5 8 7 8 6
14 13 11 11 8 4 4 5 4 2 2 6 10 11 11 11 12 15 16 17 16 16 14 12 11 12 13 12 12 8 4 3 4 5 6 5 5 7 10 10 11 7 5
14 15 13 13 12 8 4 6 7 2 3 3 4 6 8 10 11 13 13 12 12 11 10 8 6 6 7 9 11 11 10 8 9 8 5 6 5 6 9 10 10 8 6
12 13 13 14 15 15 11 9 8 4 4 5 7 7 6 8 9 9 9 8 9 9 8 7 7 8 10 10 13 14 13 14 14 12 8 9 6 7 8 10 8 5 6
9 8 9 12 14 16 17 14 11 7 4 3 4 5 6 7 7 8 10 11 12 11 11 11 10 9 10 11 10 12 12 14 12 10 10 9 8 9 9 9 7 7 8
5 7 8 9 10 11 12 14 12 9 7 3 3 2 2 4 6 8 9 11 9 10 10 10 10 10 10 9 9 11 11 9 8 7 7 7 10 11 9 8 7 8 9
3 5 6 6 7 8 9 11 11 9 7 5 4 3 3 4 6 7 8 9 10 12 13 13 11 10 10 9 8 10 10 7 6 8 6 8 11 11 10 9 9 10 10

GFSMW_925_spd_117.txt.gz
Wind_Speed
12 11 9 6 7 14 18 23 39 39 33 34 28 28 26 25 25 24 25 27 25 23 20 17 16 14 12 11 10 10 10 8 7 6 9 8 5 7 6 5 6 6 6
15 12 6 4 17 14 18 17 33 36 34 33 28 31 27 25 26 24 25 26 24 23 20 18 17 15 13 13 13 12 9 9 9 4 3 2 5 5 4 2 3 5 9
16 12 7 5 24 17 23 32 27 35 33 33 27 25 24 22 24 23 23 24 22 23 21 19 17 16 14 15 13 12 11 9 8 4 2 1 1 2 5 2 2 4 6
14 11 7 8 20 26 24 34 38 31 35 33 29 28 25 23 21 21 21 22 22 23 22 20 19 16 18 13 12 11 11 11 4 4 7 3 3 2 1 2 1 3 5
12 9 9 13 24 20 23 26 39 44 37 37 32 31 24 22 23 22 22 20 22 22 23 24 19 16 15 12 10 11 12 8 5 5 3 3 4 4 3 2 4 5 9
7 10 13 14 19 22 15 11 24 29 35 34 32 29 25 24 25 23 22 20 21 20 20 19 18 17 14 13 9 6 6 10 12 8 8 7 4 4 4 3 6 6 7
1 7 11 11 20 22 19 18 3 17 22 22 25 22 21 23 22 25 24 24 21 23 22 21 17 16 15 14 14 10 16 17 15 14 11 10 8 5 4 6 7 5 4
10 5 8 7 24 25 25 17 19 12 12 15 16 22 19 18 16 14 24 22 21 19 19 19 17 17 17 14 13 16 17 19 18 15 11 7 4 5 4 5 3 4 7
13 9 7 8 24 25 30 30 25 25 21 15 11 11 11 4 10 12 12 23 20 16 16 14 16 14 17 16 18 22 19 13 11 10 10 7 7 6 8 7 8 5 4
14 12 3 13 23 24 27 24 23 22 20 22 23 22 17 22 25 24 20 13 14 10 13 10 10 15 14 18 23 18 14 14 12 9 6 6 8 6 7 5 6 8 10
13 10 7 15 21 19 21 21 17 16 27 26 29 27 25 24 18 21 30 26 16 16 15 19 20 16 18 21 20 19 18 13 13 11 9 8 6 5 5 5 6 6 9
13 12 10 15 19 16 16 13 10 14 20 20 24 20 21 22 25 25 29 26 26 25 31 26 29 29 26 24 20 17 16 14 12 10 7 5 5 5 6 3 5 6 6
12 13 12 13 17 16 18 16 14 15 17 19 18 20 22 20 19 22 25 27 25 25 28 30 30 26 25 22 18 17 16 13 10 9 8 7 8 7 7 5 5 5 6
14 14 13 12 15 16 15 14 14 14 13 18 21 18 21 23 23 21 22 23 27 28 28 27 26 24 23 22 20 16 13 12 11 11 10 9 7 7 6 7 6 5 5
16 15 14 11 14 15 14 14 12 11 11 12 15 16 17 19 22 25 26 25 23 23 25 26 23 21 20 18 17 14 13 11 10 9 8 8 9 9 8 5 4 5 5
14 13 12 12 13 15 14 11 12 10 10 11 12 16 16 17 19 22 22 21 22 22 22 21 20 19 18 18 18 17 15 13 11 9 8 7 6 6 5 6 6 5 4
13 12 12 11 10 10 10 10 11 10 11 11 11 11 12 16 18 18 19 18 19 20 20 19 19 17 16 17 17 15 14 13 10 8 7 6 6 5 5 6 6 6 6
12 11 11 9 8 10 10 8 9 10 10 9 10 10 11 11 13 16 16 18 18 17 18 19 18 17 16 18 16 15 11 9 7 5 5 5 5 6 7 6 7 6 6
12 12 11 10 11 11 9 9 8 7 8 8 8 8 9 12 11 13 14 14 16 17 17 18 18 17 17 18 17 14 10 7 4 3 4 4 4 8 6 6 7 4 5
15 15 14 13 13 11 8 7 7 7 6 5 7 8 9 9 10 12 12 13 14 15 15 15 14 13 14 16 16 14 8 6 6 6 6 5 5 7 7 6 5 5 4
15 14 14 14 13 10 9 10 9 10 6 4 3 5 7 8 10 12 11 13 12 13 13 13 12 13 12 14 15 14 9 7 10 8 7 7 8 8 5 7 6 8 8
14 14 15 15 14 14 11 12 13 8 5 5 5 4 4 5 6 8 9 11 11 12 11 10 9 11 12 13 14 14 15 10 9 9 8 9 9 8 6 5 4 7 8
12 11 12 14 15 16 14 14 14 12 9 6 6 3 2 2 3 5 6 7 9 10 11 13 12 12 14 14 16 18 18 18 16 13 10 9 8 8 8 7 8 7 9
10 9 11 13 13 12 14 14 12 10 9 8 8 5 2 1 2 4 6 9 11 12 13 13 14 14 16 17 16 20 18 16 14 12 12 10 10 11 9 9 11 12 8
5 7 8 10 10 10 12 11 10 10 9 7 5 5 7 5 3 5 7 7 7 9 9 11 12 12 14 16 14 14 15 14 12 12 11 11 13 15 13 12 11 11 12
4 5 5 6 7 8 9 10 11 10 7 4 4 3 1 5 5 7 10 10 13 14 15 14 12 13 13 11 13 16 16 14 14 15 15 13 14 15 14 11 12 13 14

GFSMW_925_spd_120.txt.gz
Wind_Speed
20 16 16 17 18 17 17 19 15 28 38 39 34 31 29 30 31 31 34 34 31 30 25 25 25 24 23 20 19 16 14 11 8 5 6 6 7 6 4 5 6 4 6
15 8 19 18 21 20 20 22 19 35 37 37 35 35 34 32 32 31 34 30 32 33 28 28 27 25 22 20 18 17 15 10 8 3 2 2 2 4 5 6 7 9 10
8 8 10 17 20 20 24 23 32 29 37 40 36 36 32 30 31 31 33 30 31 33 29 29 29 25 23 21 19 17 14 10 6 8 3 1 2 2 4 3 3 3 5
13 12 10 12 20 21 25 22 28 23 35 43 37 33 32 29 29 31 34 34 34 33 28 29 28 25 22 20 19 14 13 8 8 7 6 3 2 2 0 2 3 6 7
11 9 7 11 21 21 27 27 28 23 12 34 37 31 28 30 32 31 33 34 33 33 30 30 27 27 23 21 18 16 12 8 8 6 6 3 2 3 3 2 4 7 7
7 7 6 11 18 20 20 22 19 29 30 26 39 38 31 30 29 28 30 33 33 34 30 30 29 24 23 21 20 17 13 11 7 7 5 5 3 5 5 3 6 6 5
2 5 7 7 17 20 19 16 11 17 26 33 26 38 36 36 35 34 31 33 31 31 31 29 27 25 24 21 17 16 13 7 4 6 6 7 9 8 8 5 6 4 3
2 4 8 8 19 24 20 21 17 13 4 23 13 21 29 25 31 31 29 30 28 30 32 30 27 25 22 20 19 13 8 5 3 4 6 6 8 7 6 6 3 2 2
5 4 6 10 23 24 25 27 22 16 6 20 22 21 20 25 26 28 32 30 29 30 30 28 25 23 22 21 17 13 8 8 7 10 11 12 11 10 10 7 4 1 1
8 7 2 12 24 24 28 23 23 21 15 19 13 14 10 18 23 21 30 30 30 31 31 26 22 24 21 18 14 10 7 10 9 11 13 13 13 11 8 7 4 5 5
11 10 3 18 22 18 20 18 24 27 27 23 23 20 17 12 13 18 19 21 26 26 28 25 23 24 21 17 16 10 9 13 16 16 12 12 11 8 5 4 4 3 4
13 10 15 17 21 18 18 17 16 19 29 31 26 25 25 23 17 19 22 22 24 22 25 22 23 21 16 15 14 12 20 22 19 17 15 13 10 7 6 6 4 4 6
17 22 18 15 19 23 24 18 18 19 22 25 24 24 21 19 20 16 16 20 24 31 30 24 22 19 17 19 20 24 24 22 18 15 14 12 9 8 7 6 6 7 8
16 19 19 18 21 21 21 21 21 17 15 18 19 16 14 16 18 20 24 24 23 22 23 24 24 22 22 28 29 24 22 21 20 18 16 15 12 11 8 6 6 8 7
21 18 15 14 18 21 20 23 21 17 14 14 16 16 15 17 16 16 17 21 21 20 20 22 23 23 27 27 25 23 23 22 18 15 14 11 9 8 9 9 9 9 7
19 19 17 16 17 20 19 18 19 18 16 17 16 14 13 12 13 14 16 16 16 17 19 22 24 25 26 24 22 22 22 19 16 14 11 8 7 6 6 6 6 7 5
17 16 14 13 18 19 18 18 15 15 15 14 13 12 11 12 13 14 14 16 17 18 19 19 22 22 20 19 21 22 20 19 17 13 12 10 8 7 7 5 4 5 6
13 11 11 19 22 22 21 17 16 16 16 15 12 10 10 11 12 13 14 14 16 17 18 18 19 19 19 21 21 20 17 16 13 11 9 8 7 7 7 7 6 6 6
10 13 18 19 21 20 18 20 20 19 17 15 12 7 7 9 7 9 12 12 14 16 17 18 18 17 18 21 20 18 16 13 11 10 8 9 8 7 7 6 7 6 5
17 17 20 20 23 22 20 22 21 19 18 14 10 8 7 6 6 6 6 8 11 12 14 13 12 14 17 20 19 17 16 15 13 11 9 8 8 8 6 7 7 7 5
17 17 19 19 20 17 18 20 19 19 13 11 9 8 7 6 5 6 7 7 8 9 10 11 12 13 14 17 19 18 15 13 13 12 12 11 12 10 9 9 10 11 10
14 17 18 19 19 17 16 18 19 12 11 11 10 9 7 4 1 1 3 4 5 8 8 10 11 12 14 14 19 20 17 16 16 15 13 12 11 10 8 10 10 10 9
12 13 17 18 19 20 19 21 17 14 10 10 10 8 7 6 4 3 1 2 4 5 7 9 11 13 14 17 16 20 21 18 18 15 13 12 11 10 10 9 8 8 12
12 15 16 16 17 18 17 15 15 14 11 11 9 7 4 4 2 1 2 3 5 7 8 11 14 13 13 16 18 20 20 20 18 17 15 14 13 13 11 9 9 11 12
10 12 14 14 14 11 12 12 12 11 12 12 10 9 8 6 4 4 6 8 7 5 8 7 11 12 14 16 17 18 21 22 21 17 17 17 16 15 14 13 13 11 10
7 10 11 11 7 8 9 8 8 7 4 6 10 10 10 10 9 10 10 9 11 12 13 14 15 15 15 15 14 15 16 15 16 20 22 20 18 16 15 15 14 13 12

GFSMW_925_spd_123.txt.gz
Wind_Speed
18 30 30 28 27 26 30 29 24 18 21 30 32 33 35 39 37 39 45 39 38 38 40 40 38 34 31 28 25 21 18 15 13 11 6 6 7 7 6 6 7 5 7
17 18 22 28 28 28 32 29 29 23 15 32 38 35 38 34 37 43 46 44 36 36 41 40 39 36 31 27 25 25 19 14 14 7 6 2 2 5 7 7 7 7 8
14 17 15 24 32 29 27 31 33 26 23 31 36 34 35 32 32 35 36 43 39 40 39 39 37 35 33 31 28 24 23 14 14 11 5 2 3 4 5 5 3 2 2
8 7 11 12 23 26 31 32 34 30 27 27 27 35 32 32 32 34 38 39 39 42 38 37 35 34 33 30 28 25 23 20 18 14 8 5 6 3 1 3 1 1 5
11 10 11 17 23 29 26 25 28 27 21 37 26 34 30 31 33 33 35 38 42 41 37 37 35 35 33 31 29 27 24 19 19 17 12 8 7 6 3 1 1 3 4
9 9 12 16 22 23 22 25 28 28 27 11 33 36 32 30 29 31 34 34 40 40 37 38 38 36 34 32 31 27 24 21 19 16 14 11 4 7 5 2 4 4 3
5 6 7 7 13 18 23 25 26 26 28 24 29 32 32 32 33 33 34 31 32 34 37 38 40 36 33 33 29 26 23 20 20 17 16 12 12 10 10 8 4 3 3
3 5 7 6 12 20 22 25 24 21 21 20 15 15 28 36 36 35 36 34 35 38 42 42 40 37 34 30 28 25 24 19 14 13 13 13 11 9 12 10 7 1 2
5 5 5 8 15 23 22 30 29 22 16 22 23 23 23 41 38 37 36 37 36 37 42 42 39 34 33 31 27 26 21 16 11 12 13 14 11 9 9 9 9 6 2
5 5 6 11 21 21 23 26 30 26 28 28 28 34 24 32 35 41 37 36 41 42 41 37 34 34 32 31 29 22 18 16 11 11 16 11 7 7 9 9 10 10 9
6 6 5 16 23 20 20 23 15 19 29 28 23 23 21 28 32 27 33 36 40 41 39 37 37 36 33 30 26 21 17 15 13 14 10 7 9 10 8 8 9 10 11
9 5 9 15 25 19 16 15 16 20 25 28 27 28 22 21 19 21 24 26 31 30 35 37 37 36 33 30 23 19 17 16 17 10 7 12 11 10 10 11 11 11 10
13 17 18 16 17 18 17 16 14 17 21 24 29 25 26 20 19 15 14 15 26 30 33 33 34 35 33 27 22 20 20 16 15 13 14 15 14 12 12 11 12 12 9
19 19 18 16 22 22 22 23 23 27 25 24 26 20 21 21 17 12 13 17 18 21 23 30 30 30 29 26 25 21 11 18 20 19 17 18 17 15 15 14 12 9 8
21 19 20 18 19 25 26 27 28 23 22 23 22 17 14 12 10 12 15 17 20 24 29 30 28 28 32 33 25 20 26 22 22 20 19 19 17 16 14 13 10 9 8
16 20 19 18 18 23 24 25 27 25 22 22 20 17 18 16 13 10 11 14 17 19 18 19 23 26 32 29 29 25 28 28 25 22 19 16 16 15 13 11 10 10 10
18 16 17 16 21 22 23 22 25 23 23 23 19 16 13 12 9 9 10 11 12 13 15 16 20 21 21 21 22 22 25 25 22 21 19 18 15 14 11 9 9 9 9
15 14 14 19 21 23 28 31 27 24 24 21 18 15 14 13 10 8 8 7 7 9 11 12 12 11 13 18 19 21 21 21 21 20 19 18 16 12 11 11 10 10 9
11 16 19 19 22 23 26 27 26 25 24 21 18 13 11 11 9 7 6 5 5 5 5 6 9 12 13 14 17 20 21 20 19 18 17 15 13 12 11 10 10 9 7
17 18 19 26 25 24 24 26 23 23 22 18 16 14 11 10 10 6 4 5 4 4 4 5 4 6 9 13 14 17 18 19 17 15 14 13 12 12 11 8 7 7 8
17 20 24 23 23 21 24 25 22 21 15 14 14 14 11 10 8 5 3 3 2 1 3 3 5 6 8 11 14 14 17 18 19 18 16 15 14 14 10 8 8 7 6
16 20 21 22 22 20 21 23 24 16 14 15 15 14 11 9 7 5 4 3 2 1 2 4 6 6 8 9 14 16 13 13 15 17 16 16 15 13 11 10 8 8 8
14 15 20 21 22 22 21 23 17 14 13 15 15 13 11 9 8 6 4 4 2 1 3 6 7 9 9 11 13 15 16 13 14 15 15 14 14 13 11 9 9 9 11
9 12 15 14 14 17 19 17 15 15 15 14 14 11 10 9 8 8 6 4 3 2 4 6 9 10 10 12 15 16 16 19 18 14 15 16 15 13 13 12 11 12 14
6 7 9 11 14 17 19 17 15 13 14 12 12 12 10 9 7 6 6 5 4 6 5 6 7 8 11 13 14 16 18 20 22 21 19 19 20 18 17 15 15 16 17
6 3 5 8 11 11 11 12 12 12 11 11 13 11 10 10 10 10 8 6 7 8 9 11 12 13 11 12 10 10 13 15 16 19 23 22 24 24 24 21 20 19 18